GFSSW_prec_cloud_003.txt.gz
Cloud_Cover
0 0 0 0 0 0 0 0 1 25 31 28 29 14 3 0 2 0 0 0 0 0 0 0 0 0 0 0 0 71 82 63 100 95 98 93 71 3 0 0 0 0 0 0 0
0 0 0 0 0 0 0 0 18 20 77 96 100 24 28 5 0 0 0 0 0 0 0 0 0 0 0 0 40 97 99 13 76 50 97 100 93 6 2 0 0 0 0 0 0
0 0 0 0 0 0 0 0 30 75 100 100 100 48 7 8 0 0 0 0 0 0 0 0 0 0 3 3 8 100 50 3 3 60 97 43 40 83 28 5 0 0 0 0 0
0 0 0 0 0 0 0 0 64 90 100 100 100 45 0 0 0 0 0 0 0 0 0 0 0 0 5 5 2 6 5 21 4 8 100 64 3 0 17 1 0 0 0 0 0
0 0 0 0 0 0 0 0 100 98 98 97 42 1 18 0 0 0 0 0 0 0 0 0 0 0 5 4 0 83 5 5 3 63 5 2 0 0 0 0 0 0 0 0 0
0 0 0 0 0 0 0 0 100 100 28 12 0 3 0 0 0 0 0 0 0 0 0 0 0 0 4 0 76 5 5 5 4 1 0 2 0 0 0 0 0 0 0 0 0
0 0 0 0 0 0 0 4 84 100 1 0 0 2 0 0 0 0 0 0 0 0 0 0 0 0 0 0 5 5 5 5 5 14 3 1 0 0 0 0 0 0 0 13 40
0 0 0 0 0 0 4 9 69 48 0 0 10 0 0 0 0 0 0 0 0 0 0 0 0 0 0 1 5 6 29 86 6 4 100 100 18 0 0 0 0 2 14 18 42
0 0 0 0 0 0 9 24 86 89 23 28 9 0 0 0 0 0 0 0 0 0 0 0 0 0 0 0 25 21 100 99 100 18 89 81 11 0 0 0 0 0 0 0 1
0 0 0 0 5 0 0 8 31 47 33 0 0 0 0 0 0 0 0 0 0 0 0 0 0 0 0 0 14 33 98 98 100 39 32 99 100 0 0 0 0 0 0 0 1
0 0 0 0 2 0 10 0 2 0 0 0 0 0 0 0 0 0 0 0 0 0 0 0 0 0 0 0 44 12 57 100 6 100 99 89 97 0 0 0 0 0 0 0 0
0 1 0 0 10 4 12 0 0 0 0 0 0 0 0 0 0 0 0 0 0 0 0 0 0 0 0 0 0 0 3 68 100 33 16 100 68 1 0 0 0 0 0 0 0
0 0 0 24 4 14 0 0 0 0 0 0 0 0 0 0 0 0 0 0 0 0 0 0 0 0 0 0 0 0 0 4 39 8 1 77 100 3 0 0 0 0 0 0 0
0 0 31 76 4 0 0 0 0 0 0 0 0 0 0 0 0 0 0 0 0 0 0 0 0 0 0 0 0 0 0 0 5 28 83 15 64 94 35 7 0 0 0 0 0
0 0 69 74 0 0 0 0 0 0 0 0 0 0 0 0 0 0 0 0 0 0 0 0 0 0 0 0 0 37 5 0 0 5 15 78 89 10 65 85 0 0 0 0 0
0 1 91 0 0 0 0 0 0 0 0 0 0 0 0 0 0 0 0 0 0 0 0 0 0 0 0 0 0 0 0 1 5 13 82 90 99 100 11 53 62 0 0 0 0
0 0 73 0 0 0 0 0 0 0 0 0 0 0 0 0 0 0 0 0 0 0 0 0 0 0 0 0 0 0 4 5 47 91 99 100 86 100 100 91 18 4 1 0 0
0 18 0 0 0 0 0 0 0 0 0 0 0 0 0 0 0 0 0 0 0 0 0 0 0 0 0 0 0 0 5 48 67 87 100 66 0 0 0 8 2 0 6 0 0
16 0 0 0 0 0 0 0 0 0 2 3 0 0 0 0 0 0 0 0 0 0 0 0 0 0 0 0 0 3 0 4 5 10 18 86 32 7 0 0 0 0 0 3 0
0 0 0 0 0 0 0 0 2 3 5 28 5 0 0 0 0 0 0 0 0 0 2 50 5 20 0 0 4 5 7 2 5 10 98 98 76 37 12 0 0 0 0 0 1
0 0 0 0 0 0 0 0 0 51 0 0 4 4 0 0 0 0 0 0 0 0 0 5 9 45 4 0 2 0 4 5 84 74 100 94 100 100 5 2 0 1 0 0 0
0 0 0 0 0 0 0 0 2 36 2 0 0 5 3 0 2 0 0 0 0 3 0 0 4 42 37 4 0 5 22 22 5 55 7 6 100 93 49 11 2 0 0 0 0
0 0 0 0 0 0 0 0 10 6 3 0 0 0 5 5 6 0 0 1 3 0 0 0 0 4 17 29 4 0 8 95 78 38 38 58 100 2 3 1 0 0 1 4 0
35 0 0 0 0 2 5 0 3 1 2 77 0 69 5 5 5 5 5 32 54 0 0 0 0 0 1 2 62 8 1 4 20 100 100 67 97 52 39 56 0 0 0 1 3
97 2 0 0 0 0 4 5 5 32 0 0 0 0 4 4 9 5 14 95 1 0 0 0 0 0 1 4 92 57 30 5 80 18 100 100 77 100 96 28 0 0 0 0 0
86 78 0 0 0 0 0 2 5 5 42 0 1 6 4 0 100 100 100 100 22 0 0 0 0 0 5 5 5 91 100 100 92 32 56 10 75 100 23 0 0 0 0 0 0
90 98 37 0 0 0 0 3 27 2 0 0 6 15 1 1 8 98 100 99 100 64 0 0 2 5 5 43 37 100 83 92 86 100 89 81 100 8 3 4 0 0 0 0 0

GFSSW_prec_cloud_006.txt.gz
Cloud_Cover
0 0 0 0 0 0 0 0 0 6 3 4 61 76 0 0 2 0 0 0 0 0 2 0 0 0 1 5 98 98 100 59 75 100 12 38 98 99 0 0 0 0 0 0 0
0 0 0 0 0 0 0 0 1 14 13 86 97 99 1 3 0 0 0 0 0 0 0 0 0 4 5 19 98 100 100 94 61 100 33 100 100 36 22 16 0 0 0 0 0
0 0 0 0 0 0 0 0 0 13 99 100 100 99 5 0 0 0 0 0 0 0 0 0 0 1 12 98 100 95 100 16 20 100 25 100 94 97 100 100 96 0 0 0 0
0 0 0 0 0 0 0 0 0 31 99 48 92 43 0 0 0 0 0 0 0 0 0 0 0 0 1 39 50 96 89 18 0 45 79 96 5 100 100 100 100 0 0 0 0
0 0 0 0 0 0 0 0 0 31 98 37 23 4 0 0 0 0 0 0 0 0 0 0 0 0 18 5 0 99 2 1 14 92 47 1 0 8 87 100 100 0 0 0 0
0 0 0 0 0 0 0 0 0 41 44 12 0 18 0 0 0 0 0 0 0 0 0 0 0 1 30 13 27 42 25 23 62 2 4 0 0 0 0 1 7 0 0 0 0
0 0 0 0 0 0 0 0 0 39 26 0 0 1 0 0 0 0 0 0 0 0 0 0 0 2 0 21 94 65 5 13 4 30 5 4 0 0 0 0 0 0 0 11 15
0 0 0 0 0 0 0 0 0 33 5 0 3 0 0 0 0 0 0 0 0 0 0 0 0 0 1 5 4 5 50 10 46 5 81 38 2 0 0 0 0 1 0 2 0
0 0 0 0 0 0 0 0 0 40 6 1 8 0 0 0 0 0 0 0 0 0 0 0 0 0 0 1 45 5 64 39 80 51 66 21 16 0 0 0 0 2 1 2 1
0 0 0 0 0 5 11 0 0 41 20 0 0 0 0 0 0 0 0 0 0 0 0 0 0 0 0 4 47 3 96 98 30 0 0 4 90 1 2 0 0 0 0 0 0
0 0 0 0 0 19 1 0 0 0 0 0 0 0 0 0 0 0 0 0 0 0 0 0 0 0 0 0 95 50 100 46 79 100 0 0 0 0 1 1 0 0 0 0 0
0 0 0 0 0 0 7 0 0 0 0 0 0 0 0 0 0 0 0 0 0 0 0 0 0 0 0 4 5 100 22 97 100 100 28 18 28 100 8 0 0 0 0 0 0
0 0 0 0 0 0 0 0 0 0 0 0 0 0 0 0 0 0 0 0 0 0 0 0 0 0 0 0 0 18 1 49 100 96 3 6 59 82 91 0 0 0 0 0 0
0 0 0 42 0 0 0 0 0 0 0 0 0 0 0 0 0 0 0 0 0 0 0 0 0 0 0 0 0 0 0 0 12 87 12 15 3 39 97 10 76 5 0 0 0
0 0 0 29 0 0 0 0 0 0 0 0 0 0 0 0 0 0 0 0 0 0 0 0 0 0 0 0 0 0 0 0 5 5 5 82 67 24 56 2 4 3 0 0 0
0 0 12 0 0 0 0 0 0 0 0 0 0 0 0 0 0 0 0 0 0 0 0 0 0 0 0 0 0 0 0 5 2 1 5 9 22 32 87 57 5 94 78 29 0
0 0 14 0 0 0 0 0 0 0 0 0 0 0 0 0 0 0 0 0 0 0 0 0 0 0 0 0 0 0 3 13 34 5 0 79 100 76 83 53 51 69 79 69 0
0 5 0 0 0 0 0 0 0 0 0 0 3 0 0 0 0 0 0 0 0 0 0 0 0 0 0 0 1 0 0 5 5 100 99 100 79 7 100 86 23 30 75 16 3
0 0 0 0 0 0 0 0 0 0 0 0 76 25 0 0 0 0 0 0 0 0 0 0 0 0 0 0 1 0 0 10 100 90 9 95 28 4 0 0 0 0 0 5 9
5 5 0 0 0 0 0 0 0 0 32 99 51 96 1 0 0 0 0 0 0 0 0 0 2 0 0 0 0 2 9 0 3 15 81 49 76 73 99 1 1 0 0 2 5
48 23 2 0 0 0 0 0 0 0 97 100 10 100 44 4 0 0 0 0 0 0 0 20 47 67 4 0 0 17 31 16 26 6 59 32 85 17 68 6 5 1 0 0 0
100 100 2 1 0 0 0 0 0 0 16 67 5 100 50 67 4 0 0 0 0 0 0 2 100 65 100 33 0 64 25 54 5 74 4 62 100 6 0 0 0 0 0 0 0
100 100 10 31 0 0 0 0 0 19 99 100 4 8 4 0 50 28 3 4 0 0 0 2 28 6 99 100 100 2 20 6 46 4 4 66 24 41 0 5 5 3 0 0 0
100 100 92 100 0 0 0 0 0 0 5 98 100 2 27 6 6 99 96 5 6 4 4 97 4 0 41 29 85 30 7 1 59 100 61 91 77 100 70 90 3 3 0 0 0
100 100 88 8 0 0 0 12 80 3 23 99 9 5 98 100 14 100 100 90 26 80 26 71 71 5 3 69 100 99 98 44 0 7 100 100 30 89 100 98 100 3 5 0 0
100 100 100 100 32 0 0 2 98 59 96 14 2 51 7 42 100 100 65 100 100 95 91 83 39 5 1 8 15 5 24 100 66 1 0 9 92 15 57 94 6 2 5 0 0
100 100 100 100 96 4 12 57 2 99 96 59 92 0 70 86 74 10 99 100 96 100 14 53 0 0 0 0 2 8 0 76 100 100 86 80 82 33 9 2 3 0 0 0 0

GFSSW_prec_cloud_009.txt.gz
Cloud_Cover
0 0 0 0 0 0 0 0 0 0 0 33 100 100 100 0 1 0 0 0 0 0 0 1 2 10 34 44 43 77 99 77 100 43 1 3 5 4 0 0 0 0 0 13 0
0 0 0 0 0 0 0 0 0 0 0 36 78 82 95 0 0 0 0 0 0 0 0 0 2 47 15 82 11 84 81 89 94 100 71 78 3 5 28 4 1 0 0 20 33
0 0 0 0 0 0 0 0 0 0 0 49 69 1 0 0 0 0 0 0 0 0 0 0 0 2 5 8 94 56 97 100 80 32 100 69 23 100 98 96 98 9 0 2 20
0 0 0 0 0 0 0 0 0 0 14 67 63 0 0 0 0 0 0 0 0 0 0 0 3 0 2 82 100 98 100 44 5 41 11 91 0 100 98 98 100 100 8 0 25
0 0 0 0 0 0 0 0 0 0 23 97 20 0 0 0 0 0 0 0 0 0 0 0 0 0 0 5 71 100 95 90 3 8 0 2 1 100 99 9 100 100 100 11 0
0 0 0 0 0 0 0 0 0 0 17 78 1 0 0 0 0 0 0 0 0 0 0 0 0 0 0 5 37 82 5 1 5 4 0 0 0 41 100 100 100 100 83 0 0
0 0 0 0 0 0 0 0 0 0 6 33 0 0 0 0 0 0 0 0 0 0 0 0 0 0 0 4 7 100 18 45 7 3 4 0 0 0 0 2 0 1 0 0 0
0 0 0 0 0 0 0 0 0 0 14 13 0 0 0 0 0 0 0 0 0 0 0 0 0 0 0 1 11 75 9 0 5 3 3 0 0 0 0 0 0 0 0 0 0
0 0 0 0 0 0 0 0 0 0 27 4 1 0 0 0 0 0 0 0 0 0 0 0 0 0 0 0 4 0 0 11 5 5 5 0 0 0 0 0 0 1 20 5 0
0 0 0 0 0 0 1 0 0 10 20 0 0 0 0 0 0 0 0 0 0 0 0 0 0 0 0 0 0 2 87 88 48 29 5 0 25 0 0 0 0 1 0 0 0
0 0 0 0 0 5 2 0 0 0 0 0 0 0 0 0 0 0 0 0 0 0 0 0 0 0 0 0 0 46 35 62 99 43 48 1 0 0 0 0 0 0 0 0 0
0 0 0 0 0 0 42 0 0 0 0 0 0 0 0 0 0 0 0 0 0 0 0 0 0 0 0 0 5 71 100 23 50 6 8 21 28 0 86 20 0 1 0 0 0
0 0 0 0 0 0 0 0 0 0 0 0 0 0 0 0 0 0 0 0 0 0 0 0 0 0 0 1 5 6 100 99 35 5 54 20 5 0 82 99 90 5 1 0 0
0 0 0 8 0 0 0 0 0 0 0 0 0 0 0 0 0 0 0 0 0 0 0 0 0 0 0 0 1 5 33 50 91 47 65 7 0 0 11 5 61 18 0 0 0
0 0 0 0 1 0 0 0 0 0 0 0 0 0 0 0 0 0 0 0 0 0 0 0 0 0 0 0 0 0 4 1 5 84 90 13 5 0 37 0 3 54 46 94 56
0 0 16 0 0 0 0 0 0 0 0 0 0 0 0 0 0 0 0 0 0 0 0 0 0 0 0 0 0 0 0 0 4 3 0 0 0 0 0 3 46 46 24 38 13
0 0 45 8 0 0 0 0 0 0 0 0 0 0 0 0 0 0 0 0 0 0 0 0 0 0 0 0 0 0 0 0 0 0 0 2 0 3 6 5 5 4 0 2 2
0 0 0 0 0 0 0 0 0 0 0 0 10 18 0 0 0 0 0 0 0 0 0 0 0 0 0 0 0 0 0 0 0 16 14 18 82 6 89 84 2 0 0 0 0
0 0 0 0 0 0 0 0 0 0 0 1 87 100 23 0 0 0 0 0 0 0 0 0 0 0 0 0 0 0 0 0 46 100 100 100 4 79 5 5 0 0 0 0 0
77 0 0 0 0 0 0 0 0 0 0 31 6 83 100 34 0 0 0 0 0 0 0 0 0 0 0 0 0 2 0 0 7 20 37 94 99 86 6 9 6 5 0 4 0
6 0 0 0 0 0 0 0 0 0 0 42 0 76 70 100 21 0 0 0 0 0 0 0 0 0 2 0 0 2 0 0 0 3 60 22 62 100 100 76 48 64 48 0 0
5 0 0 0 0 0 0 0 0 0 0 4 10 32 93 100 100 17 0 0 0 0 0 0 0 2 31 4 2 5 0 0 5 18 5 57 96 65 61 98 48 5 0 0 0
3 0 0 0 1 15 0 0 0 0 62 100 6 13 99 100 100 34 6 1 0 0 0 0 0 30 100 84 98 55 0 3 8 0 4 4 31 13 20 54 5 4 3 3 0
2 0 0 0 4 48 32 0 0 0 94 99 7 20 100 100 100 99 55 100 39 0 0 0 0 10 3 90 53 95 5 3 0 0 0 0 89 99 53 5 15 61 21 4 0
0 0 0 0 46 44 21 0 0 0 34 99 5 16 99 98 100 96 98 62 78 3 0 4 0 30 5 100 94 98 99 34 26 3 0 1 16 3 13 10 5 82 30 98 50
0 0 0 0 100 100 100 7 0 0 1 6 52 100 30 100 100 100 19 10 35 100 5 0 0 24 78 100 100 99 100 58 100 44 6 19 73 0 67 98 4 46 5 50 98
92 0 0 0 58 100 100 100 5 64 3 4 29 100 100 100 100 76 0 30 96 93 100 91 24 3 34 18 100 54 79 100 100 70 6 72 78 8 3 5 1 0 0 1 0

GFSSW_prec_cloud_012.txt.gz
Cloud_Cover
0 0 0 0 0 0 0 0 0 0 0 22 99 61 1 10 0 0 0 0 0 0 0 2 5 95 42 40 27 89 87 91 80 31 5 5 4 0 0 0 0 0 0 1 0
0 0 0 0 0 0 0 0 0 0 0 15 93 99 0 1 0 0 0 0 0 0 0 4 5 32 5 5 20 54 62 95 28 34 5 3 0 2 17 1 0 0 0 0 0
0 0 0 0 0 0 0 0 0 0 0 12 81 62 0 0 0 0 0 0 0 0 0 0 0 5 9 5 73 63 9 36 5 6 38 0 5 98 96 100 43 71 0 0 0
0 0 0 0 0 0 0 0 0 0 0 11 100 3 0 0 0 0 0 0 0 0 0 0 0 5 82 88 5 88 6 21 6 5 28 4 100 26 26 100 100 100 32 1 0
0 0 0 0 0 0 0 0 0 0 0 1 79 0 0 0 0 0 0 0 0 0 0 0 0 4 11 40 54 1 0 14 5 0 4 5 60 37 73 6 80 92 100 89 17
0 0 0 0 0 0 0 0 0 0 0 0 26 0 0 0 0 0 0 0 0 0 0 0 0 0 1 5 13 50 52 90 1 0 0 0 2 0 20 100 94 59 46 8 1
0 0 0 0 0 0 0 0 0 0 0 3 21 0 0 0 0 0 0 0 0 0 0 0 0 0 0 4 89 23 9 2 0 0 0 0 0 0 0 7 92 7 0 0 0
0 0 0 0 0 0 0 0 0 0 0 22 5 0 0 0 0 0 0 0 0 0 0 0 0 0 0 0 38 77 4 0 0 2 5 0 0 0 0 0 0 0 0 0 0
0 0 0 0 0 0 0 0 0 0 0 4 0 0 0 0 0 0 0 0 0 0 0 0 0 0 0 1 28 76 25 3 0 3 5 0 0 0 0 0 0 0 0 0 0
0 0 0 0 0 0 0 0 0 11 6 1 0 0 0 0 0 0 0 0 0 0 0 0 0 0 0 0 6 6 0 0 1 4 5 5 2 3 0 0 0 0 0 0 0
0 0 0 0 0 0 9 0 0 0 0 0 0 0 0 0 0 0 0 0 0 0 0 0 0 0 0 0 0 4 34 4 5 5 4 5 5 0 0 0 0 0 0 0 0
0 0 0 0 0 0 50 0 0 0 0 0 0 0 0 0 0 0 0 0 0 0 0 0 0 0 0 0 1 50 69 29 93 35 5 4 5 0 0 10 0 2 0 0 0
0 0 0 0 0 0 0 0 0 0 0 0 0 0 0 0 0 0 0 0 0 0 0 0 0 0 0 0 4 72 94 86 42 96 99 11 5 18 0 3 5 41 0 0 0
0 0 0 63 0 0 0 0 0 0 0 0 0 0 0 0 0 0 0 0 0 0 0 0 0 0 0 0 4 90 5 66 6 34 16 2 5 4 2 0 4 2 0 4 5
0 0 25 15 26 0 0 0 0 0 0 0 0 0 0 0 0 0 0 0 0 0 0 0 0 0 0 0 0 3 5 81 95 99 5 0 20 0 0 0 1 1 0 41 7
0 0 51 7 13 2 0 0 0 0 0 0 0 0 0 0 0 0 0 0 0 0 0 0 0 0 0 0 0 0 5 85 100 63 3 0 0 1 0 2 2 4 1 14 1
0 0 42 14 0 0 0 0 0 0 0 0 0 0 0 0 0 0 0 0 0 0 0 0 0 0 0 0 0 0 2 2 0 13 0 2 0 0 0 0 31 4 0 0 0
0 1 0 14 0 0 0 0 0 0 0 0 0 0 0 0 0 0 0 0 0 0 0 0 0 0 0 0 0 0 0 0 0 0 0 0 5 4 98 4 5 3 0 0 0
24 1 0 0 0 0 0 0 0 0 0 0 1 0 0 0 2 0 0 0 0 0 0 0 0 0 0 0 0 0 0 0 0 0 0 77 7 0 5 5 5 0 0 0 0
47 27 0 0 0 0 0 0 0 0 0 88 62 9 0 2 2 5 0 0 0 0 0 0 0 0 0 0 0 0 0 0 0 0 4 0 0 4 41 70 20 1 0 0 0
8 84 5 0 0 0 0 0 0 0 0 100 99 100 93 66 31 5 0 0 0 0 0 0 0 0 0 0 0 0 0 0 0 0 4 1 2 5 23 5 5 29 21 1 0
99 100 5 5 0 0 0 0 0 0 0 79 100 98 100 100 100 53 5 2 0 0 0 0 0 0 0 0 0 0 0 0 0 0 0 4 1 2 8 5 3 92 88 0 0
100 100 43 5 5 0 0 0 0 0 0 47 100 100 100 100 54 96 17 3 2 0 0 0 0 0 0 0 0 0 7 1 0 0 0 0 0 0 0 0 4 5 5 12 0
100 100 97 82 30 3 0 0 0 3 0 0 65 100 100 100 100 100 67 33 3 0 0 0 0 0 0 0 0 2 85 68 3 0 0 0 0 0 0 1 0 0 0 0 0
100 100 100 84 84 11 50 0 0 9 3 0 11 100 100 100 98 8 100 30 5 0 0 0 0 0 0 0 15 5 4 20 15 2 1 0 0 0 0 0 0 0 4 3 3
100 100 100 16 18 100 46 0 2 83 15 5 55 98 100 100 100 64 42 9 79 19 0 11 1 0 0 5 54 94 57 100 92 100 100 31 8 5 0 0 1 0 5 1 5
98 100 100 100 90 77 68 0 28 100 100 39 0 5 71 64 100 62 14 5 100 100 0 0 30 5 4 88 100 93 31 90 100 62 30 100 55 98 5 5 5 2 0 0 1

GFSSW_prec_cloud_015.txt.gz
Cloud_Cover
0 0 0 0 0 0 0 0 0 0 0 0 11 17 100 2 2 0 0 0 0 0 0 0 5 62 5 55 100 88 5 1 5 5 1 3 5 0 0 25 74 100 38 88 21
0 0 0 0 0 0 0 0 0 0 0 0 8 12 62 5 0 0 0 0 0 0 0 1 5 20 7 85 61 31 45 5 5 8 1 0 10 0 0 0 0 0 0 0 0
0 0 0 0 0 0 0 0 0 0 0 0 8 18 6 1 0 0 0 0 0 0 0 5 5 3 5 5 3 3 5 64 60 1 0 1 0 0 2 3 1 1 0 0 0
0 0 0 0 0 0 0 0 0 0 0 0 8 11 0 0 0 0 0 0 0 0 0 0 5 1 6 5 4 64 5 0 3 0 0 1 1 0 0 3 5 5 3 5 6
0 0 0 0 0 0 0 0 0 0 0 0 3 28 0 0 0 0 0 0 0 0 0 0 0 5 89 19 3 6 5 0 2 3 0 4 5 0 0 0 6 44 7 9 2
0 0 0 0 0 0 0 0 0 0 0 0 14 11 0 0 0 0 0 0 0 0 0 0 2 5 21 3 5 5 2 1 0 0 0 0 1 0 0 5 2 4 6 1 1
0 0 0 0 0 0 0 0 0 0 0 0 53 3 0 0 0 0 0 0 0 0 0 0 0 3 5 16 5 5 0 0 3 5 12 3 0 0 0 0 0 0 0 0 0
0 0 0 0 0 0 0 0 0 0 0 0 34 0 0 0 0 0 0 0 0 0 0 0 0 0 0 0 2 5 1 0 3 10 84 4 0 0 0 0 0 0 0 0 0
3 0 0 0 0 0 0 0 0 0 0 31 4 0 0 0 0 0 0 0 0 0 0 0 0 0 3 0 0 4 0 0 20 97 15 4 0 0 0 0 0 0 0 0 0
2 0 0 0 0 0 3 0 0 0 1 0 0 0 0 0 0 0 0 0 0 0 0 0 0 0 1 3 0 1 1 0 0 4 5 5 4 0 0 0 0 0 0 0 0
0 0 0 0 0 0 27 0 0 0 0 0 0 0 0 0 0 0 0 0 0 0 0 0 0 0 0 0 0 0 2 3 5 5 4 5 11 0 0 0 0 0 0 0 0
0 0 0 0 13 0 2 0 0 0 0 0 0 0 0 0 0 0 0 0 0 0 0 0 0 0 0 0 0 0 4 7 92 9 60 100 11 51 5 0 0 0 0 0 0
1 0 8 7 0 0 0 0 0 0 0 0 0 0 0 0 0 0 0 0 0 0 0 0 0 0 0 0 0 5 0 8 5 39 99 99 15 5 9 2 3 2 2 0 0
0 0 14 98 0 0 0 0 0 0 0 0 0 0 0 0 0 0 0 0 0 0 0 0 0 0 0 0 0 0 3 5 28 5 1 0 0 5 14 3 0 5 0 5 0
4 0 86 100 53 4 0 0 0 0 0 0 0 0 0 0 0 0 0 0 0 0 0 0 0 0 0 0 0 0 12 53 58 5 3 0 0 0 0 0 0 0 3 5 0
62 9 100 12 65 9 0 0 0 0 0 0 0 0 0 0 0 0 0 0 0 0 0 0 0 0 0 0 1 4 98 100 14 4 0 0 0 0 0 0 0 0 2 1 4
99 25 94 28 0 0 0 0 0 0 0 0 0 0 0 0 0 0 0 0 0 0 0 0 0 0 0 0 1 0 100 31 4 0 0 0 0 0 0 0 0 0 0 0 2
100 100 55 6 0 0 0 0 0 0 0 0 0 0 0 0 0 0 0 0 0 0 0 0 0 0 0 0 0 0 72 7 4 0 0 0 0 0 0 5 5 4 0 0 0
69 98 94 5 0 0 0 0 0 0 0 0 0 0 0 0 0 0 0 0 0 0 0 0 0 0 0 0 0 0 4 0 0 0 0 0 0 0 4 28 5 0 0 0 0
100 95 13 6 8 7 1 0 0 0 0 0 0 0 0 0 0 0 0 0 0 0 0 0 0 0 0 0 0 0 0 0 0 0 0 0 0 0 0 85 0 0 0 0 0
95 92 3 5 6 4 3 91 4 0 0 0 0 0 4 5 1 4 0 0 0 0 0 0 0 0 0 0 0 0 0 0 0 0 0 0 0 0 1 0 0 3 4 0 0
91 30 97 9 5 24 25 29 100 3 0 0 0 0 1 76 46 58 0 0 0 0 0 0 0 0 0 0 0 0 0 0 0 0 0 0 0 0 0 0 0 0 1 0 5
100 60 80 100 100 100 100 83 31 100 1 0 0 0 100 52 34 5 31 2 5 0 0 0 0 0 0 0 0 0 0 0 0 0 0 0 0 0 0 0 0 0 0 0 0
100 100 100 100 100 100 100 100 100 100 2 0 0 0 90 22 4 0 5 0 2 0 0 0 0 0 0 0 0 0 0 0 0 0 0 0 0 0 0 0 0 0 0 0 4
99 100 100 100 100 87 100 100 100 100 89 0 0 0 1 5 12 56 4 0 1 0 0 0 0 0 0 0 0 0 0 0 0 0 0 0 0 0 0 0 0 0 0 0 0
100 89 100 100 100 99 100 100 100 100 100 5 0 0 0 14 0 5 100 0 5 13 0 0 0 0 0 0 0 0 0 5 6 5 42 0 0 0 1 0 0 0 0 0 0
100 100 100 100 95 100 100 100 100 100 100 5 4 0 0 0 32 69 100 92 6 23 0 5 0 0 0 0 0 16 0 95 21 82 94 65 2 0 0 0 0 0 0 0 0

GFSSW_prec_cloud_021.txt.gz
Cloud_Cover
6 2 0 0 0 0 0 0 0 0 0 0 0 0 0 4 11 0 0 0 0 0 0 0 0 3 0 5 5 5 5 5 5 5 5 3 0 0 0 0 3 2 0 0 0
1 2 0 0 0 0 0 0 0 0 0 0 0 0 0 11 0 0 0 0 0 0 0 0 0 3 2 4 16 5 5 3 1 5 4 13 0 0 0 0 0 0 0 0 0
0 0 5 0 0 0 0 0 0 0 0 0 0 0 0 3 0 0 0 0 0 0 0 0 0 0 0 5 55 5 4 0 4 0 0 0 0 0 0 0 0 0 0 0 0
0 0 0 0 0 0 0 0 0 0 0 0 0 0 0 0 0 0 0 0 0 0 0 0 0 0 1 5 5 5 4 1 0 0 0 0 0 0 1 5 31 6 42 1 5
0 0 0 0 0 0 0 0 0 0 0 0 0 6 1 0 0 0 0 0 0 0 0 0 0 0 1 4 5 5 2 0 0 0 0 1 2 2 4 4 5 24 11 4 0
0 0 0 0 0 0 0 0 0 2 0 5 21 16 0 0 0 0 0 0 0 0 0 0 0 4 5 5 5 5 0 0 0 0 0 0 1 1 0 1 0 2 0 3 3
6 4 0 0 0 0 0 0 1 0 2 60 70 4 0 0 0 0 0 0 0 0 0 0 1 3 5 5 5 3 0 0 0 0 0 0 0 0 0 0 0 0 0 0 0
0 0 0 0 2 0 0 37 1 2 27 1 18 1 0 0 0 0 0 0 0 0 0 0 0 0 4 0 4 0 0 0 0 0 0 0 0 0 0 0 0 0 0 0 0
0 0 0 0 4 21 1 0 0 36 1 21 5 0 0 0 0 0 0 0 0 0 0 0 0 0 0 0 0 0 0 0 0 0 0 0 0 0 0 0 0 0 0 0 0
0 0 0 0 3 0 3 0 0 17 4 0 0 0 0 0 0 0 0 0 0 0 0 0 0 0 0 0 0 0 0 0 0 0 0 0 0 0 0 0 0 0 0 0 0
0 0 0 34 6 0 0 0 0 0 0 0 0 0 0 0 0 0 0 0 0 0 0 0 0 0 0 0 0 0 0 0 5 5 5 0 0 0 0 0 0 0 0 0 0
0 0 0 0 0 0 0 0 0 0 0 0 0 0 0 0 0 0 0 0 0 0 0 0 0 0 0 0 0 0 0 0 3 2 5 5 2 0 0 0 0 0 0 0 0
5 4 0 45 0 0 0 0 0 0 0 0 0 0 0 0 0 0 0 0 0 0 0 0 0 0 0 0 0 0 0 0 0 5 5 5 1 0 1 0 0 0 0 0 0
99 100 88 87 1 0 0 0 0 0 0 0 0 0 0 1 0 0 0 0 0 0 0 0 0 0 0 0 0 0 0 0 0 0 0 3 1 4 2 0 0 0 0 0 0
94 98 100 100 5 2 2 0 0 0 0 0 0 0 0 0 0 0 0 0 0 0 0 0 0 0 0 0 0 0 0 0 2 1 0 0 0 4 0 0 0 0 5 2 0
100 40 100 100 100 12 5 5 0 0 0 0 0 0 0 0 0 0 0 0 0 0 0 0 0 0 0 0 0 0 0 0 0 4 3 0 0 0 0 0 4 0 0 5 4
31 99 77 91 100 100 100 100 5 0 2 0 0 0 0 0 0 0 0 0 0 0 0 0 0 0 0 2 2 0 3 1 0 5 0 0 0 0 0 0 2 0 0 5 5
10 54 100 100 100 20 6 100 82 51 29 0 0 0 0 0 0 0 0 0 0 0 0 0 0 0 0 0 0 0 0 5 2 0 0 0 0 0 0 0 0 0 0 0 0
100 100 100 100 100 69 25 8 100 100 98 1 0 0 0 0 0 0 0 0 0 0 0 0 0 0 0 0 0 0 1 0 5 5 0 0 0 0 0 0 0 0 0 0 0
100 100 100 100 100 100 53 12 100 100 86 5 0 0 0 0 0 0 0 0 0 0 0 0 0 0 0 0 0 0 1 2 1 3 5 4 0 0 0 0 0 0 0 0 0
100 100 100 16 88 51 41 8 98 100 89 10 4 0 0 0 0 0 0 0 0 0 0 0 0 0 0 0 0 0 0 5 1 0 0 4 0 0 0 0 0 0 0 0 0
100 100 100 100 79 100 99 52 100 99 82 84 5 5 0 0 0 0 0 0 0 0 0 0 0 0 0 0 0 0 0 0 0 0 0 0 0 0 0 0 0 0 0 0 0
95 100 24 16 12 7 98 21 100 100 100 97 37 15 5 1 0 0 0 0 0 0 0 0 0 0 0 0 0 0 0 0 3 1 0 0 3 0 0 0 0 0 0 0 0
48 30 5 11 83 91 34 96 71 93 94 50 77 40 35 6 0 0 0 0 0 0 0 0 0 0 0 0 0 0 0 0 0 1 0 0 4 0 0 0 0 0 0 0 0
80 62 100 20 40 83 96 93 100 89 99 100 99 88 100 37 2 0 0 0 0 0 0 0 0 0 0 0 0 0 0 0 0 0 0 2 0 1 0 0 0 0 0 5 4
100 100 100 100 100 100 95 100 100 100 100 100 100 100 100 29 6 0 1 0 0 18 0 0 0 0 0 0 0 0 0 0 0 0 0 0 0 0 0 0 0 0 0 13 54
86 100 100 100 100 100 100 100 100 99 100 100 100 100 100 100 100 5 5 1 1 20 33 0 0 0 0 0 0 0 0 0 0 0 0 0 0 0 0 0 0 0 0 0 0

GFSSW_prec_cloud_024.txt.gz
Cloud_Cover
0 2 2 0 0 0 0 0 0 0 0 0 0 0 0 0 0 0 0 0 0 0 0 0 0 5 5 5 5 5 55 90 28 6 4 0 0 0 0 0 0 0 1 0 0
1 0 3 0 0 0 0 0 0 0 0 0 0 0 0 2 0 0 0 0 0 0 0 0 0 2 5 5 61 5 82 95 9 5 5 3 0 0 0 0 0 0 0 0 0
10 0 1 0 0 0 0 0 0 0 0 0 0 0 0 0 0 0 0 0 0 0 0 0 0 0 5 5 33 5 83 5 4 5 4 2 0 0 0 0 0 0 0 0 0
0 0 0 0 0 0 0 0 0 0 0 0 0 0 0 0 0 0 0 0 0 0 0 0 0 0 0 5 5 5 1 2 0 0 0 0 0 0 0 0 0 0 0 0 0
2 1 0 0 0 0 0 0 0 0 0 0 13 10 0 0 0 0 0 0 0 0 0 0 0 0 0 5 5 5 0 0 0 0 0 0 5 0 0 0 1 4 15 1 0
0 0 0 0 0 0 0 0 0 0 0 5 31 10 0 0 0 0 0 0 0 0 0 0 0 0 3 5 5 4 0 0 0 0 0 0 0 0 0 0 0 0 0 0 0
0 0 0 0 0 0 0 0 1 2 8 14 100 1 0 0 0 0 0 0 0 0 0 0 0 0 0 5 0 3 1 0 0 0 0 0 0 0 0 0 0 0 0 0 0
0 0 0 0 0 0 0 0 0 0 6 9 77 0 0 0 0 0 0 0 0 0 0 0 0 0 1 2 4 5 4 3 0 0 0 0 2 0 0 0 0 0 0 0 0
0 0 0 0 0 0 0 0 0 14 0 0 0 0 0 0 0 0 0 0 0 0 0 0 0 0 5 0 5 5 34 10 0 0 0 0 65 0 0 0 0 0 0 0 0
0 0 0 0 0 0 1 0 0 25 0 0 0 0 0 0 0 0 0 0 0 0 0 0 0 0 0 1 4 5 6 26 0 0 0 0 17 0 0 0 0 0 0 0 0
0 0 0 0 0 0 0 0 0 0 0 0 0 0 0 0 0 0 0 0 0 0 0 0 0 0 0 0 4 98 2 5 5 0 5 0 0 0 0 0 0 0 0 0 0
5 2 0 2 0 2 3 0 0 0 0 0 0 0 0 0 0 0 0 0 0 0 0 0 0 0 0 0 0 3 5 5 8 5 4 4 0 0 0 0 0 0 0 0 0
0 2 1 2 3 0 5 4 0 0 0 0 0 0 0 0 0 0 0 0 0 0 0 0 0 0 0 0 0 0 2 5 71 5 5 5 0 0 0 0 0 0 0 0 0
1 0 0 0 0 0 0 0 5 2 1 0 0 0 0 0 0 0 0 0 0 0 0 0 0 0 0 0 0 0 0 4 77 7 5 0 5 5 1 0 0 0 0 0 0
0 2 4 0 4 5 1 2 0 5 46 73 5 0 0 0 0 0 0 0 0 0 0 0 0 0 0 0 0 0 0 0 37 40 90 66 4 5 2 0 0 0 0 0 0
2 4 5 5 5 5 9 5 5 2 0 5 99 16 0 0 0 0 0 0 0 0 0 0 0 0 0 0 0 0 2 0 5 92 91 81 46 5 4 0 0 0 0 0 0
0 5 0 0 5 5 5 5 5 0 39 1 10 8 2 0 0 0 0 0 0 0 0 2 0 0 0 0 0 0 0 2 5 46 53 95 35 2 6 4 4 2 0 0 0
82 5 5 41 5 12 4 5 5 100 100 0 5 5 6 4 0 0 0 0 0 0 0 0 0 0 0 0 0 0 0 1 5 66 76 22 16 0 0 0 3 5 0 0 0
97 78 26 5 20 9 9 6 10 99 100 92 4 0 5 3 2 0 0 0 0 0 0 0 0 0 0 0 0 0 0 0 51 79 90 14 6 0 1 4 0 0 0 0 0
100 85 55 45 20 67 10 5 7 38 98 72 4 1 4 5 5 0 0 0 0 0 0 0 0 0 0 0 0 0 0 0 2 75 100 5 11 0 0 0 0 0 0 0 0
48 47 7 5 5 6 6 40 15 41 56 34 5 0 3 39 8 0 0 0 0 0 0 0 0 0 0 0 0 0 0 0 4 5 38 8 0 0 0 0 0 0 0 3 4
50 55 94 92 83 5 4 5 5 5 92 2 5 5 2 5 8 5 1 0 0 0 0 0 1 0 0 0 0 0 0 0 0 2 5 13 4 5 1 0 0 0 0 0 0
8 14 60 80 88 10 100 5 5 5 5 5 5 5 5 5 7 5 5 0 0 0 0 0 0 3 0 0 0 0 0 0 4 0 0 3 1 3 0 0 0 0 0 0 0
7 17 25 98 75 50 60 22 62 31 4 6 8 5 5 5 6 54 2 4 0 0 0 0 0 0 0 0 0 0 0 0 0 4 3 5 95 6 2 0 0 0 0 0 0
100 100 100 98 100 100 100 96 91 85 55 63 59 5 32 20 49 5 27 59 3 0 0 0 0 1 0 1 4 0 0 0 0 0 1 2 4 100 85 9 0 0 0 0 0
100 100 100 100 100 100 100 100 100 100 100 100 100 100 99 46 64 100 99 92 5 2 0 0 0 0 0 0 0 4 1 0 0 0 0 0 0 5 99 100 51 0 0 0 0
100 100 100 100 100 100 100 100 100 100 100 100 100 32 52 100 87 43 11 27 7 0 0 0 0 0 0 2 1 5 1 1 0 0 0 0 0 5 5 5 21 5 0 0 0

GFSSW_prec_cloud_027.txt.gz
Cloud_Cover
0 0 0 0 0 0 0 0 0 0 0 0 0 0 0 0 0 0 0 0 0 0 0 0 2 5 5 5 1 5 99 100 76 100 6 4 5 5 2 0 0 41 1 1 0
6 2 1 0 0 0 0 0 0 0 0 0 0 0 0 1 0 0 0 0 0 0 0 0 0 0 2 3 0 8 100 95 100 50 5 5 5 5 1 0 0 0 0 0 0
3 0 2 0 0 0 0 0 0 0 0 0 0 0 0 0 0 0 0 0 0 0 0 0 0 0 5 5 3 5 98 81 10 62 12 5 4 2 4 2 0 0 0 0 0
0 0 0 0 0 0 0 0 0 0 0 0 0 0 0 0 0 0 0 0 0 0 0 0 0 0 5 5 75 23 93 34 68 4 82 29 5 5 2 5 0 0 0 0 0
1 0 0 0 0 0 0 0 0 0 0 0 0 0 0 0 0 0 0 0 0 0 0 0 0 0 5 1 53 77 94 4 6 5 90 84 8 3 5 2 0 0 0 0 0
0 0 0 0 0 0 0 0 0 0 0 2 10 12 0 0 0 0 0 0 0 0 0 0 0 0 0 1 69 96 55 47 2 5 25 39 16 5 3 0 0 0 0 0 0
0 0 0 0 0 0 0 0 0 0 0 28 21 1 0 0 0 0 0 0 0 0 0 0 0 0 0 3 20 95 68 1 0 5 5 28 10 0 2 0 0 0 0 0 0
0 0 0 0 0 0 0 0 0 0 10 26 31 0 0 0 0 0 0 0 0 0 0 0 0 0 0 0 17 10 5 88 5 5 4 0 21 0 0 0 0 0 0 0 0
0 0 0 0 0 0 0 0 0 0 0 0 7 0 0 0 0 0 0 0 0 0 0 0 0 0 0 0 4 5 34 83 100 3 3 9 100 9 0 0 0 0 0 0 0
0 0 0 0 0 0 0 0 0 31 18 0 0 0 0 0 0 0 0 0 0 0 0 0 0 0 0 0 2 40 11 98 19 5 5 2 71 1 0 2 0 0 0 0 0
0 0 0 0 0 0 0 0 0 0 0 0 0 0 0 0 0 0 0 0 0 0 0 0 0 0 0 0 1 69 94 100 100 9 2 5 39 0 2 2 5 3 0 0 0
0 0 0 0 0 0 2 0 0 0 0 0 0 0 0 0 0 0 0 0 0 0 0 0 0 0 0 0 0 5 100 99 100 72 17 73 94 88 24 0 3 5 0 0 0
0 0 0 0 0 0 0 0 0 0 0 0 0 0 0 0 0 0 0 0 0 0 0 0 0 0 0 0 0 0 21 98 98 91 3 81 99 92 67 5 0 0 0 0 0
0 0 0 0 0 0 0 0 0 0 0 0 0 0 0 0 0 0 0 0 0 0 0 0 0 0 0 0 0 0 4 77 100 70 100 4 100 24 4 5 0 0 0 0 0
0 0 0 0 0 0 0 0 0 0 0 0 3 2 0 0 0 0 0 0 0 0 0 0 0 0 0 0 0 0 5 5 81 68 100 87 76 98 99 28 2 0 0 0 0
2 3 3 0 0 0 0 0 0 0 0 0 0 0 0 0 0 0 0 0 0 0 0 0 0 0 0 0 0 0 5 86 97 100 85 100 44 21 100 99 4 26 0 0 0
61 30 5 5 5 4 1 0 0 0 0 0 4 3 0 0 0 0 0 0 0 0 0 0 0 0 1 0 0 0 4 36 100 100 79 100 73 100 63 22 59 5 30 0 0
6 5 5 5 0 1 0 2 0 4 0 0 0 4 0 0 0 0 0 0 0 0 0 0 0 0 1 5 0 0 0 5 28 93 99 100 100 72 100 49 100 100 100 90 7
26 5 34 38 20 5 4 0 2 99 14 0 0 0 5 4 0 0 0 0 0 0 0 0 0 0 0 4 1 0 0 0 41 83 96 99 47 98 100 87 8 55 25 47 9
100 58 49 81 43 5 3 14 8 30 15 5 0 2 5 5 0 1 0 0 0 0 0 0 0 0 2 0 2 0 0 0 0 12 96 85 94 98 79 0 57 5 5 8 5
32 7 5 6 6 6 5 74 5 5 5 5 5 0 0 4 5 5 4 0 0 0 0 0 0 0 0 0 4 4 0 0 0 5 35 100 99 100 97 52 0 3 0 5 6
14 95 10 7 0 1 2 8 5 2 0 0 0 5 1 0 0 5 2 5 0 0 0 0 0 0 0 0 0 0 0 0 0 1 5 82 100 100 43 85 8 5 77 99 84
5 5 0 0 2 0 4 4 5 6 4 1 0 1 5 1 1 3 2 2 2 0 0 0 0 0 0 0 0 0 2 1 0 1 0 26 3 100 97 70 23 4 0 1 61
29 4 76 63 21 16 17 36 99 100 70 8 2 3 3 0 5 0 0 4 3 5 0 0 0 0 0 0 0 0 0 0 0 0 8 2 80 94 74 54 34 25 0 3 5
74 21 100 71 100 100 100 100 100 97 95 100 100 74 44 42 31 20 5 5 4 0 5 0 0 0 0 2 4 0 0 0 0 0 2 12 12 7 100 29 90 3 0 0 0
98 98 88 64 87 100 100 100 100 100 100 100 100 100 100 99 90 100 100 93 5 4 5 2 0 0 5 4 5 5 5 0 0 0 0 0 26 73 84 100 78 5 0 0 0
81 46 99 5 96 100 100 100 100 100 100 100 100 100 100 100 100 86 86 100 10 57 3 3 0 0 0 5 18 33 3 2 8 0 0 0 0 8 67 5 5 5 5 0 0

GFSSW_prec_cloud_030.txt.gz
Cloud_Cover
6 3 0 0 0 0 0 0 0 0 0 0 0 0 0 0 0 0 0 0 0 0 0 0 0 0 0 0 30 100 92 88 87 73 79 86 7 45 100 36 96 59 72 22 7
2 0 0 0 0 0 0 0 0 0 0 0 0 0 0 0 0 0 0 0 0 0 0 0 0 0 0 0 17 81 100 98 100 97 0 4 4 0 2 0 73 64 60 2 33
0 0 0 0 0 0 0 0 0 0 0 0 0 0 0 1 0 0 0 0 0 0 0 0 0 0 0 0 26 100 100 100 100 100 0 1 5 4 10 4 6 34 0 0 8
0 0 0 0 0 0 0 0 0 0 0 0 0 0 0 0 0 0 0 0 0 0 0 0 0 0 0 0 80 95 100 100 100 2 8 11 1 5 11 54 4 0 0 0 0
0 0 0 0 0 0 0 0 0 0 0 0 0 18 0 0 0 0 0 0 0 0 0 0 0 0 0 1 20 100 98 44 45 0 54 22 2 0 63 65 2 0 0 0 0
0 0 0 0 0 0 0 0 0 0 0 0 4 31 0 0 0 0 0 0 0 0 0 0 0 0 0 0 1 100 98 100 53 43 95 63 43 0 2 8 2 0 0 0 0
0 0 0 0 0 0 0 0 0 0 0 0 89 1 0 0 0 0 0 0 0 0 0 0 0 0 0 0 0 35 96 12 1 18 90 36 83 0 4 2 0 0 0 0 0
0 0 0 0 0 0 0 0 0 0 0 28 60 0 0 0 0 0 0 0 0 0 0 0 0 0 0 0 0 0 34 90 65 36 57 56 100 98 71 1 2 0 0 0 0
0 0 0 0 0 0 0 0 0 0 0 2 7 0 0 0 0 0 0 0 0 0 0 0 0 0 0 0 0 0 8 30 95 99 72 100 100 100 90 2 1 0 0 0 0
0 0 0 0 0 0 0 0 0 0 16 0 0 0 0 0 0 0 0 0 0 0 0 0 0 0 0 0 0 0 1 58 10 85 99 100 100 100 6 5 4 2 0 0 0
0 0 0 0 0 0 0 0 0 0 0 0 0 0 0 0 0 0 0 0 0 0 0 0 0 0 0 0 0 0 4 5 100 100 69 63 100 100 3 5 5 3 0 0 0
0 0 0 0 0 0 0 0 0 0 0 0 0 0 0 0 0 0 0 0 0 0 0 0 0 0 0 0 0 0 84 61 100 98 100 74 5 1 63 0 0 1 0 0 0
0 0 0 0 0 0 0 0 0 0 0 0 0 0 0 0 0 0 0 0 0 0 0 0 0 0 0 0 0 0 4 26 100 87 6 93 72 64 79 3 0 1 0 0 0
0 0 0 0 0 0 0 0 0 0 0 0 0 0 0 0 0 0 0 0 0 0 0 0 0 0 0 0 0 0 0 38 99 100 11 14 98 5 48 1 0 0 0 0 0
0 0 0 0 0 0 1 0 0 0 0 0 0 0 0 0 0 0 0 0 0 0 0 0 0 0 0 0 0 0 0 13 89 99 98 35 86 78 85 100 48 0 0 0 0
0 0 4 0 5 0 5 5 0 0 0 0 0 0 0 0 0 0 0 0 0 0 0 0 0 0 0 5 0 0 0 0 42 95 85 67 82 8 39 61 100 74 0 0 0
0 5 5 22 57 98 16 2 0 0 4 1 0 0 0 0 0 0 0 0 0 0 0 0 0 0 0 1 1 0 0 0 0 5 56 97 80 41 100 90 100 96 83 4 0
0 0 0 5 1 2 44 5 2 16 89 5 2 0 0 0 0 0 0 0 0 0 0 0 0 0 0 2 5 1 0 0 0 0 4 1 88 9 27 4 100 100 100 96 45
0 0 4 8 64 61 5 0 2 4 88 21 4 0 0 0 0 0 0 0 0 0 0 0 0 0 0 0 5 31 0 0 0 4 5 63 73 0 63 39 100 43 86 33 74
0 0 4 5 5 5 6 74 42 5 5 0 0 0 0 0 0 0 0 0 0 0 0 0 0 0 0 0 0 42 98 0 0 1 0 2 16 65 71 73 100 91 87 63 26
0 2 1 0 0 2 4 13 5 37 28 5 2 0 0 0 0 0 0 0 0 0 0 0 0 0 0 0 0 0 5 3 0 0 0 0 1 0 48 68 30 5 69 96 59
5 4 4 45 19 30 3 0 0 0 1 0 0 0 0 0 1 5 1 0 0 0 0 0 0 0 0 0 0 0 0 5 0 0 0 0 0 32 100 19 25 96 88 80 1
10 4 0 40 46 7 14 2 4 5 5 6 4 0 0 0 0 0 4 45 38 2 0 0 0 0 0 0 0 0 0 0 3 2 0 0 1 33 100 98 80 100 30 0 0
70 10 0 82 63 95 98 45 72 26 45 85 97 98 17 3 5 0 0 1 95 98 56 4 0 0 0 0 0 0 0 0 0 0 0 0 17 5 100 18 99 93 98 100 3
59 17 87 62 90 100 100 71 30 5 98 100 100 100 100 32 5 4 4 4 14 99 55 4 0 0 0 0 4 0 2 0 0 0 0 0 0 5 84 98 79 99 13 60 3
97 71 76 57 81 66 100 100 100 100 100 100 99 100 100 78 82 5 71 88 100 64 100 71 0 0 0 0 0 54 5 0 0 0 0 0 0 5 6 58 100 100 90 58 5
69 46 100 27 66 99 59 100 91 100 91 99 100 100 100 100 56 0 5 10 5 98 100 9 0 0 0 0 18 29 0 11 5 0 0 0 0 0 95 38 99 100 97 97 98

GFSSW_prec_cloud_033.txt.gz
Cloud_Cover
0 0 0 0 0 0 0 0 0 0 0 0 0 0 0 0 0 0 0 0 0 0 0 0 0 0 3 100 55 100 100 100 100 100 100 56 93 17 66 2 0 21 0 0 0
0 0 0 0 0 0 0 0 0 0 0 0 0 0 0 0 0 0 0 0 0 0 0 0 0 0 30 66 65 86 100 100 100 100 97 27 3 21 25 20 48 0 0 0 0
0 0 0 0 0 0 0 0 0 0 0 0 0 0 0 0 0 0 0 0 0 0 0 0 0 0 0 3 8 100 100 100 100 100 74 54 0 5 0 0 0 0 0 0 0
0 0 0 0 0 0 0 0 0 0 0 0 0 0 0 0 0 0 0 0 0 0 0 0 0 0 0 12 25 100 98 100 100 92 72 38 0 0 3 3 0 0 0 0 0
0 0 0 0 0 0 0 0 0 0 0 0 0 8 0 0 0 0 0 0 0 0 0 0 0 0 0 5 5 12 74 97 63 5 100 79 5 0 2 34 3 0 0 0 0
0 0 0 0 0 0 0 0 0 0 0 0 6 84 2 0 0 0 0 0 0 0 0 0 0 0 0 4 4 80 14 92 5 46 0 99 26 5 5 0 0 0 0 0 44
0 0 0 0 0 0 0 0 0 0 0 0 32 26 0 0 0 0 0 0 0 0 0 0 0 0 0 0 1 7 11 100 77 66 70 100 75 8 5 0 0 0 0 1 0
0 0 0 0 0 0 0 0 0 0 0 0 74 2 0 0 0 0 0 0 0 0 0 0 0 0 0 0 0 1 4 14 98 99 78 2 12 10 100 95 2 0 4 0 0
0 0 0 0 0 0 0 0 0 0 0 8 16 0 0 0 0 0 0 0 0 0 0 0 0 0 0 0 0 0 0 4 89 79 100 70 7 5 76 99 3 0 0 0 0
0 0 0 0 0 0 0 0 0 0 0 0 0 0 0 0 0 0 0 0 0 0 0 0 0 0 0 0 0 0 0 0 99 29 99 20 97 100 99 20 0 0 0 0 0
0 0 0 0 0 0 0 0 0 0 0 0 0 0 0 0 0 0 0 0 0 0 0 0 0 0 0 0 0 0 0 0 99 100 6 100 100 100 0 0 0 0 0 0 0
0 0 0 0 0 0 0 0 0 0 0 0 0 0 0 0 0 0 0 0 0 0 0 0 0 0 0 0 0 0 0 0 99 62 100 67 100 98 8 0 0 0 0 0 0
0 0 0 0 0 0 0 0 0 0 0 0 0 0 0 0 0 0 0 0 0 0 0 0 0 0 0 0 0 0 0 0 67 74 100 88 77 4 1 0 0 0 0 0 0
0 0 0 0 0 0 0 0 0 0 0 5 0 0 0 0 0 0 0 0 0 0 0 0 0 0 0 0 0 0 0 0 21 45 29 98 4 5 5 0 0 0 0 0 0
0 0 0 0 0 0 0 0 0 0 0 2 0 0 0 0 0 0 0 0 0 0 0 0 0 0 0 5 0 0 0 0 56 100 44 100 98 100 5 4 5 4 2 0 0
0 0 0 0 0 0 0 0 0 0 0 0 0 42 2 0 0 0 0 0 0 0 0 0 0 0 0 1 1 0 0 0 5 100 84 90 99 48 26 2 96 30 5 4 0
0 0 0 0 0 0 0 0 0 0 12 21 1 0 5 4 0 0 0 0 0 0 0 0 0 0 0 0 3 4 0 0 2 16 5 8 61 2 78 42 5 34 77 3 0
0 0 0 0 0 0 0 0 0 2 5 28 0 0 0 0 4 0 0 0 0 0 0 0 0 0 0 0 0 5 0 0 0 0 0 2 3 0 3 100 88 9 75 96 95
0 0 0 0 0 0 0 0 0 0 0 0 0 0 0 0 2 0 0 0 0 0 0 0 0 0 0 0 0 0 5 1 0 0 0 0 0 0 0 5 3 90 100 100 100
0 0 0 0 0 0 0 0 0 0 2 0 0 0 0 0 0 1 0 0 0 0 0 0 0 0 0 0 0 0 1 0 0 0 0 0 0 0 51 32 8 24 100 90 100
0 4 0 0 0 2 0 0 0 0 0 2 0 3 4 0 0 0 0 0 0 0 0 0 0 0 0 0 0 0 0 0 0 0 0 3 0 0 98 57 78 2 63 81 100
5 15 0 0 11 81 10 5 1 1 0 0 2 0 0 0 0 0 0 0 0 0 0 0 0 0 0 0 0 0 0 0 0 0 0 0 4 0 79 63 2 42 100 99 38
22 4 0 5 6 7 66 5 5 11 62 7 3 5 1 0 0 0 0 0 0 1 0 0 0 0 0 0 0 0 0 0 0 0 0 0 28 100 1 1 4 54 99 29 9
27 34 0 0 97 86 66 7 14 100 100 100 2 16 55 3 2 0 0 0 0 0 1 85 0 0 2 0 0 0 0 0 0 0 0 0 0 42 33 41 100 84 78 95 100
84 47 73 52 78 90 100 100 97 22 1 98 12 77 100 37 5 0 1 0 0 0 4 15 0 0 0 4 0 5 0 0 0 0 0 0 0 0 5 64 100 74 100 88 88
90 87 7 6 5 30 98 100 100 6 98 5 45 100 100 97 100 36 10 0 0 0 0 10 0 0 0 2 5 4 0 0 0 0 0 0 0 0 0 64 100 99 5 15 63
100 93 100 37 5 5 5 93 98 99 100 100 99 44 100 100 53 90 17 32 0 5 69 37 4 13 0 5 31 1 1 0 0 0 0 0 0 0 0 0 16 97 100 29 100

GFSSW_prec_cloud_036.txt.gz
Cloud_Cover
0 0 0 0 0 0 0 0 0 0 0 0 0 0 0 0 4 0 0 0 0 0 0 0 5 16 4 5 99 100 100 100 100 100 100 100 100 48 49 5 4 0 0 0 0
0 0 0 0 0 0 0 0 0 0 0 0 0 0 1 4 15 0 0 0 0 0 0 0 2 2 0 0 88 100 100 100 99 100 91 100 100 100 2 4 5 2 0 0 0
0 0 0 0 0 0 0 0 0 0 0 0 0 0 0 10 1 0 0 0 0 0 0 0 0 0 0 0 74 100 100 100 98 87 100 98 100 100 12 0 0 0 0 0 0
0 0 0 0 0 0 0 0 0 0 0 0 0 1 0 32 0 0 0 0 0 0 0 0 0 0 0 0 4 81 81 69 84 100 78 92 96 72 27 0 0 0 0 0 0
0 0 0 0 0 0 0 0 0 0 0 0 0 15 3 0 0 0 0 0 0 0 0 0 0 0 0 0 30 5 80 41 15 10 22 26 37 10 2 0 0 0 0 0 0
0 0 0 0 0 0 0 0 0 0 0 0 0 61 20 0 0 0 0 0 0 0 0 0 0 0 0 0 69 1 41 58 100 100 89 7 50 5 1 1 0 0 0 0 0
0 0 0 0 0 0 0 0 0 0 0 0 2 23 0 0 0 0 0 0 0 0 0 0 0 0 0 0 4 0 4 5 100 100 70 75 3 3 3 0 0 0 0 0 0
0 0 0 0 0 0 0 0 0 0 0 0 19 19 0 0 0 0 0 0 0 0 0 0 0 0 0 0 0 0 0 3 5 56 51 93 14 5 1 2 0 0 0 0 3
0 0 0 0 0 0 0 0 0 0 0 14 27 6 0 0 0 0 0 0 0 0 0 0 0 0 0 0 0 0 0 0 26 32 60 64 47 5 5 70 100 10 0 0 0
7 5 5 0 0 0 0 0 0 0 0 1 0 0 0 0 0 0 0 0 0 0 0 0 0 0 0 0 0 0 0 2 59 2 25 14 10 2 100 99 41 0 0 0 0
4 4 0 0 0 0 0 23 0 0 0 0 0 0 0 0 0 0 0 0 0 0 0 0 0 0 0 0 0 0 0 3 5 60 4 51 6 5 5 4 0 0 0 0 0
3 0 0 0 0 0 0 0 0 0 0 0 0 0 0 0 0 0 0 0 0 0 0 0 0 0 0 0 0 0 0 1 0 0 8 92 49 100 5 0 2 0 0 0 0
0 0 0 0 0 0 0 0 0 0 0 0 0 0 0 0 0 0 0 0 0 0 0 0 0 0 0 0 0 0 0 0 0 0 5 97 99 96 44 5 2 0 0 0 0
0 0 0 0 0 0 0 0 0 0 0 0 0 0 0 0 0 0 0 0 0 0 0 0 0 0 0 0 0 0 0 0 0 0 65 18 83 100 5 5 1 0 0 0 0
0 0 0 4 19 0 0 0 0 0 0 2 0 0 0 0 0 0 0 0 0 0 0 0 0 0 0 0 0 0 0 0 1 0 2 70 84 50 5 1 2 0 1 0 0
0 0 0 15 0 0 0 0 0 0 0 0 0 0 0 0 0 0 0 0 0 0 0 0 0 0 0 0 0 0 0 0 4 3 1 3 0 17 8 2 0 0 1 1 0
0 0 0 0 8 0 0 0 0 0 0 0 0 0 0 0 0 0 0 0 0 0 0 0 0 0 0 0 0 0 0 0 0 2 0 0 0 0 50 21 0 0 0 2 0
0 0 0 0 0 0 0 0 0 0 0 0 0 0 0 0 0 0 0 0 0 0 0 0 0 0 0 0 0 0 0 0 0 0 0 0 0 0 2 5 0 0 0 0 3
0 0 0 0 0 0 0 0 0 0 0 0 0 0 0 0 0 0 0 0 0 0 0 0 0 0 0 0 0 0 0 0 0 0 0 0 0 0 37 23 2 0 3 1 0
33 15 0 0 0 0 0 0 0 0 0 0 0 0 0 0 0 0 0 0 0 0 0 0 0 0 0 0 0 0 0 0 0 0 0 0 0 5 0 0 0 0 5 0 0
60 4 0 0 0 2 0 0 0 0 0 0 0 0 0 0 0 0 0 0 0 0 0 0 0 0 0 0 0 0 0 0 0 0 0 0 1 2 0 0 5 66 4 2 5
1 6 0 0 0 4 5 0 0 0 0 0 0 0 0 0 0 0 5 2 0 0 0 0 0 0 0 0 0 0 0 0 0 0 0 0 55 0 0 0 5 5 5 5 6
42 1 0 14 19 49 100 100 100 100 25 2 0 0 0 0 0 0 0 5 0 0 5 0 0 0 0 0 0 0 0 0 0 0 0 0 1 0 0 0 5 0 5 5 99
26 57 1 74 100 89 82 100 100 100 86 83 34 5 2 0 0 0 0 1 0 0 0 6 0 1 5 4 0 0 0 0 0 0 0 0 0 0 0 0 4 26 5 8 98
62 24 5 15 82 100 98 100 100 100 30 12 5 30 4 7 9 5 0 0 0 0 0 0 0 0 27 19 3 1 0 0 0 0 0 0 0 0 0 0 3 78 5 12 76
100 100 89 42 88 34 100 62 100 100 52 100 84 5 0 5 26 18 5 1 2 0 0 0 0 0 5 27 8 5 2 4 5 5 0 0 0 0 0 0 3 5 7 3 41
97 61 100 100 88 11 12 100 100 99 98 100 100 58 54 0 13 3 5 4 7 39 5 4 0 0 0 5 5 0 30 9 81 49 59 4 5 2 0 0 0 0 0 0 0

GFSSW_prec_cloud_039.txt.gz
Cloud_Cover
1 0 0 0 0 0 0 0 0 0 0 0 0 0 0 0 18 0 0 0 0 0 0 0 0 0 0 0 5 5 100 100 100 100 100 99 12 13 84 31 55 48 98 5 0
7 6 0 0 0 0 0 0 0 0 0 0 0 0 21 13 26 0 0 0 0 0 0 0 0 0 1 1 5 64 100 100 100 100 100 92 25 98 98 13 58 100 66 12 0
0 0 0 0 0 0 0 0 0 0 0 0 0 0 12 23 12 0 0 0 0 0 0 0 0 0 0 0 9 59 100 82 100 100 100 90 15 25 98 25 22 5 14 18 0
0 0 0 0 0 0 0 0 0 0 0 0 0 0 0 55 0 0 0 0 0 0 0 0 0 0 0 0 0 29 5 90 46 34 95 100 100 100 100 100 24 0 0 0 0
0 0 0 0 0 0 0 0 0 0 0 0 0 0 0 0 0 0 0 0 0 0 0 0 0 0 0 0 5 96 5 60 99 100 100 100 100 100 28 5 1 0 0 0 0
0 0 0 0 0 0 0 0 0 0 0 0 17 7 15 0 0 0 0 0 0 0 0 0 0 0 0 1 5 8 5 72 54 52 20 44 68 0 0 5 2 0 0 0 0
0 0 0 0 0 0 0 0 0 0 0 18 53 16 0 0 0 0 0 0 0 0 0 0 0 0 0 1 5 0 0 3 80 99 97 100 26 5 4 5 59 5 0 0 0
0 0 0 0 0 0 0 0 0 0 0 1 39 10 0 0 0 0 0 0 0 0 0 0 0 0 0 0 0 0 0 2 5 5 4 28 3 1 14 36 90 6 0 0 0
1 0 0 0 0 0 0 0 0 0 0 4 17 26 0 0 0 0 0 0 0 0 0 0 0 0 0 0 0 0 0 5 5 5 5 4 7 0 5 65 100 39 8 0 0
5 5 0 3 0 0 0 0 0 4 21 0 0 4 0 0 0 0 0 0 0 0 0 0 0 0 0 0 0 0 0 5 5 4 10 5 8 4 4 5 28 0 4 0 0
4 5 3 5 1 0 2 5 3 0 0 0 0 0 0 0 0 0 0 0 0 0 0 0 0 0 0 0 0 0 0 0 0 2 0 5 4 5 20 3 47 68 0 0 0
0 3 2 2 5 4 0 2 0 0 0 0 0 0 0 0 0 0 0 0 0 0 0 0 0 0 0 0 0 0 0 0 3 0 0 0 5 19 5 5 5 42 4 0 0
5 2 5 0 0 0 0 0 0 0 0 0 0 0 0 0 0 0 0 0 0 0 0 0 0 0 0 0 0 0 0 0 0 5 0 1 61 59 4 3 4 0 4 0 0
0 0 0 1 0 0 0 0 0 0 0 0 0 0 0 0 0 0 0 0 0 0 0 0 0 0 0 0 0 0 0 0 0 4 1 0 69 8 5 1 0 0 0 0 0
0 0 0 0 4 0 0 0 0 0 0 0 0 0 0 0 0 0 0 0 0 0 0 0 0 0 0 0 0 0 0 0 0 5 4 2 3 0 5 2 0 0 0 0 0
0 0 0 15 3 0 0 0 0 0 0 0 0 0 0 0 0 0 0 0 0 0 0 0 0 0 0 0 0 0 0 0 0 1 2 0 0 5 3 0 0 0 0 0 0
0 0 0 0 3 0 0 0 0 0 0 0 0 0 0 0 0 0 0 0 0 0 0 0 0 0 0 0 0 0 0 0 0 0 4 0 0 0 0 1 1 0 5 0 5
0 0 0 0 0 0 0 0 0 0 0 0 0 0 0 0 0 0 0 0 0 0 0 0 0 0 0 0 0 0 0 0 0 0 0 0 0 0 0 4 5 5 5 5 2
0 0 0 0 0 0 0 0 0 0 0 0 0 0 0 0 0 0 0 0 0 0 0 0 0 0 0 0 0 0 0 0 0 0 0 0 8 0 0 5 5 1 5 0 0
39 61 2 0 0 0 0 0 0 0 0 0 0 0 0 0 0 0 0 0 0 0 0 0 0 0 0 0 0 0 0 0 0 0 0 0 4 0 0 0 5 0 0 0 0
1 1 0 0 0 0 1 0 0 0 0 0 0 0 0 0 0 0 0 0 0 0 0 0 0 0 0 0 0 0 0 0 0 0 0 1 61 50 1 0 0 0 0 0 0
5 11 0 1 0 4 70 98 5 1 0 0 0 0 0 0 0 0 0 0 0 0 0 0 0 0 0 0 0 0 0 0 0 0 0 0 4 5 100 1 0 0 0 0 0
37 38 0 2 55 20 86 100 100 77 2 20 38 2 1 1 0 0 0 0 0 0 0 0 2 0 0 0 0 0 0 0 0 0 0 0 0 0 0 5 1 5 2 0 0
12 61 4 88 83 99 32 100 97 92 21 87 97 35 5 5 5 2 0 0 0 0 0 0 5 5 5 0 0 0 0 0 0 0 0 0 0 0 0 0 0 0 4 4 0
7 86 98 12 22 5 74 99 98 88 100 100 99 29 5 5 5 5 1 0 0 0 0 0 0 5 5 5 1 4 0 0 0 0 0 13 0 0 0 0 0 0 1 4 7
100 99 83 100 100 75 65 98 100 73 100 90 96 81 98 5 5 5 4 1 1 0 0 0 0 0 5 5 4 4 1 0 3 3 0 0 0 0 0 0 0 0 0 4 5
100 99 100 100 100 99 100 5 94 100 100 100 100 63 69 5 4 4 5 4 3 3 1 0 0 0 0 5 3 0 82 100 9 5 5 6 25 5 2 0 0 0 0 0 4

GFSSW_prec_cloud_042.txt.gz
Cloud_Cover
0 0 0 1 0 2 6 0 0 0 0 0 0 0 7 26 12 0 0 0 0 0 0 0 0 0 0 15 30 38 78 91 100 36 44 100 95 95 49 3 1 1 5 51 25
0 0 0 0 0 0 3 1 0 0 0 0 0 0 0 34 40 0 0 0 0 0 0 0 0 0 0 0 5 84 22 100 97 94 100 14 2 4 3 68 53 2 5 6 7
0 0 0 0 0 0 0 0 0 0 0 0 0 0 0 50 5 0 0 0 0 0 0 0 0 0 0 0 7 100 93 95 100 29 12 61 95 96 15 5 19 82 81 41 30
0 0 0 0 0 0 0 0 0 0 0 0 0 16 0 57 0 0 0 0 0 0 0 0 0 0 0 0 3 14 75 13 5 9 58 53 37 100 70 87 54 70 100 100 22
0 0 0 0 0 0 0 0 0 0 0 2 10 27 1 0 0 0 0 0 0 0 0 0 0 0 0 0 1 26 16 35 75 38 6 5 85 84 92 100 100 100 70 1 0
0 0 0 0 0 0 0 0 0 0 0 0 48 29 17 0 0 0 0 0 0 0 0 0 0 0 0 0 1 67 5 31 11 4 2 23 76 48 54 36 100 56 0 0 0
0 0 0 0 0 0 0 0 0 19 15 26 98 39 0 0 0 0 0 0 0 0 0 0 0 0 0 0 4 19 5 5 5 5 4 4 0 5 54 78 100 68 0 0 0
0 0 0 0 0 0 0 0 0 0 0 24 100 25 0 0 0 0 0 0 0 0 0 0 0 0 0 0 3 5 4 3 2 5 4 5 5 5 5 64 96 83 3 0 0
0 0 0 0 0 0 0 0 5 13 4 43 26 20 0 0 0 0 0 0 0 0 0 0 0 0 0 0 0 0 0 0 1 1 3 4 44 5 5 6 74 30 0 4 0
0 0 0 0 0 0 0 0 27 22 44 25 14 20 0 0 0 0 0 0 0 0 0 0 0 0 0 0 0 0 0 0 0 1 0 3 9 5 57 5 35 4 12 65 0
5 5 0 0 0 0 0 0 0 0 0 0 0 0 0 0 0 0 0 0 0 0 0 0 0 0 0 0 0 0 0 0 5 4 0 5 5 2 26 5 13 100 9 0 0
0 5 0 0 0 0 0 4 4 0 0 0 0 0 0 0 0 0 0 0 0 0 0 0 0 0 0 0 0 0 0 0 0 2 0 0 3 0 4 19 32 81 100 13 0
0 0 4 0 2 0 0 0 0 0 5 2 0 0 0 0 0 0 0 0 0 0 0 0 0 0 0 0 0 0 0 0 0 0 0 0 0 1 12 4 2 3 40 35 0
4 0 0 0 0 0 0 0 0 0 0 1 0 0 0 0 0 0 0 0 0 0 0 0 0 0 0 0 0 0 0 0 0 0 0 0 0 2 8 2 0 0 0 0 0
0 0 0 0 0 0 0 0 0 0 0 0 0 0 0 0 0 0 0 0 0 0 0 0 0 0 0 0 0 0 0 0 0 0 1 0 0 0 1 0 0 0 0 0 0
0 0 0 3 2 3 0 0 0 0 0 0 0 0 0 0 0 0 0 0 0 0 0 0 0 0 0 0 0 0 0 0 0 0 4 0 0 0 64 82 7 0 0 1 0
0 0 0 0 0 0 0 0 0 0 0 0 0 0 0 0 0 0 0 0 0 0 0 0 0 0 0 0 0 0 0 0 0 0 66 0 0 0 7 0 0 0 0 0 0
0 0 0 0 0 0 0 0 0 0 0 0 0 0 0 0 0 0 0 0 0 0 0 0 0 0 0 0 0 0 0 0 0 2 0 0 4 0 2 0 0 0 5 9 0
0 3 0 0 0 0 0 0 0 0 0 0 0 0 0 0 0 0 0 0 0 0 0 0 0 0 0 0 0 0 0 0 0 0 0 4 13 0 0 0 3 3 5 3 0
37 72 1 0 0 0 0 0 0 0 0 0 0 0 0 0 0 0 0 0 0 0 0 0 0 0 0 0 0 0 0 0 0 0 0 0 1 0 0 0 0 5 1 0 0
0 0 0 0 0 0 0 0 0 0 0 0 0 0 0 0 0 0 0 0 0 0 0 0 0 0 0 0 0 0 0 0 0 0 0 0 0 0 0 0 0 4 39 21 0
4 0 0 0 3 14 65 67 13 1 3 5 0 0 0 0 0 0 0 0 0 0 0 0 0 0 0 0 0 0 0 0 0 0 0 0 0 0 0 0 2 0 31 48 5
58 64 0 3 6 6 59 36 71 100 26 11 25 4 1 0 0 0 0 0 0 0 0 0 0 0 0 0 0 0 0 0 0 0 0 0 0 0 0 0 0 5 3 47 53
12 14 0 5 5 20 24 5 6 74 100 100 90 96 17 13 5 1 0 0 0 0 0 0 0 0 0 0 0 0 0 0 0 0 0 0 26 0 0 0 0 4 1 0 0
5 14 82 18 26 83 83 5 67 59 100 100 100 90 60 31 5 1 0 0 0 0 0 0 0 0 0 0 0 0 0 0 0 0 0 3 2 2 0 0 0 0 2 29 60
60 87 100 94 60 100 89 5 11 56 55 97 100 100 100 96 29 15 4 0 4 0 0 0 0 0 0 0 0 0 0 0 0 0 0 3 0 0 0 0 0 0 0 0 28
67 98 100 68 99 98 96 93 72 8 100 99 100 100 100 84 59 5 4 0 0 3 1 0 0 0 0 0 0 0 4 1 1 3 1 0 2 0 0 0 0 0 0 0 0

GFSSW_prec_cloud_045.txt.gz
Cloud_Cover
0 0 0 0 0 0 0 0 0 0 0 0 0 8 6 2 13 0 0 0 0 0 0 0 0 0 0 37 4 32 12 71 35 49 38 5 6 10 37 29 2 0 0 2 62
0 0 0 0 0 0 0 0 0 0 0 0 1 11 20 35 0 0 0 0 0 0 0 0 0 0 0 12 8 5 6 34 95 57 30 81 50 3 65 15 0 9 5 5 49
0 0 0 0 0 0 0 0 0 0 0 0 12 13 18 51 0 0 0 0 0 0 0 0 0 0 0 2 5 5 5 20 51 44 15 5 0 0 0 0 5 5 4 28 81
0 0 0 0 0 0 0 0 0 4 3 3 19 11 1 12 0 0 0 0 0 0 0 0 0 0 0 0 5 4 12 5 74 68 48 67 5 5 5 41 51 5 98 100 97
0 0 0 0 0 0 0 0 0 6 17 10 20 97 0 0 0 0 0 0 0 0 0 0 0 0 0 0 4 5 5 5 5 5 27 32 30 61 5 5 5 85 100 63 0
0 0 0 0 0 0 0 0 0 0 0 23 56 98 1 0 0 0 0 0 0 0 0 0 0 0 0 0 0 2 5 2 1 0 5 2 9 22 57 44 18 91 16 0 0
0 0 0 0 0 0 0 0 0 0 0 28 100 46 0 0 0 0 0 0 0 0 0 0 0 0 0 0 1 5 4 2 0 0 5 0 0 5 4 36 25 14 0 0 0
0 0 0 0 0 0 0 0 0 0 5 99 100 22 0 0 0 0 0 0 0 0 0 0 0 0 0 0 0 5 4 4 2 0 1 14 41 16 0 94 6 6 12 0 0
0 0 0 0 0 0 0 0 22 2 62 92 37 15 0 0 0 0 0 0 0 0 0 0 0 0 0 0 0 0 0 1 2 0 5 6 19 5 12 5 5 94 0 0 0
0 0 0 0 0 0 0 1 87 27 70 58 2 0 0 0 0 0 0 0 0 0 0 0 0 0 0 0 0 0 0 0 1 0 1 29 44 5 5 5 4 90 1 3 0
0 0 0 0 0 0 0 0 0 0 0 0 0 0 0 0 0 0 0 0 0 0 0 0 0 0 0 0 0 0 0 0 3 4 0 4 99 38 5 4 1 2 5 5 5
1 2 0 0 0 0 0 0 0 0 0 0 0 0 0 0 0 0 0 0 0 0 0 0 0 0 0 0 0 0 0 0 0 4 0 4 82 5 4 0 18 86 78 44 0
0 0 0 0 0 0 0 0 0 0 2 0 0 0 0 0 0 0 0 0 0 0 0 0 0 0 0 0 0 0 0 0 0 2 0 0 0 4 5 3 0 4 16 79 7
0 0 0 0 0 0 0 0 0 0 0 0 0 0 0 0 0 0 0 0 0 0 0 0 0 0 0 0 0 0 0 0 0 0 0 0 0 0 4 5 5 0 0 4 0
0 0 0 0 0 0 0 0 0 0 0 0 0 0 0 0 0 0 0 0 0 0 0 0 0 0 0 0 0 0 0 0 0 0 0 0 0 0 0 0 0 0 0 0 0
0 0 0 0 0 0 0 0 0 0 0 0 0 0 0 0 0 0 0 0 0 0 0 0 0 0 0 0 0 0 0 0 0 5 23 2 0 0 0 26 2 3 0 0 0
0 0 0 0 0 0 0 0 0 0 0 0 0 0 0 0 0 0 0 0 0 0 0 0 0 0 0 0 0 0 0 0 0 0 99 0 0 0 0 3 5 5 5 0 0
0 0 0 0 0 0 0 0 0 0 0 0 0 0 0 0 0 0 0 0 0 0 0 0 0 0 0 0 0 0 0 0 0 0 9 0 3 0 0 0 0 5 2 0 0
0 0 0 0 0 0 0 0 0 0 0 0 0 0 0 0 0 0 0 0 0 0 0 0 0 0 0 0 0 0 0 0 0 0 4 2 4 0 0 0 1 1 0 0 0
0 0 0 0 0 0 0 0 0 0 0 0 0 0 0 0 0 0 0 0 0 0 0 0 0 0 0 0 0 0 0 0 0 0 1 4 5 0 0 0 2 0 5 0 0
0 0 0 0 0 0 1 4 2 0 0 0 0 0 0 0 0 0 0 0 0 0 0 0 0 0 0 0 0 0 0 0 0 0 0 0 1 0 0 0 0 0 0 4 0
0 0 0 0 0 0 4 4 5 5 5 3 5 5 1 0 0 0 0 0 0 0 0 0 0 0 0 0 0 0 0 0 0 0 0 0 0 0 0 0 0 0 55 4 0
35 3 0 0 12 34 5 4 16 78 85 89 25 6 57 3 0 0 0 0 0 0 0 0 0 0 0 0 0 0 0 0 0 0 0 0 0 0 0 0 1 0 1 3 4
4 3 1 1 5 29 67 5 29 63 95 100 100 70 5 5 4 2 0 0 0 0 0 0 0 0 0 0 0 0 0 0 0 0 0 0 0 0 0 0 4 5 4 0 0
5 7 16 10 21 66 87 21 63 76 32 98 100 100 99 63 7 4 5 4 0 0 0 0 0 0 0 0 0 0 0 0 0 0 0 39 0 4 0 0 0 1 5 0 2
100 100 88 100 60 100 71 86 61 76 90 94 100 100 100 100 66 26 6 2 4 0 0 0 0 0 0 0 0 0 0 0 0 0 0 77 0 5 0 0 0 0 0 5 5
100 100 100 100 76 91 79 95 60 99 24 83 100 100 100 96 85 5 1 2 3 5 1 0 0 0 0 0 0 0 0 0 0 0 0 3 2 5 0 0 0 0 0 0 0

GFSSW_prec_cloud_048.txt.gz
Cloud_Cover
0 0 0 0 0 1 0 1 0 0 4 0 0 4 15 3 0 0 0 0 0 0 0 0 0 0 0 0 4 2 38 100 84 31 85 59 37 5 4 4 71 12 2 10 95
0 0 0 0 0 0 1 0 0 0 5 8 10 11 12 2 0 0 0 0 0 0 0 0 0 0 0 0 5 5 73 100 12 5 46 100 99 81 51 87 60 4 0 7 54
0 0 0 0 0 0 0 0 0 5 6 14 10 11 8 0 0 0 0 0 0 0 0 0 0 0 0 0 5 5 31 2 83 87 7 58 100 63 62 8 1 0 0 0 23
0 0 0 0 0 0 0 0 0 3 12 11 9 7 0 0 0 0 0 0 0 0 0 0 0 0 0 1 5 5 5 5 5 40 8 24 36 66 3 0 2 5 7 6 5
0 0 0 0 0 0 0 0 0 0 0 13 11 3 0 0 0 0 0 0 0 0 0 0 0 0 0 1 5 5 5 6 5 5 5 88 12 95 5 5 5 8 3 2 5
0 0 0 0 0 0 0 0 0 0 53 33 24 24 0 0 0 0 0 0 0 0 0 0 0 0 0 0 5 5 5 28 6 5 5 5 63 31 9 40 36 4 5 3 1
0 0 0 0 0 0 0 0 0 0 40 81 54 0 0 0 0 0 0 0 0 0 0 0 0 0 0 0 0 2 5 6 5 5 0 1 2 5 5 4 5 11 1 0 0
0 0 0 0 0 0 0 0 0 0 0 48 99 0 0 0 0 0 0 0 0 0 0 0 0 0 0 0 0 0 3 4 0 0 0 2 97 11 1 45 0 4 0 0 0
0 0 0 0 0 0 0 0 94 4 62 76 12 0 0 0 0 0 0 0 0 0 0 0 0 0 0 0 0 0 3 1 3 3 3 52 100 34 5 5 0 2 0 0 0
0 0 0 0 0 0 0 0 38 7 0 0 0 0 0 0 0 0 0 0 0 0 0 0 0 0 0 0 0 0 0 22 9 2 98 97 31 23 30 5 0 2 2 0 0
0 0 0 0 0 0 0 0 0 0 0 0 0 0 0 0 0 0 0 0 0 0 0 0 0 0 0 0 0 0 0 0 5 32 19 38 97 95 62 3 0 0 0 0 0
0 0 0 0 0 0 0 0 0 0 0 0 0 0 0 0 0 0 0 0 0 0 0 0 0 0 0 0 0 0 0 0 5 3 0 4 18 76 5 5 0 2 4 1 0
0 0 0 0 0 0 0 0 0 0 0 0 0 0 0 0 0 0 0 0 0 0 0 0 0 0 0 0 0 0 0 0 1 6 0 0 6 46 5 5 1 5 3 6 4
0 0 0 2 0 0 0 0 0 0 0 0 0 0 0 0 0 0 0 0 0 0 0 0 0 0 0 0 0 0 0 0 0 4 1 0 1 74 5 5 0 0 1 1 1
0 0 0 0 0 0 0 0 0 0 0 0 0 0 0 0 0 0 0 0 0 0 0 0 0 0 0 0 0 0 0 0 0 0 1 0 0 0 2 0 0 0 0 0 0
0 0 2 6 0 0 0 0 0 0 0 0 0 0 0 0 0 0 0 0 0 0 0 0 0 0 0 0 0 0 0 0 0 0 0 0 0 0 0 0 0 3 0 0 0
0 0 0 0 0 0 0 0 0 0 0 0 0 0 0 0 0 0 0 0 0 0 0 0 0 0 0 0 0 0 0 0 0 0 29 0 0 0 0 0 1 0 0 0 0
0 17 0 0 0 0 0 0 0 0 0 0 0 0 0 0 0 0 0 0 0 0 0 0 0 0 0 0 0 0 0 0 0 0 3 0 4 0 0 0 0 0 0 0 0
0 0 0 0 0 0 0 0 0 28 60 0 0 0 0 0 0 0 0 0 0 0 0 0 0 0 0 0 0 0 0 0 0 0 0 0 0 0 0 0 0 3 5 0 0
0 0 0 0 0 0 0 0 1 14 29 0 3 2 0 5 0 0 0 0 0 0 0 0 0 0 0 0 0 0 0 0 0 0 0 0 2 0 0 0 0 0 0 0 0
0 0 0 0 0 0 0 0 0 5 5 4 46 91 53 60 0 0 0 0 0 0 0 0 0 0 0 0 0 0 0 0 0 0 0 0 0 0 0 0 0 0 0 0 0
0 0 0 0 4 4 5 2 2 49 99 63 5 98 100 100 53 15 38 0 0 0 0 0 0 0 0 0 0 0 0 0 0 0 0 0 0 0 0 0 0 0 0 0 0
1 2 1 0 1 5 27 5 5 82 98 33 73 34 99 100 96 100 100 2 0 0 0 0 0 0 0 0 0 0 0 0 0 0 0 0 0 0 0 0 4 0 0 0 0
8 8 5 5 28 85 74 35 94 100 73 94 100 92 67 96 100 100 100 9 0 0 0 0 0 0 0 0 0 0 0 0 0 0 3 2 2 0 0 0 4 9 5 1 0
94 98 46 40 36 80 81 88 95 100 91 98 100 100 100 51 100 100 100 52 0 0 0 0 0 0 0 0 0 0 0 0 0 0 0 87 5 2 0 0 0 3 0 2 0
99 100 99 87 85 100 99 98 100 100 100 86 100 100 100 100 100 100 51 94 88 3 0 0 0 0 0 0 0 0 0 0 0 5 0 69 18 100 0 0 0 0 1 0 3
100 100 100 100 99 100 100 99 88 99 60 95 100 100 100 100 100 99 42 86 19 5 1 0 0 0 0 0 0 0 0 0 0 4 2 74 5 6 2 0 0 0 0 0 0

GFSSW_prec_cloud_051.txt.gz
Cloud_Cover
1 0 0 0 0 0 0 0 0 0 3 8 13 8 0 0 0 0 0 0 0 0 0 0 0 0 0 5 5 0 8 71 78 93 100 49 40 21 5 3 6 57 14 40 99
0 0 0 0 0 0 0 0 0 0 1 11 14 4 0 0 0 0 0 0 0 0 0 0 0 0 0 0 1 2 84 100 100 48 100 90 28 14 53 72 80 100 34 39 84
0 0 0 0 0 0 0 0 0 0 0 8 3 0 0 0 0 0 0 0 0 0 0 0 0 0 0 0 3 0 100 100 51 75 100 8 88 5 7 62 100 68 34 25 52
0 0 0 0 0 0 0 0 0 0 0 6 3 0 0 0 0 0 0 0 0 0 0 0 0 0 0 1 5 1 94 73 87 100 38 99 100 100 79 23 4 3 0 1 27
0 0 0 0 0 0 0 0 0 0 0 27 26 0 0 0 0 0 0 0 0 0 0 0 0 0 0 1 5 5 47 15 36 49 84 57 89 75 99 12 21 1 5 7 33
0 0 0 0 0 0 0 0 0 0 6 46 97 8 0 0 0 0 0 0 0 0 0 0 0 0 0 4 5 43 7 96 100 94 94 60 99 99 98 62 5 17 3 5 24
0 0 0 0 0 0 0 0 0 0 1 29 91 0 0 0 0 0 0 0 0 0 0 0 0 0 0 1 8 100 36 12 67 100 95 29 62 5 58 89 27 5 9 8 0
0 0 0 0 0 0 0 0 0 0 0 15 12 0 0 0 0 0 0 0 0 0 0 0 0 0 0 2 1 5 41 99 81 93 60 0 100 13 9 15 1 0 0 0 0
0 0 0 0 0 0 0 0 2 0 0 4 1 0 0 0 0 0 0 0 0 0 0 0 0 0 0 1 0 2 5 7 100 69 78 4 91 100 29 0 0 0 0 0 0
0 0 0 0 0 0 0 0 0 8 8 0 0 0 0 0 0 0 0 0 0 0 0 0 0 0 0 0 0 0 0 84 52 70 67 27 93 93 83 3 8 0 0 0 0
0 0 0 0 0 0 0 0 0 0 0 0 0 0 0 0 0 0 0 0 0 0 0 0 0 0 0 0 1 5 2 84 39 100 26 94 95 7 100 56 100 3 0 0 0
0 0 0 0 0 0 4 0 0 0 0 0 0 0 0 0 0 0 0 0 0 0 0 0 0 0 0 0 0 0 5 30 100 26 98 100 89 85 98 56 46 67 0 0 0
0 0 0 0 2 0 0 0 0 0 0 0 0 0 0 0 0 0 0 0 0 0 0 0 0 0 0 0 0 0 0 4 87 70 98 88 73 92 56 99 65 47 2 0 0
0 0 0 0 2 0 0 0 0 0 0 0 0 0 0 0 0 0 0 0 0 0 0 0 0 0 0 0 0 0 0 0 3 99 92 12 50 28 45 58 7 13 41 4 0
0 0 0 0 0 0 0 0 0 0 0 0 0 0 0 0 0 0 0 0 0 0 0 0 0 0 0 0 0 0 0 0 0 5 63 64 26 5 51 21 8 4 31 6 0
0 0 1 0 0 0 0 0 0 0 0 0 0 0 0 0 0 0 0 0 0 0 0 0 0 0 0 0 0 0 0 0 0 0 0 1 5 5 49 79 76 4 6 21 5
0 0 4 0 0 0 0 0 0 0 0 0 0 0 0 0 0 0 0 0 0 0 0 0 0 0 0 0 0 0 0 0 0 0 0 0 0 0 5 5 5 5 5 4 0
0 6 0 0 0 0 0 0 0 0 3 0 0 0 0 0 0 0 0 0 0 0 0 0 0 0 0 0 0 0 0 0 0 0 0 0 0 0 0 3 5 5 5 4 0
12 0 0 0 0 0 0 0 0 48 14 12 2 1 0 0 0 0 0 0 0 0 0 0 0 0 0 0 0 0 0 0 0 0 0 0 0 0 0 0 0 0 5 5 1
0 0 1 0 0 0 2 0 30 2 0 0 0 10 34 100 38 1 2 0 0 0 0 0 0 0 0 0 0 0 0 0 0 0 0 0 0 0 0 0 0 0 0 1 2
0 0 0 0 0 5 4 5 1 0 2 2 5 1 66 100 92 98 67 31 0 11 0 0 0 0 0 0 0 0 0 0 0 0 0 0 0 0 0 0 0 0 1 93 54
4 4 5 0 9 23 21 8 6 17 89 100 100 94 83 100 100 100 100 98 0 0 0 0 0 0 0 0 0 0 0 0 0 0 0 0 0 0 0 0 4 0 0 92 53
31 68 56 14 100 62 91 5 92 100 100 99 92 83 21 100 100 100 100 93 5 0 0 3 0 0 1 6 0 0 0 0 0 0 0 0 0 0 0 0 0 5 0 0 0
91 100 100 86 100 94 73 12 48 100 98 100 74 11 26 37 100 100 100 100 98 2 0 0 0 0 0 0 0 0 0 0 0 0 0 0 0 0 0 0 2 26 8 4 0
100 100 100 100 100 94 58 100 100 100 100 100 92 85 94 54 96 100 100 90 91 5 1 0 0 0 0 100 13 0 0 0 0 0 0 4 28 0 0 0 0 77 98 19 5
100 100 98 100 100 94 97 100 100 100 100 100 100 99 100 84 75 94 100 100 99 100 99 63 0 0 0 42 5 0 0 0 0 0 2 32 100 5 0 0 0 1 97 14 5
100 100 100 100 100 100 100 100 100 100 99 100 95 100 100 100 100 100 97 100 100 87 94 60 1 65 13 16 19 0 0 0 0 0 2 6 92 99 0 0 0 0 1 4 4

GFSSW_prec_cloud_054.txt.gz
Cloud_Cover
0 0 0 0 0 0 0 0 0 0 0 0 14 12 0 0 0 0 0 0 0 0 0 0 0 0 0 6 1 33 11 39 96 100 58 100 77 70 15 6 30 73 5 78 99
0 0 0 0 0 0 0 0 0 0 0 0 0 18 4 0 0 0 0 0 0 0 0 0 0 0 0 0 7 0 72 100 100 100 100 100 74 5 5 9 72 36 87 97 100
0 0 0 0 0 0 0 0 0 0 0 0 0 0 0 0 0 0 0 0 0 0 0 0 0 0 0 0 0 24 90 100 99 79 61 98 88 96 44 77 37 30 76 100 31
0 0 0 0 0 0 0 0 0 0 0 2 0 22 0 0 0 0 0 0 0 0 0 0 0 0 0 0 18 99 100 100 100 82 72 62 100 100 40 83 68 45 68 29 100
0 0 0 0 0 0 0 0 0 0 0 61 52 72 0 0 0 0 0 0 0 0 0 0 0 0 0 0 19 36 72 91 100 99 6 76 100 100 29 100 100 37 86 58 81
0 0 0 0 0 0 0 0 0 0 2 100 93 65 0 0 0 0 0 0 0 0 0 0 0 0 0 0 30 86 70 77 72 25 89 41 84 87 96 52 59 81 41 24 88
0 0 0 0 0 0 0 0 0 0 0 14 100 6 0 0 0 0 0 0 0 0 0 0 0 0 0 0 22 72 70 37 2 36 75 35 100 82 89 64 96 22 46 5 22
0 0 0 0 0 0 0 0 0 0 0 0 100 0 0 0 0 0 0 0 0 0 0 0 0 0 0 1 12 45 32 46 58 48 44 99 40 100 75 100 83 4 0 0 0
0 0 0 0 0 0 0 0 0 0 0 4 3 0 0 0 0 0 0 0 0 0 0 0 0 0 0 1 2 5 7 30 17 58 72 82 16 95 100 100 26 0 0 0 0
0 0 0 0 0 0 0 0 0 30 1 0 0 0 0 0 0 0 0 0 0 0 0 0 0 0 0 0 0 37 0 20 38 53 31 78 35 81 100 100 100 75 0 0 0
0 0 0 0 0 0 0 0 0 0 0 0 0 0 0 0 0 0 0 0 0 0 0 0 0 0 0 0 0 0 5 4 79 76 100 42 95 4 100 100 100 100 0 0 0
0 0 0 0 0 0 0 0 0 0 0 0 0 0 0 0 0 0 0 0 0 0 0 0 0 0 0 0 0 0 5 5 5 100 68 89 96 96 100 100 100 65 92 0 0
0 0 0 0 0 0 0 0 0 0 0 0 0 0 0 0 0 0 0 0 0 0 0 0 0 0 0 0 0 0 1 1 26 69 74 99 93 100 100 100 100 100 8 1 0
0 0 0 0 0 0 0 0 0 0 0 0 0 0 0 0 0 0 0 0 0 0 0 0 0 0 0 0 0 0 0 1 97 96 55 27 36 43 75 87 92 22 4 100 0
0 0 0 0 0 0 0 0 0 0 0 0 0 0 0 0 0 0 0 0 0 0 0 0 0 0 0 0 0 0 0 4 50 96 100 81 48 78 0 5 89 5 14 37 9
0 0 0 0 0 0 0 0 0 0 0 0 0 0 0 0 0 0 0 0 0 0 0 0 0 0 0 0 0 0 0 0 1 5 22 30 66 3 51 5 100 16 4 2 36
0 0 0 0 0 0 0 0 0 0 0 0 0 0 0 0 0 0 0 0 0 0 0 0 0 0 0 0 0 0 0 0 0 0 0 0 28 2 90 79 87 82 5 4 5
0 0 0 0 0 0 0 0 0 0 0 0 0 0 0 0 0 0 0 0 0 0 0 0 0 0 0 0 0 0 0 0 0 0 0 0 0 0 7 100 88 51 62 5 5
0 0 0 0 0 0 0 0 0 0 0 0 0 0 99 100 2 1 0 0 0 0 0 0 0 0 0 0 0 0 0 0 0 0 0 0 0 0 0 0 28 56 100 11 5
0 0 0 1 0 2 1 0 50 2 0 0 0 0 1 100 53 36 5 0 86 2 0 0 3 0 0 0 0 0 0 0 0 0 0 0 0 0 0 0 0 0 3 73 10
0 3 13 5 5 5 46 25 5 4 0 0 0 1 2 100 63 100 74 67 97 59 72 0 0 0 3 0 0 0 0 0 0 0 0 0 6 0 4 0 0 0 0 1 78
48 26 80 68 56 96 100 100 76 5 5 6 6 68 99 91 100 100 100 100 96 5 81 4 0 0 5 0 0 0 0 0 0 0 0 0 84 49 3 0 0 2 0 0 2
88 13 79 100 100 89 84 100 62 95 3 62 35 100 45 99 100 100 100 100 100 11 98 97 0 0 5 50 18 0 0 0 0 0 0 0 0 0 0 0 0 12 4 0 4
24 73 25 69 100 100 100 100 100 100 4 21 100 78 91 93 100 100 100 100 100 95 10 27 0 0 0 0 1 0 0 0 0 0 0 0 0 0 0 0 0 2 24 0 0
99 74 90 47 99 100 100 100 100 50 12 100 85 96 43 63 98 100 100 100 100 100 5 87 10 0 3 3 88 12 0 0 0 0 0 0 0 0 0 0 0 0 5 4 0
62 100 100 100 100 100 100 100 100 100 68 4 68 5 100 99 100 100 100 100 100 100 100 85 5 0 5 4 99 98 40 0 0 0 2 5 43 5 0 0 0 0 5 5 5
100 100 100 100 100 100 100 100 96 95 94 98 64 96 86 98 86 100 100 100 100 100 100 99 98 10 0 3 31 95 25 35 2 0 0 5 27 100 8 0 0 0 1 18 5

GFSSW_prec_cloud_057.txt.gz
Cloud_Cover
0 0 0 0 0 0 0 0 0 0 0 0 0 6 1 0 0 0 0 0 0 0 0 0 0 0 0 0 1 10 50 95 100 100 100 100 100 46 0 2 5 17 0 10 73
0 0 0 0 0 0 0 0 0 0 0 0 0 1 24 2 2 0 0 0 0 0 0 0 0 0 0 0 0 51 10 6 100 100 84 80 100 9 4 5 3 5 2 8 7
0 0 0 0 0 0 0 0 0 0 0 0 6 24 20 1 0 0 0 0 0 0 0 0 0 0 0 0 0 18 0 1 16 100 99 98 56 78 7 73 96 40 22 45 8
0 0 0 0 0 0 0 0 0 0 0 1 90 100 25 0 0 0 0 0 0 0 0 0 0 0 0 0 0 29 83 44 83 98 44 86 7 98 100 56 57 36 55 77 96
0 0 0 0 0 0 0 0 0 0 0 50 100 100 20 0 0 0 0 0 0 0 0 0 0 0 0 0 0 93 19 81 93 100 88 71 91 100 94 5 91 84 34 49 5
0 0 0 0 0 0 0 0 0 0 0 44 100 99 12 0 0 0 0 0 0 0 0 0 0 0 0 0 0 1 8 100 100 100 19 65 100 45 51 5 8 21 39 41 78
0 0 0 0 0 0 0 0 0 0 0 10 100 40 0 0 0 0 0 0 0 0 0 0 0 0 0 0 0 7 100 100 70 98 11 99 85 100 33 56 9 96 10 11 11
0 0 0 0 0 0 0 0 0 0 0 12 58 36 0 0 0 0 0 0 0 0 0 0 0 0 0 0 0 12 100 84 100 89 92 79 43 36 100 100 80 100 9 0 2
0 0 0 0 0 0 0 0 0 0 0 0 22 0 0 0 0 0 0 0 0 0 0 0 0 0 0 0 0 4 5 7 4 91 100 76 89 100 98 100 100 100 76 30 53
0 0 0 0 0 0 0 0 0 0 2 0 0 0 0 0 0 0 0 0 0 0 0 0 0 0 0 0 0 0 4 7 2 5 21 57 100 99 100 100 99 100 97 90 5
0 0 0 0 0 0 0 0 0 0 0 0 0 0 0 0 0 0 0 0 0 0 0 0 0 0 0 0 0 0 2 55 0 47 100 91 5 5 98 100 100 100 100 63 49
0 0 0 0 0 0 0 0 0 0 0 0 0 0 0 0 0 0 0 0 0 0 0 0 0 0 0 0 0 0 4 31 4 36 100 96 74 6 94 97 100 100 100 100 100
0 0 0 0 0 0 0 0 0 0 0 0 0 0 0 0 0 0 0 0 0 0 0 0 0 0 0 0 0 0 0 0 3 99 98 96 100 32 46 100 100 100 100 40 100
0 0 0 0 0 0 0 0 0 0 0 0 0 0 0 0 0 0 0 0 0 0 0 0 0 0 0 0 0 0 0 0 0 89 66 79 100 86 87 100 100 100 66 40 16
0 0 0 0 0 0 0 0 0 0 0 0 0 0 0 0 0 0 0 0 0 0 0 0 0 0 0 0 0 0 0 0 0 68 100 9 81 74 79 63 100 100 100 70 1
0 0 0 0 0 0 0 0 0 0 0 0 0 0 0 0 0 0 0 0 0 0 0 0 0 0 0 0 0 0 0 0 1 78 93 40 97 93 70 2 88 100 100 62 6
0 0 0 0 0 0 0 0 0 0 0 0 0 3 1 0 0 0 0 0 0 0 0 0 0 0 0 0 0 0 0 0 3 6 18 2 89 2 84 12 1 1 45 2 4
0 0 0 0 0 0 0 0 0 0 0 0 0 0 33 85 2 0 0 0 0 0 0 0 0 0 0 0 0 0 0 0 0 0 0 2 5 0 4 100 96 90 11 8 5
0 0 0 0 0 0 0 0 3 3 0 0 0 0 0 71 44 4 0 0 0 0 0 0 0 0 0 0 0 0 0 0 0 0 0 0 0 0 0 16 85 59 100 5 5
0 4 1 2 1 0 0 1 12 52 1 2 0 0 0 0 13 73 23 25 0 1 13 0 0 0 0 5 0 0 0 0 0 0 0 0 0 0 0 0 5 6 43 100 16
32 0 0 5 4 1 3 12 88 96 5 5 3 0 0 0 0 73 81 100 57 37 5 1 0 0 10 13 0 0 0 0 0 0 0 0 0 0 0 0 0 0 4 2 7
0 3 2 97 97 90 100 88 100 100 100 99 2 0 0 0 0 4 100 100 98 100 80 75 0 0 0 0 0 1 0 0 0 0 0 0 0 0 0 0 3 0 0 0 5
1 76 59 96 19 96 69 68 100 100 100 100 98 10 0 0 1 0 86 100 100 100 100 96 3 1 0 3 54 79 0 0 0 0 0 0 0 2 0 0 0 0 0 0 5
91 80 75 5 59 45 92 100 92 100 100 100 98 1 2 50 9 4 100 100 100 100 100 98 6 6 0 0 0 4 40 0 0 0 0 0 0 0 4 5 0 0 0 0 0
5 91 29 36 100 95 100 100 92 100 100 100 86 52 60 100 8 42 100 100 100 100 100 87 5 2 0 0 3 45 39 5 0 0 0 0 0 0 4 0 1 0 0 0 0
99 86 98 97 100 100 100 100 100 100 100 98 65 70 20 0 46 40 100 100 100 100 100 99 92 51 0 0 26 100 12 3 0 0 0 0 0 0 0 0 4 0 0 0 0
18 78 100 100 100 100 100 100 100 100 99 58 55 15 98 100 93 27 100 100 100 100 100 76 89 10 0 29 96 2 5 36 54 1 0 0 0 0 0 0 0 0 0 0 0

GFSSW_prec_cloud_060.txt.gz
Cloud_Cover
0 0 0 0 0 0 0 0 0 0 0 0 1 7 25 10 1 5 5 0 0 0 0 0 0 0 0 3 1 87 75 1 30 100 100 98 100 61 50 3 0 0 1 9 5
0 0 0 0 0 0 0 0 0 0 0 0 5 84 88 20 17 0 0 0 0 0 0 0 0 0 0 0 0 85 8 1 61 71 99 47 100 8 3 2 2 0 0 5 92
0 0 0 0 0 0 0 0 0 0 0 0 13 100 100 10 23 0 0 0 0 0 0 0 0 0 0 0 0 2 0 0 4 70 62 97 94 5 27 0 3 5 33 99 2
0 0 0 0 0 0 0 0 0 0 0 0 52 100 100 2 0 0 0 0 0 0 0 0 0 0 0 0 0 0 0 1 5 52 52 61 100 91 100 4 3 7 21 3 0
0 0 0 0 0 0 0 0 0 0 0 0 52 100 4 0 0 0 0 0 0 0 0 0 0 0 0 0 0 0 0 6 55 15 88 100 100 80 85 5 5 2 16 25 46
0 0 0 0 0 0 0 0 0 0 0 9 54 98 11 0 0 0 0 0 0 0 0 0 0 0 0 0 0 0 3 41 100 100 96 92 72 70 5 16 3 3 21 11 86
0 0 0 0 0 0 0 0 0 0 0 3 98 47 0 0 0 0 0 0 0 0 0 0 0 0 0 0 0 0 5 66 87 100 100 61 8 5 30 15 6 0 6 4 11
0 0 0 0 0 0 0 0 0 0 0 1 100 98 28 0 0 0 0 0 0 0 0 0 0 0 0 0 0 0 2 5 98 99 100 100 22 1 5 64 8 79 95 100 14
0 0 0 0 0 0 0 0 0 0 0 7 24 14 8 0 0 0 0 0 0 0 0 0 0 0 0 0 0 0 0 1 5 5 100 80 100 6 70 97 47 62 64 100 100
0 0 0 0 0 0 0 0 0 0 2 1 0 3 0 0 0 0 0 0 0 0 0 0 0 0 0 0 0 0 0 5 5 12 99 99 48 13 100 74 100 36 12 25 96
0 0 0 0 0 0 0 0 0 0 0 0 0 0 0 0 0 0 0 0 0 0 0 0 0 0 0 0 0 0 0 5 0 77 12 63 7 70 100 46 79 5 5 64 100
0 0 0 0 0 0 0 0 0 0 0 0 0 0 0 0 0 0 0 0 0 0 0 0 0 0 0 0 0 0 0 0 0 8 100 100 85 29 20 9 52 100 42 46 96
0 0 0 0 0 0 0 0 0 0 0 0 0 0 0 0 0 0 0 0 0 0 0 0 0 0 0 0 0 0 0 0 0 67 100 100 59 100 81 5 40 100 100 86 100
0 0 0 0 0 0 0 0 0 0 0 0 0 0 0 0 0 0 0 0 0 0 0 0 0 0 0 0 0 0 0 0 2 91 73 89 6 67 5 36 14 100 94 100 100
0 0 0 0 0 0 0 0 0 0 0 0 0 0 0 0 0 0 0 0 0 0 0 0 0 0 0 0 0 0 0 0 4 76 80 73 100 5 5 5 100 70 100 14 100
0 0 0 0 0 0 0 0 0 0 0 0 0 0 0 0 0 0 0 0 0 0 0 0 0 0 0 0 0 0 0 0 56 59 33 35 99 2 3 1 5 65 75 99 20
0 0 0 0 0 0 0 0 0 0 0 0 0 0 0 0 0 0 0 0 0 0 0 0 0 0 0 0 0 0 0 0 0 49 5 1 80 0 0 3 3 38 0 79 100
0 0 0 0 0 0 0 0 0 0 0 0 0 0 0 0 4 0 0 0 0 0 0 0 0 0 0 0 0 0 0 0 0 0 0 0 5 0 0 3 6 5 4 5 73
0 0 0 0 0 0 0 0 0 0 0 0 0 0 0 0 0 3 0 0 0 0 23 63 1 0 0 0 0 0 0 0 0 0 0 0 0 0 0 3 5 0 0 4 4
0 0 0 0 0 2 2 5 2 3 0 0 0 0 0 0 0 0 98 100 98 10 38 28 28 0 0 4 0 0 0 0 0 0 0 0 0 0 0 0 3 2 0 0 0
0 0 0 5 1 5 84 6 27 46 43 5 5 0 0 0 0 0 5 100 99 100 96 86 79 2 1 0 0 0 0 0 0 0 0 0 0 0 0 3 2 2 0 0 0
2 0 5 5 51 37 100 100 83 94 100 100 5 5 27 0 2 0 0 42 96 100 100 100 100 26 0 0 0 5 0 0 0 0 0 0 0 0 0 0 2 75 4 0 0
60 5 8 6 22 50 100 100 61 88 100 100 100 88 93 23 1 0 0 0 94 100 100 100 100 80 0 4 18 52 0 0 0 0 0 0 0 0 0 0 0 0 0 0 0
11 5 4 99 76 100 44 100 100 99 100 100 100 100 99 100 44 0 0 0 0 100 100 100 100 92 74 4 90 4 0 0 0 0 0 0 0 0 0 0 0 0 0 0 0
3 11 8 94 100 86 96 100 80 100 100 100 100 100 100 100 76 11 1 0 0 99 100 100 100 97 5 1 9 0 4 0 0 0 0 3 0 3 0 5 45 27 0 0 0
5 75 97 96 100 91 97 85 100 100 100 100 100 94 16 76 5 1 6 29 5 98 100 100 100 60 0 4 27 0 5 5 0 0 0 3 0 0 5 0 4 2 0 0 0
15 51 100 96 100 100 98 100 100 100 100 39 8 6 29 4 69 33 4 0 4 94 100 100 98 75 4 88 100 99 100 98 4 1 4 4 25 4 53 3 3 79 0 0 0

GFSSW_prec_cloud_063.txt.gz
Cloud_Cover
0 0 0 0 0 0 0 0 0 0 0 0 5 13 99 100 44 0 5 0 0 0 0 0 0 0 0 0 8 6 64 7 10 99 58 100 86 94 92 100 99 99 3 47 50
0 0 0 0 0 0 0 0 0 0 0 0 1 7 100 100 46 12 0 0 0 0 0 0 0 0 0 0 0 9 46 5 30 9 95 100 100 95 85 99 12 0 0 0 56
0 0 0 0 0 0 0 0 0 0 0 0 6 3 100 33 38 0 0 0 0 0 0 0 0 0 0 0 0 1 9 4 3 40 5 14 20 36 34 0 0 0 4 5 30
0 0 0 0 0 0 0 0 0 0 0 2 20 65 82 2 0 0 0 0 0 0 0 0 0 0 0 0 0 0 0 5 56 31 17 14 4 5 22 0 0 4 5 5 0
0 0 0 0 0 0 0 0 0 0 0 7 9 85 2 0 0 0 0 0 0 0 0 0 0 0 0 0 0 0 4 4 26 5 33 88 5 3 30 2 4 4 2 2 5
0 0 0 0 0 0 0 0 0 0 0 23 21 98 1 0 0 0 0 0 0 0 0 0 0 0 0 0 0 0 50 5 5 24 76 100 25 5 8 1 0 0 2 0 1
0 0 0 0 0 0 0 0 0 0 0 1 56 39 0 0 0 0 0 0 0 0 0 0 0 0 0 0 0 0 64 43 5 45 64 100 60 5 14 3 6 5 0 0 0
0 0 0 0 0 0 0 0 0 0 0 0 83 98 28 0 0 0 0 0 0 0 0 0 0 0 0 0 0 0 7 5 6 5 50 22 86 5 33 32 6 62 6 6 5
0 0 0 0 0 0 0 0 0 0 0 7 12 4 17 0 0 0 0 0 0 0 0 0 0 0 0 0 0 0 0 4 8 5 96 94 69 7 16 6 20 6 5 42 39
0 0 0 0 0 0 0 0 0 0 0 0 3 31 0 0 0 0 0 0 0 0 0 0 0 0 0 0 0 0 0 1 11 2 3 42 69 100 5 11 61 5 5 71 44
0 0 0 0 0 0 3 0 0 0 0 0 0 0 0 0 0 0 0 0 0 0 0 0 0 0 0 0 0 0 0 0 5 5 1 2 5 60 5 2 10 84 11 38 100
0 0 0 0 0 0 0 0 0 0 0 0 0 0 0 0 0 0 0 0 0 0 0 0 0 0 0 0 0 0 0 0 3 6 5 5 2 24 9 19 53 61 5 18 5
0 0 0 0 0 0 0 0 0 0 0 0 0 0 0 0 0 0 0 0 0 0 0 0 0 0 0 0 0 0 0 0 2 5 5 31 26 24 2 5 14 51 47 4 34
0 0 0 0 0 0 0 0 0 0 0 0 0 0 0 0 0 0 0 0 0 0 0 0 0 0 0 0 0 0 0 0 0 46 20 5 5 5 4 13 0 5 5 2 84
0 0 0 0 0 0 0 0 0 0 0 0 0 0 0 0 0 0 0 0 0 0 0 0 0 0 0 0 0 0 0 0 0 79 100 28 5 0 5 0 0 3 5 5 22
0 0 0 0 0 0 0 0 0 0 0 0 0 0 0 0 0 0 0 0 0 0 0 0 0 0 0 0 0 0 0 0 0 51 99 30 18 0 0 0 0 4 5 4 4
0 0 0 0 0 0 0 0 0 0 0 0 0 0 0 0 0 0 0 0 0 0 0 0 0 0 0 0 0 0 0 0 0 2 7 8 74 0 0 0 0 2 4 2 4
0 0 0 0 0 0 0 0 0 0 0 0 0 0 0 0 0 0 0 0 0 0 0 1 0 0 0 0 0 0 0 0 0 1 3 0 5 0 0 0 0 2 5 91 99
0 0 0 0 0 0 1 0 0 0 0 0 0 0 0 0 0 0 0 0 0 0 0 0 0 0 0 0 0 0 0 0 0 0 0 0 0 0 0 0 1 0 2 4 5
11 1 0 5 4 4 20 6 3 5 5 4 0 0 0 0 0 0 0 0 0 0 0 0 0 0 0 0 0 0 0 0 0 0 0 0 0 0 0 0 0 5 0 0 0
0 0 0 1 0 1 3 5 0 0 0 0 0 5 5 3 0 0 0 0 0 2 0 0 5 0 0 0 0 0 0 0 0 0 0 0 0 0 0 0 0 0 0 0 3
10 0 0 12 5 2 3 0 1 25 5 5 5 5 65 72 5 5 0 0 0 0 5 0 16 19 0 0 0 0 0 0 0 0 0 0 0 0 0 0 0 0 0 0 8
48 6 0 5 5 5 16 76 5 27 99 98 90 74 26 22 100 87 6 0 1 0 4 41 57 36 0 0 4 4 5 0 0 0 0 0 0 0 0 0 10 37 0 0 81
14 2 5 5 5 20 88 11 100 100 89 100 100 93 100 88 95 100 100 51 99 1 10 26 6 3 5 18 7 5 61 4 0 0 0 0 2 0 0 0 75 3 0 0 5
1 5 5 7 9 64 38 98 26 100 99 100 73 100 100 100 100 100 100 100 100 27 0 0 66 6 21 0 4 5 12 23 0 0 0 0 0 0 0 0 0 0 0 0 0
5 20 6 99 85 100 6 45 50 77 93 26 88 85 100 100 96 100 100 100 100 28 3 46 5 40 4 0 2 100 95 92 4 0 0 0 1 0 0 0 3 0 0 0 0
98 72 100 100 100 100 80 100 100 100 100 100 100 5 5 17 35 0 3 55 8 2 0 100 99 83 5 5 5 100 100 100 100 3 0 1 0 0 0 1 2 0 0 0 0

GFSSW_prec_cloud_069.txt.gz
Cloud_Cover
0 0 0 0 0 0 0 0 0 0 0 0 9 16 17 11 84 26 0 0 0 0 2 60 17 0 0 24 21 25 59 47 12 31 57 98 89 65 23 98 6 5 86 74 92
0 0 0 0 0 0 0 7 0 0 0 0 2 26 3 100 7 0 0 0 0 0 0 1 0 0 0 0 6 64 74 5 5 25 91 55 48 20 60 62 12 5 44 62 54
0 0 0 0 0 0 1 6 0 0 0 9 21 23 70 55 0 0 0 0 0 0 0 0 0 0 0 0 1 8 53 33 5 5 47 5 12 5 7 5 5 5 9 15 27
0 0 0 0 0 0 4 3 6 0 0 13 40 10 89 0 0 0 0 0 0 0 0 0 0 0 0 0 5 5 5 5 11 5 100 87 5 5 5 3 0 5 4 5 19
0 0 0 0 0 0 0 2 13 0 17 27 26 0 1 0 0 0 0 0 0 0 0 0 0 0 0 0 0 5 5 5 4 5 51 67 5 60 5 1 0 0 5 5 4
0 0 0 0 0 0 0 0 0 0 13 30 8 0 1 0 0 0 0 0 0 0 0 0 0 0 0 0 0 1 2 0 0 0 6 5 5 15 11 4 4 5 2 0 0
0 0 0 0 0 0 0 0 0 0 0 1 0 0 0 0 0 0 0 0 0 0 0 0 0 0 0 0 0 0 0 0 0 0 0 0 5 72 38 5 0 0 3 1 13
0 0 0 0 0 0 0 0 0 0 0 2 1 0 0 0 0 0 0 0 0 0 0 0 0 0 0 0 0 0 0 0 0 0 0 2 5 5 2 0 0 6 33 19 9
0 0 0 0 0 0 0 0 0 0 12 37 7 0 0 0 0 0 0 0 0 0 0 0 0 0 0 0 0 0 0 0 0 0 2 0 9 5 4 1 0 13 31 17 15
0 0 0 0 0 0 0 0 0 22 22 17 0 0 0 0 0 0 0 0 0 0 0 0 0 0 0 0 0 0 0 0 0 0 0 4 59 40 5 5 4 6 24 33 14
0 0 0 0 0 0 0 0 0 0 0 0 0 0 0 0 0 0 0 0 0 0 0 0 0 0 0 0 0 0 0 0 0 0 12 5 25 80 5 5 5 14 5 1 0
0 0 0 0 0 0 0 0 0 0 0 0 0 0 0 0 0 0 0 0 0 0 0 0 0 0 0 0 0 0 0 0 0 63 49 4 6 62 5 12 32 100 69 18 12
0 0 0 0 0 0 0 0 0 0 0 0 0 0 0 0 0 0 0 0 0 0 0 0 0 0 0 0 0 0 0 0 0 47 45 16 12 5 5 5 9 5 9 82 9
0 0 0 0 0 0 0 0 0 0 0 0 0 0 0 0 0 0 0 0 0 0 0 0 0 0 0 0 0 0 0 0 0 0 5 5 67 5 5 5 5 5 6 5 5
0 0 0 0 0 0 0 0 0 0 0 0 0 0 0 0 0 0 0 0 0 0 0 0 0 0 0 0 0 0 0 0 0 0 4 19 4 5 5 5 5 69 85 5 4
0 0 0 0 0 0 0 0 0 0 0 0 0 0 0 0 0 0 0 0 0 0 0 0 0 0 0 0 0 0 0 0 0 0 0 1 4 0 0 0 33 82 11 5 0
2 0 0 0 0 0 0 0 0 0 0 0 0 0 0 0 0 0 0 0 0 0 0 0 0 0 0 0 0 0 0 0 0 0 0 0 4 0 0 0 44 100 64 5 3
5 5 2 0 0 0 0 0 0 0 0 0 0 0 0 0 0 0 0 0 0 0 0 0 0 0 0 0 0 0 0 0 0 0 0 0 0 0 0 0 24 100 100 45 5
3 3 0 0 0 0 0 0 0 0 0 0 0 0 0 0 0 0 0 0 0 0 0 0 0 0 0 0 0 0 0 0 0 0 0 0 0 0 0 0 6 73 100 12 5
0 1 0 0 0 0 0 0 0 0 0 0 0 0 0 0 0 0 0 0 0 0 0 0 0 0 0 0 0 0 0 0 0 0 0 0 0 0 0 0 86 67 87 86 7
0 0 0 0 0 0 0 0 0 0 0 0 0 1 0 0 0 0 0 0 0 0 0 0 0 0 0 0 1 0 0 0 0 0 0 0 0 0 0 0 63 95 90 92 97
0 0 0 0 0 0 0 3 0 5 2 0 0 5 5 5 5 16 5 5 0 0 0 0 0 0 0 0 0 4 0 4 0 0 0 0 0 0 0 0 3 99 24 43 100
4 0 0 0 1 5 3 5 5 5 5 5 5 5 5 42 54 6 5 5 5 0 0 0 2 0 0 0 0 0 5 5 0 0 0 0 0 0 0 0 10 48 27 5 47
0 0 5 2 37 58 42 5 8 11 43 5 5 5 5 28 17 73 72 19 5 5 1 0 1 0 0 2 2 0 0 5 5 1 0 0 0 0 0 0 50 92 63 63 32
0 5 5 29 67 71 13 66 100 86 32 36 18 75 73 98 99 99 52 70 81 99 56 3 4 0 0 0 0 0 0 0 0 5 0 0 0 0 0 0 3 5 5 7 32
5 6 24 100 100 100 100 100 100 100 45 69 90 97 100 81 100 100 100 100 98 100 100 88 5 3 0 0 0 0 0 0 0 0 5 0 0 0 0 0 0 0 5 5 5
14 76 99 96 100 100 100 100 100 100 83 84 90 95 85 26 39 35 15 48 78 83 95 100 54 4 0 0 5 0 0 0 0 0 0 5 0 0 0 0 0 0 3 5 5

GFSSW_prec_cloud_072.txt.gz
Cloud_Cover
0 0 0 0 0 0 0 0 0 0 0 0 22 26 27 0 7 0 0 0 0 0 0 0 0 0 0 1 5 5 46 86 76 52 91 75 95 100 70 86 22 5 61 32 59
0 0 0 0 0 0 6 2 10 0 0 4 16 23 69 0 0 0 0 0 0 0 0 0 0 0 0 0 5 6 31 100 67 94 76 22 91 90 100 100 92 5 4 70 62
0 0 0 0 0 0 18 4 0 0 0 14 22 27 1 10 0 0 0 0 0 0 0 0 0 0 0 0 5 55 95 5 17 53 68 43 64 5 19 26 6 3 5 52 45
0 0 0 0 0 2 11 4 2 0 0 28 4 4 0 0 0 0 0 0 0 0 0 0 0 0 0 0 3 21 19 95 74 9 100 98 20 6 15 57 3 1 5 0 18
0 0 0 0 0 0 6 2 0 0 0 15 17 0 2 0 0 0 0 0 0 0 0 0 0 0 0 0 2 5 5 5 5 5 51 100 30 67 26 4 0 0 0 0 18
0 0 0 0 0 2 0 0 0 0 0 28 15 0 0 0 0 0 0 0 0 0 0 0 0 0 0 0 0 5 5 1 4 5 5 40 9 5 5 5 0 0 2 5 6
0 0 0 0 3 0 0 0 0 0 0 1 0 0 0 0 0 0 0 0 0 0 0 0 0 0 0 0 0 0 5 0 0 2 5 10 4 5 63 5 5 0 5 26 5
0 0 0 0 0 0 0 0 0 0 0 0 0 0 0 0 0 0 0 0 0 0 0 0 0 0 0 0 0 0 0 0 0 0 0 2 76 5 18 5 35 2 5 34 32
0 0 0 0 0 0 0 0 0 0 0 0 0 0 0 0 0 0 0 0 0 0 0 0 0 0 0 0 0 0 0 0 2 0 0 1 86 5 5 4 0 0 1 13 38
0 0 0 0 0 0 0 1 0 0 0 0 0 0 0 0 0 0 0 0 0 0 0 0 0 0 0 0 0 0 0 0 0 0 0 11 100 5 5 2 1 0 1 3 8
0 0 0 0 0 0 3 0 0 0 0 0 0 0 0 0 0 0 0 0 0 0 0 0 0 0 0 0 0 0 0 0 0 5 0 2 98 5 31 5 5 3 0 0 1
0 0 0 0 0 0 0 0 0 0 0 0 0 0 0 0 0 0 0 0 0 0 0 0 0 0 0 0 0 0 0 0 0 0 0 2 46 100 5 10 5 4 4 0 2
0 0 0 0 0 0 0 0 0 0 0 0 0 0 0 0 0 0 0 0 0 0 0 0 0 0 0 0 0 0 0 0 0 0 0 2 64 100 30 5 5 5 13 15 4
0 0 0 11 9 0 0 0 0 0 0 0 0 0 0 0 0 0 0 0 0 0 0 0 0 0 0 0 0 0 0 0 0 0 1 0 5 10 40 5 5 5 5 5 1
0 0 0 53 0 0 0 0 0 0 0 0 0 0 0 0 0 0 0 0 0 0 0 0 0 0 0 0 0 0 0 0 0 0 0 67 18 85 74 43 5 5 5 5 5
0 0 12 28 0 0 0 0 0 0 0 0 0 0 0 0 0 0 0 0 0 0 0 0 0 0 0 0 0 0 0 0 0 0 0 1 4 4 100 16 5 5 5 5 5
0 0 12 5 4 0 0 0 0 0 0 0 0 0 0 0 0 0 0 0 0 0 0 0 0 0 0 0 0 0 0 0 0 0 0 0 0 5 57 69 3 5 5 5 5
0 33 0 0 0 0 0 0 0 0 0 0 0 0 0 0 0 0 0 0 0 0 0 2 0 0 0 0 0 0 0 0 0 0 0 0 0 0 5 6 3 5 3 5 5
17 0 0 0 0 0 0 0 0 0 0 0 0 0 0 0 0 0 0 0 0 0 0 0 0 0 0 0 0 2 0 0 0 0 0 0 0 0 0 0 0 0 0 16 5
0 0 0 0 0 0 0 0 0 0 0 0 0 0 0 0 0 0 0 0 0 0 0 0 0 0 0 0 0 0 13 14 0 1 0 0 0 0 0 0 0 0 0 96 5
0 0 0 0 0 0 2 1 4 1 0 0 1 1 4 4 2 1 2 3 0 0 0 0 0 0 0 0 0 0 0 24 32 6 0 1 0 0 0 0 0 0 0 84 21
0 2 0 0 0 0 3 5 2 5 5 5 5 5 5 25 5 5 60 51 2 0 0 0 0 0 0 1 0 1 15 3 93 21 2 5 4 0 0 0 0 0 0 88 96
0 0 0 0 4 3 4 5 5 5 5 5 24 5 12 8 5 86 32 44 5 0 12 5 0 0 0 0 0 0 4 5 94 88 86 17 4 2 0 0 0 0 1 79 96
0 4 5 3 5 5 5 5 6 8 8 5 6 13 66 98 99 97 97 100 5 27 5 2 0 3 0 0 0 0 0 0 1 68 55 61 100 5 1 0 0 0 0 78 12
1 5 5 5 5 7 18 22 54 74 30 6 73 52 88 86 99 100 74 100 96 89 21 81 93 41 1 0 0 0 0 0 0 1 56 85 98 12 68 0 0 0 0 93 93
3 25 86 100 59 60 9 34 85 97 89 100 100 100 17 95 86 99 100 100 100 100 100 100 87 93 78 0 0 0 0 0 0 0 0 1 38 58 30 0 0 0 0 12 100
34 64 64 77 92 74 60 68 82 92 92 58 100 74 79 89 91 86 75 38 66 100 100 99 97 100 83 6 2 0 0 0 0 0 0 0 1 0 4 0 0 0 1 55 59

GFSSW_prec_cloud_075.txt.gz
Cloud_Cover
0 0 0 0 0 0 6 6 10 10 0 6 13 5 0 1 0 0 0 0 0 0 0 0 0 0 0 0 4 5 88 26 81 99 86 46 58 3 100 92 54 59 86 12 47
0 0 0 0 0 1 14 4 2 6 0 6 27 18 0 0 0 0 0 0 0 0 0 0 0 0 0 0 4 7 37 100 90 52 100 6 86 100 64 60 29 13 74 15 38
0 0 0 0 0 0 2 9 0 0 0 0 15 27 0 0 0 0 0 0 0 0 0 0 0 0 0 0 0 5 15 95 100 25 6 90 40 100 64 51 14 5 14 16 13
0 0 0 0 6 10 9 0 0 0 0 0 10 0 0 0 0 0 0 0 0 0 0 0 0 0 0 0 1 5 81 51 19 57 32 77 100 72 85 100 65 0 25 12 16
0 0 0 0 5 8 7 0 0 0 0 0 13 0 11 0 0 0 0 0 0 0 0 0 0 0 0 0 0 5 56 5 98 100 82 45 100 100 85 81 4 0 16 19 34
0 0 0 0 14 7 0 0 0 0 0 1 2 0 0 0 0 0 0 0 0 0 0 0 0 0 0 0 0 4 5 21 28 100 82 32 95 73 90 2 0 0 2 27 24
0 0 0 0 2 0 0 0 0 0 0 0 0 0 0 0 0 0 0 0 0 0 0 0 0 0 0 0 0 0 0 0 4 5 66 5 100 48 66 5 2 1 12 59 96
0 0 0 0 0 0 0 0 0 0 0 0 1 0 0 0 0 0 0 0 0 0 0 0 0 0 0 0 0 0 0 0 0 0 0 2 30 96 1 3 5 0 0 63 100
0 0 0 0 0 0 0 0 0 0 0 0 0 0 0 0 0 0 0 0 0 0 0 0 0 0 0 0 0 0 0 0 0 0 1 0 70 98 86 9 5 0 0 66 100
0 0 0 0 0 0 0 10 2 30 4 0 0 0 0 0 0 0 0 0 0 0 0 0 0 0 0 0 0 0 0 0 0 4 4 38 44 100 100 77 18 0 2 11 57
0 0 0 0 0 0 9 0 0 0 0 0 0 0 0 0 0 0 0 0 0 0 0 0 0 0 0 0 0 0 0 0 0 18 5 35 80 4 88 0 57 12 0 0 41
0 0 0 0 0 1 3 0 0 0 0 0 0 0 0 0 0 0 0 0 0 0 0 0 0 0 0 0 0 0 0 0 0 0 13 64 30 100 74 0 0 0 0 0 36
0 0 0 0 7 0 0 0 0 0 0 0 0 0 0 0 0 0 0 0 0 0 0 0 0 0 0 0 0 0 0 0 0 0 2 67 84 100 42 100 55 20 0 1 5
0 0 0 16 9 0 0 0 0 0 0 0 0 0 0 0 0 0 0 0 0 0 0 0 0 0 0 0 0 0 0 0 0 0 1 5 48 40 81 100 35 4 55 8 5
0 0 0 45 0 0 0 0 0 0 0 0 0 0 0 0 0 0 0 0 0 0 0 0 0 0 0 0 0 0 0 0 0 0 0 5 4 5 17 3 91 17 96 56 5
0 0 13 0 0 0 0 0 0 0 0 0 0 0 0 0 0 0 0 0 0 0 0 1 0 0 0 0 0 0 0 0 0 0 0 0 5 1 96 93 6 78 94 23 5
0 0 22 0 0 0 0 0 0 5 0 0 0 0 0 0 0 0 0 0 0 0 0 0 1 0 0 0 0 0 0 0 0 0 0 0 0 25 63 36 35 78 41 37 5
0 40 0 0 0 0 0 0 0 0 0 0 0 0 0 0 0 0 0 0 0 0 0 4 2 0 1 0 0 0 0 0 0 0 0 0 0 0 21 99 61 100 45 28 49
17 0 0 0 0 0 0 2 3 0 0 0 0 0 0 0 0 0 0 0 0 0 0 0 23 100 41 3 0 2 0 0 0 0 0 0 0 0 0 84 3 100 100 48 96
0 0 0 0 0 0 0 9 1 0 0 0 0 1 3 5 0 1 1 1 0 0 0 0 0 15 93 84 54 88 64 2 3 1 1 4 0 0 0 0 5 16 100 35 81
0 2 0 0 0 1 36 14 2 0 0 0 5 5 5 5 27 5 8 49 4 1 0 0 0 0 36 90 84 10 5 96 75 5 5 23 33 5 0 0 4 5 3 5 8
0 56 0 0 4 2 5 5 0 5 3 5 0 0 5 6 10 6 66 100 6 4 4 4 0 0 0 0 4 1 66 56 100 74 6 90 85 94 42 1 5 5 5 5 5
1 1 0 0 69 5 3 2 4 5 5 5 5 4 6 6 58 66 83 98 84 10 3 5 5 1 0 0 0 23 4 29 18 100 99 56 39 100 17 2 5 17 59 46 77
4 16 2 0 0 5 5 5 5 4 5 5 4 4 3 23 43 13 48 47 29 22 12 4 3 23 4 35 32 18 0 87 100 98 86 100 100 100 97 100 92 84 28 12 5
2 2 0 4 4 4 5 3 9 80 5 7 42 13 40 71 98 100 97 94 79 96 46 57 98 63 79 33 4 0 4 87 100 98 100 100 100 100 100 99 6 0 1 2 0
5 5 32 27 12 5 5 39 23 21 25 18 19 5 59 16 6 42 100 100 100 75 99 100 84 88 100 6 78 0 0 0 5 2 5 17 100 92 100 100 100 27 0 0 0
100 100 100 100 100 100 10 61 91 74 53 30 7 2 3 1 2 5 51 91 87 100 100 64 92 100 89 100 56 77 2 0 0 0 0 2 6 33 100 100 100 31 0 0 0

GFSSW_prec_cloud_078.txt.gz
Cloud_Cover
0 0 0 0 2 10 14 11 18 1 4 14 0 9 1 0 0 0 0 0 0 0 0 0 0 0 0 4 2 43 66 100 89 100 100 100 100 100 89 99 100 70 5 5 26
0 0 0 0 8 15 14 13 7 7 0 1 8 4 29 18 0 0 0 0 0 0 0 0 0 0 0 0 1 20 92 100 100 100 100 100 100 100 40 86 99 100 43 12 17
0 0 0 0 1 22 19 16 1 0 0 0 0 8 22 2 0 0 0 0 0 0 0 0 0 0 0 0 0 36 5 67 100 100 100 100 100 100 55 56 100 100 96 55 47
0 0 0 0 0 8 8 4 0 0 0 0 0 16 1 0 0 0 0 0 0 0 0 0 0 0 0 0 0 11 10 100 100 100 100 98 94 96 2 6 99 100 100 39 90
0 0 0 0 0 3 2 0 0 1 20 0 0 12 6 0 0 0 0 0 0 0 0 0 0 0 0 0 0 0 10 97 100 100 99 100 27 100 100 70 44 100 60 46 6
0 0 0 0 0 0 0 0 0 2 0 0 2 1 0 0 0 0 0 0 0 0 0 0 0 0 0 0 0 0 11 90 100 100 99 70 12 100 100 16 0 4 21 22 27
0 0 0 0 0 0 0 0 0 0 0 0 0 0 0 0 0 0 0 0 0 0 0 0 0 0 0 0 0 0 0 20 18 81 95 63 43 9 23 38 0 13 24 3 90
0 0 0 0 0 0 0 0 0 0 0 0 1 0 0 0 0 0 0 0 0 0 0 0 0 0 0 0 0 0 0 0 5 18 30 53 86 39 88 100 40 16 29 67 73
0 0 0 0 0 0 0 0 0 0 0 0 0 0 0 0 0 0 0 0 0 0 0 0 0 0 0 0 0 0 0 0 0 0 1 2 77 100 86 100 100 67 76 65 13
0 0 0 0 0 0 0 0 0 0 0 0 0 0 0 0 0 0 0 0 0 0 0 0 0 0 0 0 0 0 0 0 0 0 0 2 75 66 100 100 100 99 44 96 80
0 0 0 0 0 0 6 0 0 0 0 0 0 0 0 0 0 0 0 0 0 0 0 0 0 0 0 0 0 0 0 0 0 0 2 2 100 32 28 100 100 100 99 80 90
0 0 0 0 0 4 8 0 0 0 0 0 0 0 0 0 0 0 0 0 0 0 0 0 0 0 0 0 0 0 0 0 0 0 0 85 56 4 69 100 100 100 100 98 52
0 0 0 0 6 4 0 0 0 0 0 0 0 0 0 0 0 0 0 0 0 0 0 0 0 0 0 0 0 0 0 0 0 0 0 87 99 54 100 100 100 100 40 30 97
0 0 0 8 4 0 0 0 0 0 0 0 0 0 0 0 0 0 0 0 0 0 0 0 0 0 0 0 0 0 0 0 0 0 0 0 4 11 94 100 100 83 100 63 20
0 0 0 28 0 0 0 0 0 0 6 0 0 0 0 0 0 0 0 0 0 0 0 0 0 0 0 0 0 0 0 0 0 0 0 0 4 75 96 100 46 100 92 100 0
0 0 1 0 0 0 0 0 0 0 0 0 0 0 0 0 0 0 0 0 0 0 0 0 0 0 0 0 0 0 0 0 0 0 0 0 0 4 18 5 97 100 100 86 17
0 0 15 0 0 0 0 0 0 0 0 0 0 0 0 0 0 0 0 0 0 0 0 0 0 0 0 0 0 0 0 0 0 0 0 0 0 0 92 99 100 100 34 0 4
0 24 0 0 0 0 0 1 0 99 59 0 3 0 0 0 0 0 0 0 0 0 0 3 4 0 0 0 0 0 0 0 0 0 0 0 0 0 0 26 100 4 4 47 3
0 0 0 0 0 0 0 6 44 0 0 0 0 0 0 0 0 0 0 0 0 0 0 0 0 80 96 7 0 0 23 0 2 0 0 0 0 0 1 61 81 100 100 21 100
0 0 4 0 0 0 0 28 3 0 0 0 0 2 26 65 0 2 3 2 0 0 0 0 0 1 82 100 53 3 9 25 3 5 0 0 0 0 0 2 74 20 84 100 100
0 4 0 0 0 0 68 54 5 0 0 0 2 9 3 4 5 4 6 54 3 0 0 0 0 0 3 94 100 99 1 97 96 4 2 3 2 5 1 0 0 5 28 100 100
0 99 0 0 10 31 51 0 0 0 0 3 0 5 5 6 56 5 20 49 0 5 4 0 0 0 0 1 99 100 99 100 100 28 4 46 6 100 100 19 0 0 5 100 92
1 1 0 1 98 38 2 0 1 5 2 4 7 2 15 5 4 17 26 72 5 5 4 3 0 2 0 0 0 4 84 100 100 63 86 33 0 100 10 100 35 0 8 100 100
0 72 3 0 0 5 9 11 13 28 60 14 4 5 4 2 6 1 2 2 0 0 0 0 0 4 5 11 9 5 6 77 100 98 16 14 2 100 56 100 68 55 30 83 85
5 5 5 4 5 5 4 4 5 77 11 3 5 5 3 59 37 77 51 47 14 23 4 5 5 5 5 5 97 1 4 6 100 71 99 99 89 100 28 100 46 99 7 3 87
100 100 100 100 100 100 100 100 99 24 26 2 3 0 1 6 43 0 3 4 80 92 100 18 5 9 5 10 9 69 0 0 0 6 8 91 92 100 100 65 65 85 20 5 5
5 17 75 100 100 62 95 94 52 3 1 1 0 2 74 62 0 2 5 5 7 38 16 40 64 79 5 25 100 85 50 3 0 0 5 4 27 100 82 100 100 100 93 98 2

GFSSW_prec_cloud_081.txt.gz
Cloud_Cover
0 0 0 0 0 3 13 18 8 10 24 12 14 3 15 6 0 0 0 0 0 0 0 0 0 0 2 0 0 35 100 84 100 100 100 100 100 100 100 100 100 100 100 65 1
0 0 0 0 0 5 14 17 11 8 8 23 14 7 24 3 1 0 0 0 0 0 0 0 0 0 0 0 50 33 62 100 100 100 100 100 100 100 100 96 100 100 69 91 4
0 0 0 0 0 1 14 8 12 1 0 14 26 22 13 0 0 0 0 0 0 0 0 0 0 0 0 0 0 0 4 33 100 100 100 100 100 100 100 100 100 59 13 7 5
0 0 0 0 0 0 3 2 0 0 6 23 24 12 0 0 0 0 0 0 0 0 0 0 0 0 0 0 0 0 1 97 100 100 100 100 100 100 100 100 100 100 100 7 5
0 0 0 0 0 0 1 0 0 0 26 20 3 2 0 0 0 0 0 0 0 0 0 0 0 0 0 0 0 0 3 96 97 84 100 100 99 100 100 100 100 100 74 0 0
0 0 4 0 0 0 0 0 0 0 0 0 0 0 1 0 0 0 0 0 0 0 0 0 0 0 0 0 0 0 2 100 99 100 95 100 99 55 97 100 100 100 12 0 0
0 0 0 6 0 0 0 0 0 0 0 0 0 0 0 0 0 0 0 0 0 0 0 0 0 0 0 0 0 0 0 7 97 89 100 100 100 84 26 100 100 100 88 88 0
0 0 1 0 0 0 0 0 0 0 0 0 1 0 0 0 0 0 0 0 0 0 0 0 0 0 0 0 0 0 0 0 5 74 100 52 100 80 59 99 100 95 97 100 98
3 1 4 0 0 2 1 0 0 0 0 0 0 0 0 0 0 0 0 0 0 0 0 0 0 0 0 0 0 0 0 0 0 5 93 33 92 15 86 98 97 100 100 100 100
0 1 0 0 0 0 3 0 0 0 0 0 0 0 0 0 0 0 0 0 0 0 0 0 0 0 0 0 0 0 0 0 0 0 0 6 5 4 8 95 62 100 94 84 100
0 0 0 0 0 0 3 0 0 0 0 0 0 0 0 0 0 0 0 0 0 0 0 0 0 0 0 0 0 0 0 0 0 0 0 0 1 0 3 1 5 100 100 100 94
0 0 0 0 0 2 25 0 0 0 0 0 0 0 0 0 0 0 0 0 0 0 0 0 0 0 0 0 0 0 0 0 0 0 0 0 0 1 14 26 71 100 100 100 100
0 0 0 0 3 1 0 0 0 0 0 0 0 0 0 0 0 0 0 0 0 0 0 0 0 0 0 0 0 0 0 0 0 0 0 0 0 5 39 0 96 100 100 100 100
0 0 0 8 0 0 0 0 0 0 0 0 0 0 0 0 0 0 0 0 0 0 0 0 0 0 0 0 0 0 0 0 0 0 0 0 0 4 94 33 100 100 100 100 100
0 0 0 12 0 0 0 0 0 0 0 0 0 0 0 0 0 0 0 0 0 0 0 0 0 0 0 0 0 0 0 0 0 0 0 0 0 0 2 100 100 100 100 100 100
0 0 4 0 0 0 0 0 0 1 0 0 0 0 0 0 0 0 0 0 0 0 0 0 0 0 0 0 0 0 0 0 0 0 0 0 0 0 13 100 71 100 100 100 100
0 0 46 0 0 0 0 3 5 59 0 0 0 0 0 0 0 0 0 0 0 0 0 0 0 0 0 0 0 0 0 0 0 0 0 0 0 0 4 100 42 100 100 100 100
0 0 0 0 0 0 0 4 87 35 43 28 0 0 0 0 0 0 0 0 0 0 0 0 0 0 0 0 0 0 0 0 0 0 0 0 0 0 0 93 100 98 26 51 100
0 0 0 0 0 0 0 4 79 66 96 92 3 0 2 0 0 0 0 0 0 0 0 0 0 0 0 0 3 0 0 0 0 0 0 0 0 0 0 2 100 100 100 92 100
0 0 0 0 0 0 0 83 1 0 0 2 4 0 66 94 2 0 12 1 0 0 0 0 0 0 0 0 1 0 0 3 0 0 0 0 0 0 0 0 57 100 100 99 70
2 1 0 0 0 1 61 92 5 0 0 0 0 0 15 5 5 3 84 0 0 0 0 0 0 0 0 0 0 15 10 58 93 32 0 0 0 0 66 0 2 0 96 96 91
0 0 0 0 0 68 6 13 5 0 0 0 0 0 0 0 0 4 1 0 0 0 0 0 0 0 0 0 34 54 9 56 100 70 68 12 0 41 22 15 0 0 75 50 100
0 2 0 1 36 9 2 0 0 0 0 0 0 0 0 0 0 0 3 1 0 0 0 0 0 0 0 0 0 86 16 99 100 52 5 5 1 1 99 88 10 11 100 81 78
2 5 5 5 3 5 4 5 4 3 29 17 5 4 0 2 3 3 1 5 2 0 0 0 0 0 0 0 0 0 35 100 57 98 47 5 0 99 98 100 100 4 1 18 100
1 5 93 100 79 52 98 70 5 5 4 4 3 22 12 10 8 5 1 0 0 0 0 0 0 0 0 0 0 0 0 64 100 18 46 36 72 68 83 64 93 14 36 63 99
0 0 0 0 98 100 100 100 48 92 86 100 73 2 0 5 1 0 0 0 0 0 5 5 0 0 0 0 0 0 0 0 1 99 7 84 100 5 26 97 100 65 24 78 24
0 0 4 2 0 0 0 1 12 3 3 51 39 24 6 4 0 0 0 0 0 0 0 1 4 0 0 0 1 0 0 0 0 0 100 100 100 77 43 7 100 48 87 78 7

GFSSW_prec_cloud_084.txt.gz
Cloud_Cover
0 0 0 2 0 0 9 17 9 24 8 12 18 22 20 1 4 3 0 0 0 0 0 0 0 0 1 1 0 4 53 81 100 100 100 100 100 100 100 100 100 100 100 100 96
0 0 0 4 6 4 12 7 10 5 18 12 22 27 12 4 18 0 0 0 0 0 0 0 0 0 0 4 0 50 3 3 100 100 100 100 100 100 100 100 100 100 100 100 85
0 0 0 1 7 0 1 8 7 0 0 78 65 25 0 0 15 0 0 0 0 0 0 0 0 0 0 0 1 92 15 86 5 100 100 100 100 100 100 100 100 100 100 79 100
0 0 0 0 0 3 0 1 2 0 20 100 99 3 0 0 0 0 0 0 0 0 0 0 0 0 0 0 0 0 100 100 97 100 100 100 100 100 100 100 100 100 99 38 100
0 0 5 2 2 1 1 0 2 0 15 41 0 0 0 0 0 0 0 0 0 0 0 0 0 0 0 0 0 0 0 2 86 100 100 100 100 100 100 100 100 100 100 100 100
0 3 12 11 6 4 8 6 0 0 0 6 0 0 0 0 0 0 0 0 0 0 0 0 0 0 0 0 0 0 0 5 100 100 91 100 100 100 98 100 94 100 88 100 100
15 9 10 8 8 0 3 3 0 0 0 0 0 0 0 0 0 0 0 0 0 0 0 0 0 0 0 0 0 0 0 4 39 33 29 100 100 100 100 100 100 100 55 100 100
1 0 1 4 0 0 1 0 0 0 0 0 0 0 0 0 0 0 0 0 0 0 0 0 0 0 0 0 0 0 0 0 5 82 67 87 100 100 100 100 76 16 45 99 100
0 0 0 0 0 5 1 0 0 0 0 0 0 0 0 0 0 0 0 0 0 0 0 0 0 0 0 0 0 0 0 0 3 6 86 67 100 100 100 97 100 99 99 73 100
0 0 0 0 0 0 1 0 0 0 0 0 0 0 0 0 0 0 0 0 0 0 0 0 0 0 0 0 0 0 0 0 0 96 12 48 63 24 11 11 80 63 96 100 100
0 0 0 0 0 0 13 0 0 0 0 0 0 0 0 0 0 0 0 0 0 0 0 0 0 0 0 0 0 0 0 0 0 2 5 3 45 5 5 0 3 89 65 100 100
0 0 0 0 1 4 54 0 0 0 0 0 0 0 0 0 0 0 0 0 0 0 0 0 0 0 0 0 0 0 0 0 0 0 0 0 32 35 0 0 3 2 92 41 22
0 0 0 0 2 0 0 0 0 0 0 0 0 0 0 0 0 0 0 0 0 0 0 0 0 0 0 0 0 0 0 0 0 0 0 0 100 100 22 0 2 4 98 100 100
0 0 0 28 0 0 0 0 0 0 0 0 0 0 0 0 0 0 0 0 0 0 0 0 0 0 0 0 0 0 0 0 0 0 0 0 1 38 97 34 3 5 100 100 100
0 0 0 0 0 0 0 0 0 0 0 0 0 0 0 0 0 0 0 0 0 0 0 0 0 0 0 0 0 0 0 0 0 0 0 0 0 0 23 22 0 28 100 100 100
0 0 19 0 0 0 0 0 0 0 0 0 0 0 0 0 0 0 0 0 0 0 0 0 0 0 0 0 0 0 0 0 0 0 0 0 0 0 0 0 0 2 100 94 100
0 0 64 0 0 0 0 0 0 0 0 0 0 0 0 0 0 0 0 0 0 0 0 0 0 0 0 0 0 0 0 0 0 0 0 0 0 0 0 0 0 0 100 95 100
1 1 0 0 0 0 0 0 0 0 2 0 0 0 0 0 0 0 0 0 0 0 0 0 0 0 0 0 0 0 0 0 0 0 0 0 0 0 0 0 0 1 100 84 94
0 0 0 0 0 0 0 0 0 0 4 56 95 96 0 0 0 0 0 0 0 0 0 0 0 0 0 0 0 0 0 0 0 0 0 0 0 0 0 0 0 0 100 100 94
0 0 0 0 0 2 0 0 1 5 86 85 100 87 5 5 0 0 0 0 0 0 0 0 0 0 0 0 0 0 0 0 0 0 0 0 0 0 0 0 0 1 99 100 99
0 0 0 0 0 0 5 0 0 0 0 1 1 24 6 5 0 3 0 0 0 0 0 0 0 0 0 0 0 2 0 0 0 0 0 0 0 0 0 0 0 3 100 100 100
0 0 0 0 0 0 4 1 0 0 0 0 0 0 0 2 5 14 3 0 0 0 0 0 0 0 0 0 0 0 5 1 0 2 24 4 0 0 0 0 0 0 41 22 100
0 0 4 5 1 4 0 4 5 0 0 0 0 0 0 0 0 5 0 0 0 0 0 0 0 0 0 0 0 0 9 8 0 0 62 94 3 0 0 1 97 40 3 3 99
0 0 0 23 79 42 5 5 0 5 4 5 2 1 0 0 0 0 0 0 0 0 0 0 0 0 0 0 0 0 8 83 4 5 1 58 8 2 29 5 66 100 100 30 82
0 0 0 0 0 3 85 53 91 39 3 3 0 4 5 3 0 0 0 0 0 0 0 0 0 0 0 0 0 0 0 4 5 60 4 65 85 5 7 7 43 74 100 100 100
0 0 0 0 0 0 0 0 2 5 88 75 5 5 3 0 1 5 0 0 0 0 0 0 0 0 0 0 0 0 0 0 0 20 100 84 71 5 1 76 5 75 100 100 87
0 0 0 0 0 0 0 0 0 0 0 0 2 25 79 56 23 2 0 0 0 0 0 0 0 0 0 0 0 0 0 0 4 0 2 83 27 3 72 12 5 67 99 100 100

GFSSW_prec_cloud_087.txt.gz
Cloud_Cover
0 3 0 6 10 4 0 4 7 4 1 14 16 16 31 22 5 14 0 0 0 0 0 0 0 0 0 1 6 32 70 100 51 100 100 100 100 100 100 100 100 65 100 100 96
0 0 4 2 13 10 0 4 3 7 7 15 77 47 30 30 26 0 0 0 0 0 0 0 0 0 0 1 46 10 4 100 40 99 100 100 100 100 100 100 100 100 100 99 65
4 0 10 6 13 12 9 4 4 10 14 100 100 99 19 16 28 0 0 0 0 0 0 0 0 0 0 4 5 5 70 100 100 99 100 100 100 100 100 100 100 100 100 98 97
0 7 8 7 8 10 3 7 7 6 13 100 99 5 0 0 0 0 0 0 0 0 0 0 0 0 0 0 0 4 63 84 100 100 100 100 100 100 100 100 100 100 100 86 100
2 14 19 20 13 3 4 12 9 14 8 40 35 0 8 0 0 0 0 0 0 0 0 0 0 0 0 0 0 2 4 100 100 100 100 100 100 100 100 100 100 100 36 25 100
92 10 27 24 19 1 6 5 14 11 1 2 25 0 0 0 0 0 0 0 0 0 0 0 0 0 0 0 0 2 4 66 100 100 100 100 100 100 100 100 100 99 5 88 80
55 15 33 3 2 10 9 11 9 2 2 1 16 6 0 0 0 0 0 0 0 0 0 0 0 0 0 0 0 0 85 5 92 100 100 60 100 100 100 100 100 100 77 86 43
44 14 14 7 3 9 16 20 8 0 0 0 0 0 0 0 0 0 0 0 0 0 0 0 0 0 0 0 0 0 0 0 2 5 35 9 100 100 100 100 100 100 92 13 7
20 15 0 4 6 25 30 17 0 0 0 0 2 0 0 0 0 0 0 0 0 0 0 0 0 0 0 0 0 0 0 0 0 27 23 60 98 100 99 100 100 100 100 66 98
0 1 12 20 30 37 38 0 0 0 0 0 0 0 0 0 0 0 0 0 0 0 0 0 0 0 0 0 0 0 0 0 0 21 7 86 82 100 100 99 100 100 100 19 87
0 3 13 9 22 43 34 0 0 0 0 0 0 0 0 0 0 0 0 0 0 0 0 0 0 0 0 0 0 0 0 0 4 5 3 2 5 34 100 100 100 100 93 79 99
4 0 2 10 6 3 28 0 0 0 0 0 0 0 0 0 0 0 0 0 0 0 0 0 0 0 0 0 0 0 0 0 5 5 0 0 0 0 2 93 100 100 96 37 5
1 0 0 2 1 0 0 0 0 0 0 0 0 0 0 0 0 0 0 0 0 0 0 0 0 0 0 0 0 0 0 0 4 5 2 0 2 2 0 0 7 12 8 5 5
0 10 14 56 0 0 0 0 0 0 0 0 0 0 0 0 0 0 0 0 0 0 0 0 0 0 0 0 0 0 0 0 0 0 0 0 0 0 0 0 0 4 0 18 70
21 76 59 36 0 0 0 0 0 0 0 0 0 0 0 0 0 0 0 0 0 0 0 0 0 0 0 0 0 0 0 0 0 0 0 0 0 0 0 0 0 3 5 99 99
54 74 98 0 0 0 0 0 0 0 1 0 0 1 0 0 0 0 0 0 0 0 0 0 0 0 0 0 0 0 0 0 0 0 0 0 0 0 34 0 0 0 5 42 97
34 49 92 0 0 0 0 0 0 2 0 0 0 0 0 0 0 0 0 0 0 0 0 0 0 0 0 0 0 0 0 0 0 0 0 0 0 0 0 0 0 0 1 40 86
2 13 4 1 0 0 0 0 0 0 5 4 0 0 0 0 0 0 0 0 0 0 0 0 0 0 0 0 0 0 0 0 0 0 0 0 0 0 0 0 0 0 0 13 57
0 0 0 0 0 0 0 0 0 0 3 100 83 5 0 0 0 0 0 0 0 0 0 0 0 0 0 0 0 0 0 0 0 0 0 0 0 0 0 0 0 0 0 0 100
0 0 0 0 0 0 0 0 0 0 0 29 100 100 30 1 0 0 0 0 0 0 0 0 0 0 0 0 0 0 0 0 0 0 0 0 0 15 35 20 13 35 0 0 100
0 0 0 0 0 0 0 0 0 3 15 18 20 99 100 98 9 4 0 1 4 5 2 1 0 0 0 0 0 0 0 0 0 0 0 0 1 0 100 92 51 25 48 0 34
0 0 0 0 0 2 4 4 0 0 0 0 0 0 8 95 23 5 5 0 0 0 0 5 5 0 0 0 0 0 0 0 0 0 0 0 0 0 46 98 0 0 0 1 1
3 0 0 2 5 3 9 22 0 0 1 0 0 0 0 0 1 5 3 0 0 0 0 0 0 4 0 0 0 0 0 0 0 0 0 0 1 0 0 10 0 0 6 16 5
0 0 0 0 0 3 8 5 5 3 0 0 0 0 0 0 0 0 0 1 5 19 21 0 0 0 0 0 0 0 0 0 0 4 0 2 6 46 72 95 15 3 96 99 94
0 0 0 0 0 0 0 4 18 5 2 0 5 0 0 0 0 0 0 0 0 1 2 0 0 0 0 0 0 0 0 0 0 0 3 0 84 100 100 100 99 43 57 100 100
0 0 0 0 0 0 0 0 0 0 5 5 5 0 0 0 0 0 0 0 0 0 0 0 0 0 1 2 0 0 0 0 0 0 2 5 9 99 100 68 14 40 45 100 100
3 0 0 0 0 0 0 0 0 0 0 0 0 0 0 0 1 0 0 0 0 0 0 0 0 0 0 0 0 0 0 0 0 0 0 14 65 36 100 24 10 1 12 80 100

GFSSW_prec_cloud_093.txt.gz
Cloud_Cover
40 29 52 5 2 2 13 4 1 32 15 14 28 96 99 100 37 30 0 0 0 0 0 0 0 0 0 7 0 1 100 100 79 100 100 77 100 100 100 100 100 100 73 19 97
98 77 56 19 6 17 14 12 11 1 6 19 32 100 95 100 8 0 0 0 0 0 0 0 0 0 0 0 2 0 97 100 100 72 97 84 99 100 100 100 100 100 74 5 100
71 61 84 12 2 4 10 10 12 12 29 53 81 100 9 67 0 0 0 0 0 0 0 0 0 0 0 0 0 3 1 100 100 59 100 99 96 100 100 100 100 100 33 4 53
5 3 43 3 9 3 9 10 15 9 43 26 100 92 0 12 0 0 0 0 0 0 0 0 0 0 0 0 0 0 0 2 100 100 100 100 98 100 100 100 100 100 71 2 10
12 12 3 13 12 8 39 13 23 14 8 36 99 38 6 0 0 0 0 0 0 0 0 0 0 0 0 0 0 53 1 2 99 85 100 100 100 100 97 97 100 86 6 4 10
97 100 100 98 48 41 100 66 34 19 19 8 91 2 1 0 0 0 0 0 0 0 0 0 0 0 0 0 0 7 0 1 6 100 100 100 100 97 100 100 93 62 38 2 19
100 100 100 100 51 97 100 100 100 34 24 18 100 3 0 0 0 0 0 0 0 0 0 0 0 0 0 0 0 0 0 0 3 73 99 92 100 100 100 100 100 30 5 5 6
100 100 97 100 100 100 98 100 100 62 13 16 97 0 0 0 0 0 0 0 0 0 0 0 0 0 0 0 0 0 0 4 5 5 92 100 100 100 100 100 66 33 31 5 5
100 37 100 100 100 100 96 5 11 12 3 61 6 0 0 0 0 0 0 0 0 0 0 0 0 0 0 0 0 0 0 1 4 81 34 100 100 100 100 100 100 88 12 5 5
1 24 94 100 100 100 26 6 15 2 8 24 0 0 0 0 0 0 0 0 0 0 0 0 0 0 0 0 0 0 0 2 5 59 67 100 100 100 100 100 95 100 20 6 5
28 61 100 100 100 100 4 0 0 0 0 0 0 0 0 0 0 0 0 0 0 0 0 0 0 0 0 0 0 0 0 0 3 45 97 100 100 100 100 100 100 100 98 5 5
28 100 100 100 100 15 0 0 0 0 0 0 0 0 0 0 0 0 0 0 0 0 0 0 0 0 0 0 0 0 0 0 0 4 34 100 100 100 100 100 100 95 96 38 7
100 100 100 100 16 0 0 0 0 0 0 0 0 0 0 0 0 0 0 0 0 0 0 0 0 0 0 0 0 0 0 0 0 0 5 89 96 100 92 69 43 54 64 38 24
100 100 96 99 0 0 0 0 0 0 0 0 0 1 0 0 0 0 0 0 0 0 0 0 0 0 0 0 0 0 0 0 0 0 1 28 81 91 47 44 95 99 87 92 53
100 100 97 94 0 0 0 0 0 0 0 0 2 4 0 0 0 0 0 0 0 0 0 0 0 0 0 0 0 0 0 0 0 0 0 11 58 7 56 93 65 53 68 91 100
100 100 80 30 0 0 0 0 0 0 4 0 0 4 4 0 0 0 0 0 0 0 0 0 0 0 0 0 0 0 0 0 0 0 0 0 4 0 2 12 5 4 5 5 35
71 34 39 0 0 0 0 0 0 0 0 2 0 36 10 4 0 0 0 0 0 0 0 0 0 0 0 0 0 0 0 0 0 0 0 0 0 27 62 73 99 27 2 5 11
7 93 30 0 0 0 0 0 0 0 0 5 5 5 64 97 28 4 2 1 2 0 0 0 0 0 0 0 0 0 0 0 0 0 0 0 0 89 24 56 62 61 46 7 70
0 16 2 0 0 0 0 0 0 0 3 100 100 100 5 76 100 100 25 5 2 0 0 0 0 0 0 0 0 0 0 0 0 0 0 0 0 0 0 1 36 100 100 100 73
2 5 7 0 0 0 0 0 0 1 89 100 100 100 100 99 100 100 100 100 96 12 0 0 0 0 0 0 0 0 0 0 0 0 0 0 0 45 50 31 41 94 100 100 99
8 22 0 0 0 0 0 0 0 0 13 80 100 100 100 100 100 100 100 100 100 100 59 3 0 0 0 0 0 0 0 0 0 0 0 0 16 100 100 100 100 100 100 100 100
5 5 0 0 0 0 0 0 5 1 0 0 27 100 68 100 100 100 100 100 100 100 98 5 3 0 0 0 0 0 0 0 0 0 0 0 17 100 100 100 100 100 100 100 100
56 0 0 0 0 0 0 0 1 96 14 0 0 9 99 100 94 100 100 100 100 100 100 63 5 4 0 0 0 0 0 0 0 0 0 0 1 100 100 100 100 100 100 100 100
14 4 0 0 0 0 0 0 0 0 49 61 0 0 0 11 98 100 100 100 100 100 100 87 32 5 3 0 0 0 0 0 0 0 0 0 62 100 100 100 100 100 95 87 96
13 5 2 0 0 0 0 0 0 0 0 1 20 4 0 0 0 5 95 100 100 100 82 53 5 5 5 2 0 0 0 0 0 0 0 0 79 100 100 100 100 99 69 98 63
58 36 5 0 0 0 0 0 0 0 0 0 0 0 4 0 0 0 0 3 99 62 6 6 5 5 5 5 5 0 0 0 0 0 0 46 99 100 100 100 16 34 96 98 34
32 47 5 0 0 0 0 0 0 0 0 0 0 0 0 0 0 0 0 0 0 0 32 82 10 5 2 4 5 5 1 0 0 0 0 0 62 100 63 77 79 0 0 0 51

GFSSW_prec_cloud_096.txt.gz
Cloud_Cover
47 98 79 14 18 17 19 12 5 11 19 19 21 30 96 54 2 0 0 0 0 0 0 4 0 0 0 0 6 11 87 100 100 100 85 48 77 88 92 100 100 100 100 65 100
10 12 16 14 12 15 16 12 15 4 18 9 90 73 32 17 0 0 0 0 0 0 0 0 2 0 0 0 1 44 100 100 100 99 99 49 83 96 98 100 100 100 82 24 91
14 2 8 9 12 13 27 40 11 34 16 24 56 97 4 9 0 0 0 0 0 0 0 0 0 0 0 0 0 10 99 44 100 100 30 92 99 100 89 100 100 100 72 5 6
69 100 33 17 2 9 12 25 21 98 16 23 6 83 0 0 0 0 0 0 0 0 0 0 0 0 0 0 0 28 4 13 100 100 82 100 98 100 100 100 100 85 23 5 6
100 100 98 100 100 45 28 100 85 29 19 26 0 21 17 0 0 0 0 0 0 0 0 0 0 0 0 0 0 0 0 5 75 100 100 100 98 100 100 99 99 100 30 5 0
100 100 100 100 55 100 100 100 100 100 11 25 0 2 0 0 0 0 0 0 0 0 0 0 0 0 0 0 27 0 0 4 5 60 100 100 100 100 100 100 100 11 3 5 0
100 100 100 100 100 100 100 100 88 40 13 20 0 1 0 0 0 0 0 0 0 0 0 0 0 0 0 0 0 0 0 3 5 27 100 100 100 100 100 99 99 5 5 4 0
100 100 100 100 100 100 100 94 100 100 14 9 2 0 0 0 0 0 0 0 0 0 0 0 0 0 0 0 0 0 0 11 3 26 14 100 100 100 100 100 92 10 5 5 4
34 80 100 100 100 100 80 15 6 40 2 14 3 0 0 0 0 0 0 0 0 0 0 0 0 0 0 0 0 0 4 3 4 16 55 87 100 100 100 100 100 46 7 5 1
93 100 100 100 100 95 7 18 35 14 1 0 0 0 0 0 0 0 0 0 0 0 0 0 0 0 0 0 0 2 18 0 3 23 69 87 100 100 100 100 100 100 87 40 3
100 100 100 100 100 88 23 5 0 0 0 0 0 0 0 0 0 0 0 0 0 0 0 0 0 0 0 0 4 5 5 4 5 31 68 100 100 100 100 100 98 90 100 100 42
100 100 100 100 99 4 87 3 0 0 0 0 0 0 0 0 0 0 0 0 0 0 0 0 0 0 0 0 0 0 0 2 4 11 79 100 99 100 65 100 100 86 100 100 100
100 95 100 100 9 30 5 0 0 0 0 0 0 0 0 0 0 0 0 0 0 0 0 0 0 0 0 0 0 0 4 1 3 6 89 100 99 84 82 93 100 100 100 100 100
97 100 86 5 47 0 0 0 0 0 0 0 0 2 0 0 0 0 0 0 0 0 0 0 0 0 0 0 0 0 2 2 0 2 61 83 100 99 88 96 99 99 100 100 100
65 73 100 37 0 2 0 0 0 0 36 0 0 0 0 0 0 0 0 0 0 0 0 0 0 0 0 0 0 35 0 0 0 0 0 48 100 100 70 97 89 69 74 96 98
88 55 73 50 9 0 0 0 0 0 2 0 0 0 4 2 2 0 0 0 19 0 0 0 0 0 0 0 0 1 0 0 0 0 0 15 92 5 55 98 99 100 84 100 26
47 5 42 6 0 0 0 0 0 25 0 1 5 5 5 4 5 5 0 0 1 4 0 0 0 0 0 1 0 0 0 0 0 0 0 0 77 64 79 80 72 94 73 32 19
34 22 1 0 0 0 0 0 46 0 0 1 100 86 68 99 5 95 32 4 0 2 5 0 0 0 0 0 0 0 0 0 0 0 0 0 7 72 20 34 65 100 100 90 90
32 0 0 0 0 0 0 5 0 0 0 47 100 100 100 100 100 100 98 18 0 0 60 5 0 0 0 0 0 0 0 2 4 5 2 0 1 21 37 37 28 100 100 100 99
0 0 0 0 0 0 0 0 0 1 5 24 100 100 100 77 100 100 100 100 91 2 0 0 3 0 0 0 0 0 0 0 0 2 1 1 0 23 72 83 100 100 100 100 100
0 0 0 0 0 0 3 0 0 4 4 100 100 100 100 100 98 100 100 100 100 100 23 0 1 0 0 0 0 0 0 0 0 0 0 5 15 91 84 100 100 100 100 100 100
2 0 0 5 0 0 0 0 5 5 4 34 100 100 100 100 97 41 77 100 100 100 100 69 3 4 0 0 0 0 0 0 0 2 0 23 83 98 55 98 100 100 100 100 100
5 0 0 1 0 0 0 0 2 5 5 0 8 100 100 100 100 100 10 42 100 100 86 100 54 2 0 0 0 0 0 0 0 0 5 1 67 100 74 74 100 100 100 100 100
5 5 1 0 0 0 0 0 0 1 5 5 0 0 88 100 100 100 99 89 34 98 100 75 84 90 39 2 0 0 0 0 0 2 5 4 78 100 99 92 83 100 100 100 100
5 25 12 0 0 0 0 0 0 0 0 5 0 0 0 14 100 100 96 94 84 30 31 54 36 20 20 5 0 0 0 0 0 0 2 67 34 100 100 98 97 94 86 90 86
44 60 93 0 0 0 0 0 0 0 0 0 0 0 0 0 0 3 100 100 100 90 6 5 5 59 79 4 4 0 0 0 0 0 0 19 100 100 98 93 95 54 64 43 16
96 100 100 5 0 0 0 0 0 0 0 0 0 0 0 0 0 0 0 0 9 55 93 40 4 5 54 90 87 12 5 3 0 0 0 13 8 99 71 100 64 45 2 4 0

GFSSW_prec_cloud_102.txt.gz
Cloud_Cover
48 38 8 6 10 11 8 0 8 18 7 4 8 0 0 0 0 0 0 0 0 0 0 0 0 0 0 5 45 95 100 81 75 65 99 62 100 97 100 100 100 100 100 87 16
100 100 100 29 68 13 3 9 9 18 17 7 5 0 0 0 0 0 0 0 0 0 0 0 0 0 0 5 76 91 100 100 37 99 100 98 100 100 100 100 100 100 100 88 59
100 100 100 100 100 100 64 46 6 15 23 1 0 0 0 0 0 0 0 0 0 0 0 0 0 0 0 0 41 100 100 92 50 100 100 100 93 100 100 100 100 100 100 61 5
100 100 100 100 100 100 100 97 49 28 12 22 0 0 0 0 0 0 0 0 0 0 0 0 0 0 0 0 26 99 100 89 3 96 100 100 67 92 100 100 100 100 84 25 0
100 100 100 100 100 100 100 93 63 54 15 20 0 0 0 0 0 0 0 0 0 0 2 4 0 0 0 0 15 26 33 57 1 39 100 100 100 100 100 100 100 100 100 13 1
100 100 100 100 100 100 100 100 100 98 20 10 0 0 0 0 0 0 0 0 0 0 0 5 2 0 0 0 1 57 100 19 20 65 100 100 100 100 100 100 100 100 49 4 4
87 100 100 100 100 100 100 77 99 100 18 0 2 0 0 0 0 0 0 0 0 0 0 0 4 0 0 0 11 38 100 14 79 98 100 100 100 100 100 100 100 99 24 4 5
100 100 100 100 100 100 78 26 84 94 55 10 3 0 0 0 0 0 0 0 0 0 0 0 0 0 0 0 1 86 93 96 30 45 83 100 100 100 100 100 100 87 13 5 5
100 100 96 100 100 100 37 0 54 2 12 5 0 0 0 0 0 0 0 0 0 0 0 0 0 0 0 0 0 34 49 78 94 5 12 100 100 100 100 100 100 34 25 29 66
100 88 10 88 99 65 100 5 4 37 0 0 0 0 0 0 0 0 0 0 0 0 0 0 0 0 0 0 0 2 16 68 24 100 3 32 100 100 100 100 100 100 28 86 98
87 66 3 14 5 96 99 95 8 0 0 0 0 0 0 0 0 0 0 0 0 0 0 0 0 0 0 0 0 58 68 100 85 100 2 0 30 100 100 100 100 92 100 100 76
100 3 0 5 5 14 91 43 96 5 0 0 0 0 0 0 0 0 0 0 0 0 0 0 0 0 0 0 0 92 100 43 68 88 3 0 61 100 100 100 100 100 100 98 94
100 90 1 0 10 46 12 100 100 59 5 0 0 0 0 0 0 0 0 0 0 0 0 0 0 0 0 0 1 5 98 8 86 65 0 20 95 100 100 100 100 100 100 96 100
46 84 31 1 16 3 13 77 100 100 94 5 0 0 0 0 0 0 0 0 0 0 0 0 0 0 0 0 0 0 8 98 100 5 4 0 100 100 100 100 100 100 100 100 31
0 6 2 82 0 0 2 4 5 6 58 6 5 0 0 0 0 0 0 0 2 0 0 0 0 0 0 0 0 4 100 100 100 25 5 52 100 100 70 100 100 100 100 100 72
3 2 34 16 0 0 0 0 0 0 95 8 0 0 0 0 62 1 0 0 3 10 0 0 0 0 0 4 4 4 29 88 16 7 67 5 3 38 100 99 76 100 100 99 6
0 5 61 0 0 0 0 0 0 47 40 97 58 0 0 2 91 17 0 0 1 1 1 0 2 2 0 4 4 19 10 93 87 5 5 66 3 4 100 100 97 100 59 81 80
5 76 7 4 0 0 0 14 100 92 28 65 62 12 0 80 100 4 7 5 4 5 31 0 7 5 4 5 37 5 50 86 26 20 4 100 39 91 28 100 96 98 99 100 100
24 7 100 78 0 0 1 100 100 100 86 100 60 31 100 35 99 16 100 100 100 90 68 65 58 15 48 27 41 21 5 12 94 4 52 71 19 31 100 97 100 100 100 44 85
5 9 100 21 1 0 17 75 99 0 59 66 98 84 7 84 100 100 100 66 100 87 5 94 57 93 0 2 15 71 66 0 58 88 100 12 0 12 28 31 100 100 100 34 10
71 29 94 16 0 68 100 94 5 0 0 48 42 90 99 100 100 100 100 100 100 98 97 100 32 100 4 0 0 2 1 5 76 86 100 98 14 98 42 24 70 100 82 68 47
100 97 77 28 24 100 100 100 0 0 0 28 99 92 83 100 100 100 100 93 100 100 100 100 98 100 5 0 0 0 4 1 5 5 100 72 99 99 46 100 75 100 87 100 78
100 100 98 74 100 100 65 0 0 0 0 7 100 100 74 100 92 95 88 97 98 100 100 100 54 100 55 0 0 0 0 6 14 24 98 100 41 90 100 93 75 78 87 18 61
100 100 100 73 97 98 55 0 0 0 0 0 47 37 99 100 100 100 100 19 88 94 100 100 100 99 100 89 12 0 0 0 5 21 92 100 91 91 88 88 100 92 52 56 75
100 100 100 100 100 100 5 1 0 0 0 0 0 0 86 100 100 100 27 76 100 91 83 100 100 100 58 93 2 1 0 1 0 0 100 100 77 97 100 100 100 63 74 72 53
100 100 100 100 100 70 26 5 0 0 0 0 0 0 0 27 87 98 100 56 14 97 100 100 100 100 83 56 31 0 5 5 0 0 92 0 83 65 81 100 100 100 100 48 20
100 100 100 100 100 19 100 41 2 0 0 0 0 0 0 3 0 18 93 85 74 66 100 90 100 100 100 100 97 32 2 4 0 0 80 0 1 2 92 99 100 100 100 75 0

GFSSW_prec_cloud_105.txt.gz
Cloud_Cover
100 100 100 100 100 97 25 21 16 25 18 9 6 11 0 0 0 0 0 0 0 0 0 0 0 0 0 91 100 100 100 100 100 90 100 100 85 100 98 95 38 100 100 74 25
100 100 100 100 100 100 100 86 30 24 24 13 6 12 4 0 0 0 0 0 0 0 0 0 0 0 0 36 62 100 100 100 61 95 68 100 72 40 90 100 100 100 99 41 5
100 100 100 100 100 100 100 100 65 48 25 49 24 0 0 0 0 0 0 0 0 0 0 0 0 0 0 1 29 92 100 100 100 100 91 100 100 100 75 98 71 100 74 96 12
100 100 100 99 100 100 100 100 100 96 37 15 20 5 0 0 0 0 0 0 0 0 0 0 0 0 0 0 71 81 94 100 100 100 98 100 100 100 32 100 93 93 100 69 36
100 100 100 100 100 100 100 100 100 100 94 4 17 2 0 0 0 0 0 0 0 0 0 0 0 0 0 4 48 97 98 95 100 42 100 100 100 100 67 97 100 81 100 83 16
100 100 100 100 100 100 100 100 100 100 100 27 16 6 0 0 0 0 0 0 0 0 0 0 3 0 0 0 14 100 84 100 69 4 28 96 99 52 75 100 100 100 99 40 17
100 100 100 100 100 100 100 100 100 100 100 32 0 0 0 0 0 0 0 0 0 0 0 0 1 0 0 0 9 98 54 63 2 2 59 98 100 100 100 79 100 100 94 5 15
100 100 100 100 100 100 97 9 49 100 100 27 0 0 0 0 0 0 0 0 0 0 0 0 0 0 0 0 1 11 41 100 44 0 5 35 100 100 100 96 100 100 66 30 93
100 100 100 71 27 2 0 0 1 45 20 6 0 0 0 0 0 0 0 0 0 0 0 0 0 0 0 0 0 5 92 37 38 57 5 5 100 100 100 100 100 100 4 96 100
100 100 95 0 0 0 1 0 0 36 17 0 0 0 0 0 0 0 0 0 0 0 0 0 0 0 0 0 0 0 0 6 58 22 1 6 97 100 99 100 100 100 74 97 100
100 99 67 0 0 0 0 0 0 1 100 0 0 0 0 0 0 0 0 0 0 0 0 0 0 0 0 0 0 0 7 90 100 41 6 54 13 95 88 63 100 100 100 84 100
100 100 100 5 0 2 46 0 1 1 90 7 0 0 0 0 0 0 0 0 0 0 0 0 0 0 0 0 0 2 100 44 90 100 100 100 25 83 98 100 100 100 100 96 78
67 57 100 3 21 44 0 5 5 2 3 90 5 1 0 0 0 0 0 0 0 0 0 0 0 0 0 0 1 4 91 12 100 92 100 100 76 77 98 100 100 100 100 100 100
28 29 4 43 15 0 0 0 5 100 96 49 6 62 1 0 0 0 0 0 0 0 0 0 0 0 0 0 1 5 73 31 94 69 100 100 25 24 100 100 100 100 100 100 100
3 12 7 79 5 5 0 0 0 85 96 100 92 91 100 13 2 0 0 0 0 0 0 0 0 0 0 0 1 5 29 82 29 49 100 100 18 4 91 100 100 100 100 100 100
1 0 48 6 14 5 1 0 0 0 19 93 100 100 100 17 6 4 0 0 0 0 0 0 0 0 0 0 1 47 100 34 23 36 89 100 4 84 76 64 100 100 100 100 100
0 6 86 5 62 83 2 0 0 2 6 99 63 39 73 61 5 31 0 0 0 0 0 0 0 0 0 0 0 29 100 100 97 39 100 94 5 94 97 70 100 100 100 100 100
4 64 6 21 96 100 4 1 3 3 63 1 100 34 2 5 7 93 0 0 0 0 25 0 0 0 0 0 0 64 99 64 28 62 100 94 94 61 95 99 100 100 100 100 100
5 5 28 100 100 100 4 7 100 16 96 52 10 100 2 88 13 94 4 0 9 9 46 26 9 4 0 0 0 74 17 39 64 97 96 2 99 100 100 100 100 100 100 100 100
89 59 50 100 100 100 65 29 73 64 100 100 62 73 100 3 2 100 91 18 100 79 89 94 0 25 94 11 2 0 4 86 27 2 90 5 40 72 99 100 98 100 100 100 100
100 100 98 100 100 24 47 37 37 42 18 5 2 80 99 5 42 100 75 92 66 29 66 34 46 14 99 23 0 3 0 4 5 5 4 58 75 6 41 100 100 100 100 100 100
100 100 100 100 100 88 99 44 97 2 0 0 5 100 96 36 100 100 29 100 96 100 100 3 64 6 5 94 1 5 4 0 0 5 77 100 93 100 54 12 99 100 100 100 100
100 100 100 100 100 100 100 100 50 0 0 22 2 42 14 100 100 100 98 97 69 32 18 34 100 98 100 6 0 0 86 6 0 62 100 100 81 100 100 100 97 100 100 100 100
100 100 100 100 100 100 100 92 11 2 0 0 6 100 72 98 100 100 100 36 100 75 100 100 75 100 86 37 3 0 0 87 0 57 100 86 90 100 100 100 100 98 100 100 100
100 100 100 100 100 100 100 1 100 3 0 0 0 29 87 100 72 94 83 7 100 29 100 100 100 100 100 89 5 0 0 2 2 24 99 6 7 52 100 100 100 100 94 85 100
100 100 100 100 100 100 65 5 100 10 0 0 0 0 0 59 13 100 28 100 6 100 100 98 100 100 100 39 15 4 0 0 0 4 87 0 24 56 57 75 67 89 98 100 100
98 100 100 100 100 100 80 99 47 98 0 0 0 0 0 0 100 100 100 78 7 100 87 100 100 100 96 89 9 5 1 0 2 100 0 0 0 4 9 79 48 91 100 91 74

GFSSW_prec_cloud_108.txt.gz
Cloud_Cover
100 100 100 100 100 100 93 86 62 65 99 80 12 15 9 0 0 0 0 0 0 0 0 0 0 1 1 100 100 99 100 100 100 98 100 98 90 100 100 100 100 42 100 100 0
100 100 100 100 100 100 100 100 100 95 65 100 20 12 6 2 17 0 0 0 0 0 0 0 0 0 4 98 100 100 92 100 100 51 91 100 100 69 100 100 100 67 100 24 16
100 100 100 100 100 100 100 100 100 100 100 100 24 13 25 0 9 0 0 0 0 0 0 0 0 0 2 17 100 100 92 92 100 100 82 65 100 100 100 100 100 63 100 41 7
100 100 100 100 100 100 100 100 100 100 100 100 35 18 0 9 0 0 0 0 0 0 0 0 0 0 0 0 4 5 94 97 99 100 100 100 85 100 100 99 94 99 40 37 97
100 100 100 100 100 100 100 100 100 100 100 100 28 22 0 0 0 0 0 0 0 5 0 0 4 5 2 0 1 26 10 100 95 100 91 100 98 100 100 100 100 96 57 96 53
100 100 100 100 100 100 100 100 100 100 100 100 45 20 0 0 0 0 0 0 0 0 0 3 5 9 5 0 0 1 5 100 100 99 68 75 96 100 100 100 100 100 49 99 25
100 100 100 100 100 100 100 100 100 100 100 100 39 12 0 0 0 0 0 0 0 0 4 5 5 5 5 1 0 0 3 100 95 69 36 14 93 100 100 97 100 100 100 34 96
100 100 100 100 100 100 83 6 21 100 100 100 17 0 0 0 0 0 0 0 0 0 0 0 2 2 1 4 0 0 0 58 100 100 100 100 62 78 100 100 100 100 100 86 18
100 100 100 100 22 1 0 0 11 99 43 19 0 0 0 0 0 0 0 0 0 0 0 0 0 0 4 0 0 0 0 5 74 99 92 90 24 97 82 100 100 100 93 100 96
100 100 100 100 4 0 0 0 0 0 1 0 0 0 0 0 0 0 0 0 0 0 0 0 0 0 0 0 0 0 27 91 97 100 100 9 7 8 42 100 100 100 100 100 85
100 100 100 100 26 0 1 0 0 0 0 0 0 0 0 0 0 0 0 0 0 0 0 0 0 0 4 5 5 9 85 8 60 96 100 64 14 21 99 100 100 100 100 100 93
98 100 100 100 28 36 30 0 0 4 3 2 0 0 2 0 0 0 0 0 0 0 0 0 0 0 0 5 5 5 16 15 19 20 84 91 30 45 100 93 100 100 100 100 100
31 100 100 58 83 46 4 1 0 5 5 5 0 0 38 0 0 0 0 0 0 0 0 0 0 0 0 0 2 5 5 5 5 94 98 100 100 56 95 97 100 100 100 100 100
11 25 11 86 17 0 5 5 0 2 1 0 0 4 46 50 0 0 0 0 0 0 0 0 0 0 0 0 0 0 6 74 38 5 100 100 23 100 32 48 99 100 100 100 100
0 3 5 96 3 0 4 68 2 0 3 4 2 5 5 5 2 0 0 0 0 0 0 0 0 0 0 0 0 5 97 87 83 30 100 100 66 93 5 77 100 100 100 100 100
5 0 67 10 16 4 5 100 69 0 0 26 100 64 11 5 5 2 0 0 0 0 0 0 0 0 0 0 1 87 100 78 31 60 100 100 23 100 10 98 100 100 100 99 100
5 5 86 5 5 33 33 100 68 0 2 9 44 100 100 56 48 47 3 0 0 0 0 0 0 0 0 0 17 10 98 21 10 3 58 21 96 100 48 12 97 100 100 100 100
99 88 25 44 79 29 100 100 8 0 5 2 0 1 99 100 26 100 15 0 5 0 0 0 0 0 0 0 2 5 90 99 2 5 39 24 99 99 32 12 64 83 100 100 100
100 99 92 100 100 77 100 100 27 0 2 2 0 1 2 2 88 100 92 5 14 7 0 0 0 0 0 0 1 93 100 22 5 62 94 19 100 100 67 10 55 99 100 100 100
94 61 100 100 100 100 100 84 5 5 94 100 66 2 4 3 14 94 72 24 19 63 16 4 0 0 0 0 0 3 48 47 43 99 100 28 66 100 100 66 89 95 100 100 100
68 72 100 100 100 100 100 63 5 14 32 44 77 19 3 0 5 100 81 4 5 27 81 23 0 0 0 2 0 0 2 97 81 91 100 96 98 100 100 74 100 100 100 100 100
100 100 100 100 100 100 100 90 41 97 100 5 0 6 5 8 22 85 5 5 5 64 5 4 2 3 5 9 0 4 0 84 100 100 100 84 97 100 100 99 100 100 100 100 100
100 100 97 100 100 100 72 81 100 92 44 23 0 0 10 90 72 2 3 100 100 18 87 9 5 24 5 30 18 1 5 8 83 100 85 58 92 100 84 31 86 100 100 100 100
100 100 100 98 100 100 59 68 99 5 37 1 0 5 67 77 49 50 98 100 100 100 71 58 4 62 34 5 20 28 72 29 99 53 100 68 100 100 100 100 72 95 100 100 100
100 100 100 94 100 96 100 100 34 5 3 13 0 5 19 1 100 99 100 100 79 100 70 44 4 65 86 17 2 39 3 5 100 42 98 65 46 93 100 82 98 100 100 100 100
92 100 100 13 93 100 70 100 100 5 5 5 0 0 0 6 100 47 85 100 100 94 5 63 70 100 86 100 26 5 0 0 40 89 5 27 100 61 100 100 98 100 100 100 100
100 100 84 75 100 88 94 100 34 60 7 29 2 0 0 0 0 35 83 100 78 68 100 75 94 100 65 100 100 99 13 11 59 6 77 24 14 81 100 100 98 100 100 100 100

GFSSW_prec_cloud_111.txt.gz
Cloud_Cover
100 100 100 100 100 100 100 100 100 100 100 80 93 15 17 15 0 8 0 0 0 0 0 0 0 0 100 100 100 100 100 100 100 95 100 100 92 100 76 84 100 78 25 5 99
100 100 100 100 100 100 100 100 100 100 100 100 100 35 16 19 29 0 0 0 0 0 0 3 0 0 33 100 100 100 100 100 100 100 100 100 99 100 100 100 77 78 20 27 94
100 100 100 100 100 100 100 100 100 100 100 100 100 72 16 19 0 0 0 0 0 0 0 0 0 0 0 4 100 100 100 100 100 100 100 100 100 100 100 99 86 84 17 58 99
100 100 100 100 100 100 100 100 100 100 100 100 100 33 22 21 0 0 0 0 0 5 0 0 0 0 0 2 24 100 100 100 79 100 100 100 100 99 100 100 99 58 91 71 34
100 100 100 100 100 100 100 100 100 100 100 100 100 21 4 0 0 0 0 0 0 4 1 5 5 5 5 0 0 90 100 100 100 100 100 100 100 100 100 100 100 92 78 81 12
100 96 100 100 100 100 100 100 100 100 100 100 97 18 2 0 0 0 0 0 0 5 5 17 12 75 5 4 0 17 100 86 100 100 90 100 100 100 99 100 100 24 44 100 75
100 100 100 100 100 100 100 100 100 100 100 100 28 1 0 0 0 0 0 0 0 0 41 36 5 86 5 5 0 0 3 5 100 100 100 100 78 88 100 100 100 100 45 100 56
100 99 98 100 100 100 96 10 47 100 100 90 35 0 0 0 0 0 0 0 0 0 5 4 5 5 5 3 0 0 14 49 100 100 100 97 48 75 96 95 100 100 100 100 13
97 100 96 96 100 86 0 9 35 100 100 25 1 0 0 0 0 0 0 0 0 0 0 0 5 5 5 4 0 0 1 30 62 100 84 96 17 44 100 96 100 100 100 83 100
100 100 100 100 100 71 0 4 0 11 1 5 0 0 0 0 0 0 0 0 0 0 0 0 2 2 5 5 5 0 0 2 34 98 100 100 88 18 8 100 100 100 100 89 99
100 100 100 100 100 60 5 0 0 0 0 3 0 0 0 0 0 0 0 0 0 0 0 0 0 1 95 5 6 5 2 3 5 100 100 100 100 100 38 100 100 100 100 100 94
20 100 100 100 100 100 57 0 0 0 0 0 12 0 0 0 0 0 0 0 0 0 0 0 0 4 47 68 52 5 0 30 3 40 100 100 100 100 84 96 99 100 100 100 69
15 70 98 74 100 47 0 0 3 4 0 0 11 54 0 0 0 0 0 0 0 0 0 0 0 0 0 8 58 5 4 5 2 10 100 100 100 100 100 98 100 100 100 100 100
7 20 20 96 23 0 0 0 5 7 0 2 77 100 33 0 0 0 0 0 0 0 0 0 0 0 0 2 94 10 87 26 5 5 69 100 99 100 100 100 100 100 100 81 95
6 22 42 98 0 2 3 5 9 58 0 0 7 99 76 0 0 0 0 0 0 0 0 0 0 0 0 0 6 100 100 56 5 86 6 100 44 100 93 93 100 76 100 68 95
5 68 99 61 80 28 41 13 60 73 3 0 7 95 100 5 0 0 0 0 0 0 0 0 0 0 0 0 0 3 99 84 73 3 17 90 24 100 89 27 100 100 100 98 14
69 89 100 100 100 100 76 98 100 100 96 1 0 100 100 100 4 1 0 4 0 0 0 0 0 0 0 0 0 0 6 15 5 16 0 63 56 100 21 30 54 99 100 99 91
100 100 100 100 100 100 100 100 100 100 100 2 0 30 100 100 100 22 0 2 0 0 0 0 0 0 0 0 0 0 0 5 6 36 6 5 24 48 41 92 73 100 100 100 100
100 100 100 100 100 100 100 100 100 100 100 5 0 0 96 100 100 95 59 0 0 0 0 0 0 0 0 0 0 0 0 5 5 0 77 5 79 99 69 78 75 70 100 100 100
80 98 100 100 100 100 100 100 100 100 98 13 5 0 0 86 100 100 100 34 19 5 5 0 0 0 0 0 0 0 0 1 1 0 50 18 44 70 96 100 100 87 100 100 100
41 96 97 100 100 100 100 100 100 100 28 29 7 29 2 0 7 69 99 94 79 99 5 5 0 0 0 0 0 0 0 0 0 5 5 5 9 91 100 100 100 100 100 100 100
9 59 100 100 100 100 100 100 100 100 5 62 50 100 98 53 6 7 1 8 6 63 100 11 5 5 0 3 0 0 5 5 5 70 9 56 23 88 67 100 94 99 100 100 100
5 82 100 99 100 100 100 100 95 57 42 100 100 100 100 92 51 2 3 0 0 5 68 96 75 52 5 17 4 0 0 3 16 64 43 21 19 100 98 95 100 100 76 100 100
5 50 60 96 66 100 100 100 39 94 100 9 35 5 5 0 0 0 60 10 0 15 61 5 84 97 44 14 8 3 2 0 1 39 4 39 98 100 97 100 100 100 100 100 100
34 5 79 100 100 100 100 66 25 59 61 25 33 36 0 0 6 31 4 2 5 3 4 33 43 98 100 80 5 5 5 0 0 44 11 2 89 100 38 100 100 100 100 100 100
68 5 51 100 100 100 88 90 90 76 5 1 5 3 5 0 3 87 83 96 100 100 100 95 5 78 100 95 87 5 5 3 5 28 37 51 90 57 90 75 100 100 100 100 100
6 5 87 100 100 100 92 71 98 89 36 3 5 4 0 2 1 5 52 70 100 100 100 100 100 100 100 98 100 83 14 1 94 88 10 40 64 95 93 100 100 100 85 100 100

GFSSW_prec_cloud_114.txt.gz
Cloud_Cover
100 100 100 100 100 100 100 100 100 100 100 100 100 100 94 63 1 21 0 0 0 0 0 0 0 0 32 100 100 97 100 100 100 100 100 100 98 100 100 95 5 5 5 56 2
100 100 100 100 100 100 100 100 100 100 100 100 100 100 82 85 35 0 0 0 0 0 0 0 0 0 5 89 100 95 100 100 100 100 100 98 98 100 86 98 75 5 4 11 34
100 100 100 100 100 100 100 100 100 100 100 100 100 100 16 82 29 0 0 0 0 0 0 0 0 0 5 20 100 100 100 100 100 97 99 100 100 100 94 76 85 5 27 51 32
100 100 100 100 100 100 100 100 100 100 100 100 100 68 9 59 0 0 0 0 0 3 0 0 0 0 8 59 100 100 100 98 82 100 100 100 100 100 100 100 96 29 3 3 10
100 100 100 100 100 100 100 100 100 100 100 100 100 36 1 0 0 0 0 0 0 0 0 5 5 5 5 5 70 97 100 100 79 100 100 100 100 100 100 100 100 80 5 3 5
100 100 100 100 100 100 100 100 100 100 100 100 4 55 0 0 0 0 0 0 0 0 5 5 13 10 5 5 4 17 100 100 100 84 99 92 97 100 100 100 94 81 7 59 1
100 100 100 100 100 100 100 100 100 100 100 99 2 35 0 0 0 0 0 0 0 0 5 5 5 5 5 4 0 0 1 100 100 100 100 100 100 100 100 100 98 27 5 24 11
100 100 100 100 100 100 100 93 100 100 100 63 53 1 0 0 0 0 0 0 0 0 2 5 5 5 5 2 0 0 0 2 2 100 100 100 86 100 100 100 100 88 7 9 93
100 100 100 100 100 100 88 59 87 100 100 18 4 0 0 0 0 0 0 0 0 0 0 6 5 4 3 2 0 0 0 2 2 94 100 93 100 32 92 100 100 100 75 14 100
100 100 100 100 100 100 33 3 49 16 5 0 0 0 0 0 0 0 0 0 0 0 0 0 4 2 2 5 4 2 4 0 4 49 98 100 93 75 46 100 100 100 100 19 60
81 100 100 100 100 100 13 21 0 0 0 0 0 0 5 0 0 0 0 0 0 0 0 0 0 0 5 5 5 5 5 5 1 5 100 79 49 51 13 98 100 100 100 100 91
29 93 100 100 100 100 55 0 0 0 0 0 0 0 99 40 0 0 0 0 0 0 0 0 0 0 0 4 5 5 5 40 5 4 60 96 100 97 30 51 99 100 100 40 99
83 10 38 100 100 47 5 1 0 0 0 4 4 2 44 78 0 0 0 0 0 0 0 0 0 0 0 1 5 5 7 5 4 22 3 100 100 100 72 94 100 100 100 100 95
24 10 73 100 26 31 54 22 60 5 4 5 5 5 0 100 4 0 0 0 0 0 0 0 0 0 0 0 0 6 57 5 0 5 10 99 100 100 100 100 65 79 100 100 100
12 25 100 100 100 100 100 100 100 74 5 5 5 1 5 19 87 6 0 0 0 0 0 0 0 0 0 0 0 4 5 5 5 70 5 80 100 100 100 99 49 17 99 100 100
24 82 98 98 100 100 100 100 100 100 67 95 50 0 5 8 100 23 0 0 0 0 0 0 0 0 0 0 0 0 4 5 5 97 5 15 56 98 100 90 89 100 100 100 98
32 100 90 5 96 100 100 100 100 100 99 100 99 6 91 85 48 100 18 1 0 0 0 0 0 0 0 0 0 0 15 26 43 5 2 34 47 5 100 66 84 93 100 98 99
96 92 94 66 100 100 100 100 100 100 100 100 100 23 31 86 100 100 100 4 0 0 0 0 0 0 0 0 0 0 4 5 5 0 0 1 93 99 100 91 86 42 100 100 100
33 82 78 94 58 63 99 100 100 100 100 100 100 98 19 100 100 100 100 89 0 0 0 0 0 0 0 0 0 0 0 5 5 0 5 5 32 100 100 96 82 18 8 100 100
29 97 93 57 100 100 69 100 100 100 100 100 100 45 5 58 100 100 97 90 100 82 4 0 0 0 0 0 0 0 0 0 0 0 4 53 8 71 97 100 82 76 99 100 100
82 99 84 98 98 100 96 100 100 100 100 100 100 91 57 5 96 100 100 100 99 100 92 4 2 0 0 0 0 0 0 0 0 0 0 0 0 21 66 99 100 100 98 48 100
29 32 36 81 83 97 93 100 100 100 100 100 100 100 100 93 32 72 100 100 100 100 100 100 20 5 0 0 0 0 0 0 0 0 0 0 7 86 67 100 100 100 99 73 100
20 24 70 74 92 100 100 100 100 100 100 100 18 5 8 64 40 5 5 92 99 100 100 85 100 40 5 0 0 0 0 0 0 0 0 0 3 71 47 23 98 100 100 100 96
5 53 71 63 93 100 100 100 100 100 100 98 30 78 55 44 56 54 17 4 15 94 100 99 100 100 5 4 0 0 0 0 0 0 0 0 76 99 94 89 97 100 100 100 100
5 5 7 100 100 100 100 100 93 100 66 35 84 100 100 100 100 51 93 5 5 4 14 83 92 95 95 95 72 78 0 0 0 0 2 0 0 2 82 42 60 100 100 100 100
0 0 15 19 5 9 32 99 79 68 35 20 8 5 9 47 22 52 5 1 3 3 5 5 5 6 14 100 100 94 8 2 0 0 0 0 0 0 10 70 98 100 84 100 100
0 3 5 56 13 59 62 39 5 5 21 6 5 5 5 5 5 4 0 0 3 72 98 52 99 100 24 36 100 97 5 2 5 5 1 2 0 0 6 57 100 100 100 100 100

GFSSW_prec_cloud_117.txt.gz
Cloud_Cover
100 100 80 100 100 100 100 100 100 100 100 100 100 100 35 11 0 0 0 0 0 0 0 0 0 0 3 100 100 100 100 100 100 74 100 98 98 64 43 4 5 0 5 0 88
100 100 100 100 100 100 100 100 100 100 100 100 100 100 48 44 0 0 0 0 0 0 0 0 0 0 4 99 100 100 100 100 100 100 100 99 75 60 25 22 5 0 0 11 52
100 100 100 100 100 100 100 100 100 100 100 37 100 100 51 58 0 0 0 0 0 0 0 0 0 0 5 24 90 100 100 100 100 93 73 94 100 87 54 70 5 0 0 10 0
100 100 100 100 100 100 100 100 100 100 100 100 99 16 92 22 0 0 0 0 0 0 0 0 0 5 5 14 98 100 100 100 100 96 94 94 100 100 99 31 35 4 1 1 0
100 100 100 100 100 100 100 100 100 100 100 100 94 0 5 0 0 0 0 0 0 0 0 3 5 6 4 6 21 100 100 100 100 99 89 98 94 100 100 100 53 14 0 0 0
100 100 100 100 100 100 100 100 100 100 100 100 20 16 0 0 0 0 0 0 0 0 0 2 5 42 5 4 2 96 100 100 100 50 98 99 93 100 100 98 40 20 2 0 5
100 100 100 100 100 100 100 100 100 100 100 94 0 22 0 0 0 0 0 0 0 0 0 2 5 5 5 4 5 6 61 100 100 100 100 100 100 100 100 80 70 5 11 3 5
100 100 100 100 100 100 100 100 100 100 100 4 79 0 0 0 0 0 0 0 0 0 0 0 5 5 5 1 4 4 5 18 100 100 88 96 100 100 94 82 98 58 5 5 5
100 100 100 100 100 100 100 100 100 100 26 4 6 0 0 0 0 0 0 0 0 0 0 0 2 5 5 5 5 2 3 1 71 100 100 100 95 100 87 100 100 90 92 38 18
97 100 100 100 100 100 64 28 55 5 4 0 0 0 0 0 0 0 0 0 0 0 0 0 0 4 4 5 4 4 5 4 5 53 100 100 96 89 99 100 100 100 100 11 47
40 61 100 100 100 100 12 0 0 0 0 0 0 0 0 0 0 0 0 0 0 0 0 0 0 1 5 5 5 5 5 5 5 5 74 50 83 91 39 99 100 100 84 100 100
7 42 100 100 100 100 21 8 4 0 0 0 0 0 0 0 1 0 0 0 0 0 0 0 0 0 0 5 5 5 5 5 12 9 13 94 47 48 86 90 86 100 100 100 99
9 21 100 100 100 73 81 84 100 93 16 14 5 1 0 0 5 5 0 0 0 0 0 0 0 0 0 1 5 6 87 16 5 4 3 13 38 100 53 89 77 100 100 100 100
6 48 100 100 16 55 54 100 100 100 100 100 96 12 0 1 37 85 5 1 0 0 0 0 0 0 0 0 3 5 64 7 5 5 5 5 6 100 100 75 17 92 100 100 97
9 100 100 98 94 98 67 100 100 100 100 100 100 58 5 4 5 94 95 93 0 0 0 0 0 0 0 0 0 2 5 74 17 3 2 5 5 66 100 100 95 76 99 100 100
31 100 99 93 89 88 94 99 100 100 100 100 100 100 74 39 26 82 100 100 32 0 0 0 0 0 0 0 0 0 0 2 5 5 1 3 4 57 93 100 100 91 18 95 100
100 100 100 60 94 70 100 100 100 100 100 100 100 100 100 23 97 91 99 100 96 3 0 0 0 0 0 0 0 0 0 0 1 0 1 0 0 100 93 100 100 100 65 35 94
100 82 79 80 100 92 98 100 100 100 100 100 100 100 100 13 100 100 24 100 100 34 0 0 0 0 0 0 0 0 0 0 0 0 3 0 0 100 100 97 100 100 73 84 100
13 13 5 100 89 84 100 100 100 100 100 100 100 100 100 72 100 100 100 36 100 100 7 0 0 0 0 0 0 0 0 0 0 0 0 0 0 0 100 100 100 99 79 68 100
3 5 5 5 28 53 100 100 100 100 100 100 100 100 100 41 80 100 100 100 100 100 100 4 0 0 0 0 0 0 0 0 0 5 5 0 0 0 19 100 100 72 62 99 100
0 3 0 5 5 55 100 100 100 100 100 100 100 100 100 93 9 100 100 95 100 100 100 98 21 2 0 0 0 0 0 0 0 0 5 2 0 0 0 100 100 19 88 77 100
0 0 2 5 8 54 94 100 100 100 100 100 100 100 100 100 36 61 100 100 83 100 100 100 96 9 0 0 0 0 0 0 0 0 0 0 0 0 8 62 100 100 100 99 100
0 0 5 5 5 64 88 100 100 100 100 100 100 100 100 99 7 5 79 100 100 98 100 82 46 70 8 0 0 0 0 0 0 0 0 0 0 44 25 15 98 100 100 100 100
0 0 0 3 5 85 100 100 100 100 100 100 100 100 100 99 5 5 5 100 100 100 100 100 80 8 3 5 0 0 0 0 0 0 3 0 0 88 98 62 94 100 100 100 100
0 0 0 4 3 5 10 100 100 100 100 100 100 100 60 32 5 55 13 5 96 100 100 100 100 100 37 3 5 35 2 0 0 0 0 1 0 0 55 95 100 94 96 90 100
0 0 0 0 5 5 5 19 49 100 85 77 100 100 48 82 100 65 82 42 6 44 100 100 100 99 76 5 5 5 100 95 2 0 0 0 0 0 27 100 100 100 100 100 100
0 0 0 0 5 5 5 5 67 6 6 5 6 11 99 100 31 26 26 81 24 56 34 16 66 86 16 32 23 5 10 90 22 5 0 0 0 0 92 100 100 100 100 89 100

GFSSW_prec_cloud_123.txt.gz
Cloud_Cover
33 100 100 100 100 100 100 100 100 78 30 13 0 0 0 0 0 0 0 0 0 0 8 4 65 100 100 100 100 100 100 100 100 72 99 91 10 85 45 10 21 20 4 2 17
71 61 100 100 100 100 100 100 100 98 98 38 2 0 7 0 0 0 0 0 0 0 0 0 25 99 100 100 95 87 100 97 100 89 77 34 68 52 97 36 7 9 1 5 14
100 100 88 90 100 100 100 100 100 92 100 38 21 2 0 0 0 0 0 0 0 0 0 0 0 17 92 100 100 99 98 78 100 100 75 91 92 44 55 94 24 1 5 2 2
96 53 100 100 100 100 100 100 99 100 99 25 19 6 0 0 0 0 0 0 0 0 0 0 0 0 12 99 99 100 98 100 100 100 98 32 79 99 68 77 82 15 5 0 0
74 95 28 38 54 42 50 57 96 97 20 32 45 0 0 0 0 0 0 0 0 0 0 0 0 0 47 100 83 99 100 100 100 100 100 46 95 59 51 97 55 76 5 5 1
98 88 100 98 22 55 64 68 28 37 82 9 1 0 0 0 0 0 0 0 0 0 0 1 3 0 59 100 100 74 100 100 100 100 100 86 76 77 98 48 95 5 13 5 2
10 96 76 97 95 28 15 48 76 54 12 6 0 0 0 0 0 0 0 0 0 0 0 0 3 2 62 100 48 98 100 100 100 100 99 81 63 100 100 37 83 26 14 23 5
100 72 91 82 99 38 70 47 58 35 3 0 0 0 0 0 0 0 0 0 0 0 0 0 0 0 3 91 5 40 52 100 100 100 100 72 93 100 100 100 56 45 59 45 37
12 17 36 37 84 26 82 96 95 8 0 0 0 0 0 0 0 0 0 0 0 0 0 0 0 2 0 1 90 99 99 100 100 100 86 69 98 100 100 100 100 83 95 90 79
5 3 10 60 23 6 5 36 18 20 1 0 0 0 0 0 0 0 0 0 0 0 0 2 5 5 2 20 100 91 92 100 100 100 98 98 100 100 100 100 90 67 75 94 88
5 0 0 53 0 0 48 0 0 0 0 0 0 0 0 0 0 0 0 0 0 0 0 2 4 5 5 7 100 22 74 100 100 100 100 100 100 100 100 100 100 85 100 62 94
3 5 90 0 66 5 2 0 0 0 1 0 48 15 5 3 0 0 0 0 0 0 0 0 0 8 91 98 80 6 24 82 100 100 77 100 100 100 100 100 100 99 100 98 18
0 98 100 84 4 26 0 0 2 5 48 78 89 100 100 96 26 0 0 0 0 0 0 0 1 6 100 92 5 96 100 7 88 0 72 92 100 100 100 100 100 100 100 65 100
13 90 7 17 51 0 0 4 28 93 90 90 100 100 100 100 100 31 0 0 0 0 0 0 0 9 5 9 88 100 12 17 96 4 25 43 100 100 100 100 100 73 99 100 100
100 100 20 80 1 5 4 12 51 95 99 100 100 100 100 99 93 98 4 0 0 0 0 0 0 0 1 85 100 94 56 98 100 59 84 35 100 100 100 100 100 57 54 58 100
100 100 78 15 0 0 4 5 8 100 91 100 100 100 100 100 100 100 45 4 0 0 0 28 5 0 5 64 52 99 10 5 22 79 84 60 100 100 100 100 100 100 68 47 61
100 100 45 0 0 0 0 0 64 100 92 100 100 100 100 100 100 100 100 73 28 29 2 5 2 0 0 5 12 5 4 73 89 97 83 100 92 88 100 100 100 96 88 77 74
82 76 1 0 0 0 0 2 100 50 99 100 100 100 100 100 100 100 100 100 40 41 28 5 0 0 0 0 0 42 8 100 97 100 100 35 33 90 100 68 97 84 91 99 73
57 0 0 0 0 0 0 100 98 100 82 100 100 100 100 100 100 100 100 100 100 100 77 76 33 3 0 0 0 0 0 18 100 18 92 99 98 3 40 7 43 99 100 95 100
0 0 0 0 0 0 19 100 21 5 92 100 100 100 100 100 100 100 100 100 21 80 4 76 99 6 4 0 0 1 19 0 42 100 94 71 86 100 67 2 0 85 100 97 100
0 0 0 0 0 1 84 59 12 25 100 100 100 100 100 100 100 100 100 74 25 61 95 15 48 91 0 0 0 0 0 2 53 55 100 37 100 85 84 2 0 0 98 100 97
0 0 0 0 5 96 93 5 13 100 89 100 100 100 100 100 100 100 100 100 5 6 100 78 24 100 54 3 0 4 0 0 5 5 5 98 94 6 100 39 0 0 2 100 73
2 1 0 0 86 84 2 4 88 91 100 100 100 100 97 100 100 100 66 96 94 37 97 97 37 98 100 36 2 2 5 1 0 9 73 78 100 100 94 59 0 0 18 99 100
1 1 0 0 60 92 5 5 0 77 97 100 100 100 100 100 100 100 100 56 86 100 23 22 100 87 100 87 88 5 0 5 19 100 100 100 91 2 0 5 0 0 27 85 100
4 41 4 4 5 99 40 0 0 0 5 80 100 100 100 100 100 100 100 100 100 100 100 93 55 99 100 98 24 100 86 14 4 5 86 100 86 100 81 0 0 0 21 57 100
4 5 0 100 1 33 13 5 1 1 0 1 26 78 100 100 100 100 100 100 100 100 100 100 100 40 100 100 90 100 100 91 89 22 5 42 63 0 21 95 6 14 20 40 100
0 0 4 1 4 61 75 3 5 5 5 5 4 4 5 76 94 100 90 94 100 100 100 100 100 100 100 100 82 98 99 99 100 100 100 100 73 5 100 100 100 94 62 98 100

GFSSW_prec_cloud_129.txt.gz
Cloud_Cover
100 100 100 100 100 100 100 100 79 10 13 18 7 14 1 0 0 0 0 0 0 0 0 5 94 100 100 100 100 100 100 100 100 100 100 93 100 51 74 97 98 61 7 6 79
8 100 100 100 100 100 100 100 88 6 3 0 0 26 0 0 0 0 0 0 0 0 0 2 99 100 100 100 100 100 100 100 100 100 100 69 66 89 53 100 35 56 4 64 42
19 38 97 97 50 7 100 96 2 0 0 0 6 16 0 0 0 0 0 0 0 0 0 0 82 100 100 100 100 100 100 100 100 100 100 61 11 100 100 16 3 8 0 100 3
53 12 36 100 90 84 0 0 0 0 0 4 23 13 0 0 0 0 0 0 0 0 0 0 22 100 100 100 100 100 100 100 100 100 100 100 52 95 29 57 5 20 8 0 2
30 28 28 96 37 30 11 0 0 0 0 8 21 14 0 0 0 0 0 0 0 0 0 0 4 15 100 100 100 100 100 100 100 100 100 98 100 100 47 81 5 13 96 0 71
8 3 13 9 18 27 15 0 0 0 0 29 24 0 0 0 0 0 0 0 0 0 0 0 2 3 100 100 88 100 100 100 100 100 100 100 100 96 100 98 4 5 14 81 97
16 6 6 26 31 27 15 0 0 0 32 31 8 0 0 0 0 0 0 0 0 0 0 0 5 5 49 100 100 100 100 100 100 100 100 100 100 100 97 95 7 9 4 28 100
8 7 16 12 23 12 1 0 4 27 30 29 1 0 0 0 0 0 0 0 0 0 0 0 5 0 8 100 100 100 100 100 100 100 97 100 100 100 99 100 71 75 36 100 4
0 0 0 21 8 0 0 0 9 45 15 0 0 0 0 0 0 0 0 0 0 0 0 0 2 4 2 31 69 100 100 100 100 100 60 100 97 100 100 100 100 99 98 87 5
0 0 0 3 21 0 0 0 0 0 0 0 0 0 0 0 0 0 0 0 0 0 0 0 0 5 4 8 99 100 100 100 100 100 97 96 100 74 100 100 99 100 100 66 5
0 0 0 0 4 0 0 0 0 0 0 0 0 0 0 0 0 0 0 0 0 0 0 0 0 5 5 3 14 99 65 100 100 100 100 100 100 100 62 100 100 100 100 99 82
0 42 16 51 0 2 1 0 0 0 0 0 0 0 0 0 0 0 0 0 0 0 0 0 0 18 14 62 60 44 38 86 100 100 100 100 100 100 85 100 100 100 92 86 98
2 100 100 100 75 62 0 0 0 0 0 0 0 0 0 0 3 2 0 0 0 0 0 0 0 8 100 100 99 100 100 100 88 99 98 100 100 100 100 99 100 99 83 43 46
38 100 100 96 30 0 0 0 0 0 1 0 0 53 1 4 49 97 81 15 5 0 0 0 0 84 100 79 47 93 90 87 56 72 100 100 100 100 100 100 100 100 98 99 25
100 100 100 95 3 0 0 0 0 2 14 0 1 14 99 74 16 98 100 100 81 5 0 0 0 16 100 97 83 100 99 5 43 38 100 100 100 100 100 100 100 100 100 100 94
43 100 96 0 12 0 0 0 0 0 2 3 12 28 94 96 97 100 95 100 100 81 0 0 0 5 100 100 74 100 14 98 76 81 100 100 100 100 100 100 100 100 100 100 100
35 100 94 0 0 0 0 0 2 5 0 2 22 21 41 90 99 100 100 100 100 100 87 0 0 27 71 22 49 100 100 98 81 98 100 100 100 100 100 100 100 100 100 100 100
20 75 5 0 0 0 0 0 5 20 0 38 53 39 89 98 100 87 100 100 100 100 100 94 0 16 0 0 100 100 100 100 100 97 100 100 100 100 100 100 100 93 99 100 100
8 0 0 0 0 1 5 2 3 34 100 26 34 84 86 100 100 100 100 100 100 100 100 91 28 87 0 0 1 7 93 87 94 78 100 100 100 100 100 100 100 100 95 100 99
0 0 0 0 0 0 0 0 2 43 29 7 91 65 100 46 82 100 100 100 100 100 92 87 5 1 1 0 0 0 3 23 100 59 100 100 100 100 100 100 100 100 100 52 96
0 0 0 0 0 2 2 24 63 0 0 100 13 55 100 90 89 70 100 94 100 100 60 79 4 18 77 0 0 0 0 0 9 6 100 100 100 100 100 87 100 100 100 100 82
1 2 0 0 5 0 5 99 40 88 4 72 100 67 100 100 100 100 100 100 66 86 100 88 2 5 95 94 4 0 0 0 0 5 69 100 100 100 100 100 100 100 100 100 100
4 0 0 0 0 4 15 100 3 0 24 8 100 100 96 100 100 100 100 100 100 100 100 100 100 89 98 96 99 1 0 0 0 1 5 63 94 16 100 84 100 100 100 100 100
0 0 0 5 5 18 48 100 2 0 5 5 18 81 100 100 100 100 100 100 100 100 100 100 100 71 62 41 12 0 0 0 0 0 1 16 90 98 40 100 100 100 100 100 100
0 4 2 20 7 62 39 92 5 0 0 3 12 2 83 100 100 100 64 100 100 100 100 100 9 6 6 79 59 1 2 0 5 0 2 8 27 3 6 100 100 100 100 98 100
1 5 7 99 100 100 91 100 23 0 0 4 4 56 2 99 100 100 100 96 99 100 100 100 12 5 100 32 100 98 91 4 5 16 100 12 2 0 2 90 87 49 34 100 100
89 48 100 100 100 98 89 100 20 2 0 0 5 4 5 8 70 100 100 100 100 100 100 100 50 42 99 92 94 100 80 59 1 100 93 9 0 0 0 0 0 65 24 92 100

GFSSW_prec_cloud_132.txt.gz
Cloud_Cover
56 100 100 100 100 100 100 94 24 15 15 19 13 14 10 0 0 0 0 0 0 0 5 32 100 100 100 99 99 95 100 94 100 100 100 100 17 72 70 19 43 3 0 20 0
99 92 100 100 49 35 21 60 17 32 28 27 25 19 9 0 0 0 0 0 0 0 2 0 65 100 100 100 100 100 100 100 100 100 100 100 97 4 99 100 5 5 0 50 3
100 90 100 98 83 54 24 16 5 17 14 29 26 19 0 0 0 0 0 0 0 0 0 0 2 100 100 100 100 100 100 100 100 100 100 100 53 43 14 59 15 3 0 62 5
24 90 42 94 93 34 77 28 20 0 6 19 29 7 0 0 0 0 0 0 0 0 0 0 26 100 99 100 100 100 100 100 100 100 99 98 81 60 99 14 1 20 0 24 3
57 17 24 23 52 54 40 19 0 0 1 23 30 1 0 0 0 0 0 0 0 0 0 0 87 98 100 100 100 100 100 100 100 100 100 100 47 100 16 38 1 2 0 2 2
23 23 10 22 73 81 26 2 0 0 19 41 49 3 0 0 0 0 0 0 0 0 0 0 51 80 93 100 100 100 100 100 100 100 96 91 86 92 97 100 48 4 4 0 4
11 19 22 22 35 32 22 0 0 27 30 54 40 3 0 0 0 0 0 0 0 0 0 2 29 35 35 6 92 100 100 100 100 100 100 100 100 91 100 100 52 5 61 12 98
0 0 1 16 31 20 0 0 1 58 35 28 4 0 0 0 0 0 0 0 0 0 0 4 29 38 5 5 57 100 100 100 100 100 100 100 100 77 65 99 50 6 8 7 10
0 0 0 16 0 2 0 0 0 74 27 0 0 0 0 0 0 0 0 0 0 0 0 2 5 79 13 6 40 98 100 100 100 100 100 100 100 100 100 100 100 90 95 88 26
0 0 26 46 0 0 0 0 0 8 17 0 0 0 0 0 0 0 0 0 0 0 0 2 5 5 5 5 10 15 97 100 100 100 100 100 100 100 100 100 100 100 99 62 26
0 85 100 100 100 27 4 0 0 0 0 0 0 0 0 0 0 0 0 0 0 0 0 0 1 5 0 9 44 37 82 100 100 100 100 100 100 100 100 100 100 100 50 86 100
4 100 100 100 100 100 37 0 0 0 0 0 0 0 0 0 0 0 0 0 0 0 0 0 0 43 5 24 100 94 100 100 100 100 100 100 100 100 100 100 100 100 100 100 98
36 100 100 100 98 63 0 0 0 0 0 0 0 0 0 0 0 0 0 0 0 0 0 0 0 98 40 68 87 54 23 100 100 100 100 100 100 100 100 100 100 100 97 11 48
4 59 100 94 3 0 0 0 0 0 0 0 0 0 0 0 0 2 0 0 4 0 0 0 0 91 82 100 86 36 98 81 100 100 100 100 100 100 100 100 100 100 97 50 86
0 14 100 91 42 0 0 0 0 0 0 0 0 0 0 3 0 3 4 8 7 29 0 0 0 25 100 64 100 28 73 56 5 67 100 100 100 100 100 100 100 53 92 57 75
0 50 97 34 92 0 0 0 0 0 0 0 2 0 0 5 5 1 68 92 96 91 4 0 0 48 98 100 55 97 37 97 5 17 11 100 100 100 100 97 100 100 92 79 56
14 82 90 0 0 0 0 0 0 0 0 25 4 2 1 5 5 3 55 99 100 100 100 89 0 33 100 100 11 7 100 99 59 44 39 82 100 100 100 88 99 56 80 100 88
25 80 34 5 0 0 0 0 0 5 1 8 78 3 59 25 9 86 100 60 100 100 100 100 11 95 9 14 23 100 100 100 100 95 60 99 100 100 100 100 96 90 95 100 81
8 29 8 0 0 0 4 4 0 1 16 38 23 5 5 97 81 81 98 100 100 100 100 100 100 99 100 100 62 64 100 100 98 100 90 84 100 100 100 100 100 79 93 100 100
0 0 0 0 0 0 0 0 0 5 3 1 4 52 85 79 78 93 100 71 97 88 98 100 100 84 11 59 58 11 70 90 94 97 81 63 100 100 100 100 100 99 85 85 99
0 0 0 0 0 0 0 0 2 46 5 3 5 26 5 44 84 95 100 100 100 50 100 88 26 43 41 1 0 5 5 66 42 99 100 58 100 100 100 98 100 95 75 34 98
0 0 0 0 0 0 3 5 42 6 8 5 5 7 76 12 100 100 100 100 100 100 100 100 100 48 15 86 9 12 92 3 4 1 66 100 100 100 100 100 100 100 99 100 95
0 0 0 0 5 35 100 84 5 33 34 2 3 5 50 100 97 100 98 85 100 100 100 100 100 97 96 14 4 1 44 92 4 0 2 23 80 100 100 100 100 100 100 95 94
0 2 3 10 72 100 100 100 5 99 34 2 4 2 8 81 100 82 99 100 100 100 100 100 100 93 96 11 5 5 0 87 43 0 0 4 12 76 31 100 100 100 100 100 84
6 81 5 7 100 100 100 45 58 100 76 5 0 63 0 96 100 100 100 100 100 100 100 100 99 100 85 52 92 100 18 5 1 0 0 0 1 66 100 100 100 100 100 100 100
23 100 8 16 100 100 88 100 71 100 76 5 3 0 0 0 2 99 100 100 100 100 89 100 100 100 100 100 100 100 13 5 5 18 5 0 0 0 80 100 100 100 100 100 100
100 84 5 97 100 100 44 100 100 100 100 7 0 0 4 0 0 3 100 100 100 100 100 100 100 100 100 100 100 100 74 90 64 6 3 1 0 0 82 100 100 100 100 100 100

GFSSW_prec_cloud_135.txt.gz
Cloud_Cover
100 100 100 100 56 71 31 100 97 66 100 97 98 30 61 19 0 0 0 0 0 0 0 35 100 100 100 100 99 100 94 97 62 100 100 100 21 100 16 80 0 0 17 8 1
95 100 51 100 30 81 99 55 49 68 70 78 83 34 23 13 2 0 0 0 0 0 0 14 61 100 100 100 100 99 100 100 100 100 100 100 5 12 45 70 0 0 39 4 5
99 42 100 99 100 100 100 93 62 40 24 35 60 23 6 0 0 0 0 0 0 0 0 5 31 100 100 100 100 100 100 100 100 100 100 100 83 5 100 96 0 0 0 5 5
12 100 99 100 100 100 100 100 28 25 23 17 21 21 0 16 0 0 0 0 0 0 0 5 1 100 98 100 100 100 100 100 100 100 77 100 91 91 100 46 5 5 0 0 4
83 94 78 100 100 100 100 34 28 18 19 25 15 10 0 0 0 0 0 0 0 0 0 0 1 98 52 96 100 100 86 100 100 92 98 100 95 100 96 16 34 6 1 0 5
31 13 15 99 100 100 72 28 8 27 28 24 4 6 0 0 0 0 0 0 0 0 0 0 33 3 14 5 81 100 100 100 100 98 100 100 100 91 100 14 37 72 6 2 3
10 1 14 47 100 100 91 15 6 61 62 22 0 0 0 0 0 0 0 0 0 0 0 3 100 41 84 6 8 99 100 100 100 100 98 100 100 100 100 97 100 8 30 5 53
0 1 38 75 58 32 2 16 17 100 50 12 2 0 0 0 0 0 0 0 0 0 0 5 76 15 4 1 1 56 100 100 100 100 100 100 100 100 100 88 75 36 31 37 23
1 56 100 100 100 91 16 22 12 71 36 0 0 0 0 0 0 0 0 0 0 0 0 1 4 24 0 3 4 2 94 100 100 100 100 92 88 100 100 99 87 74 63 37 5
7 100 100 100 100 100 62 0 0 5 19 1 0 0 0 0 0 0 0 0 0 0 0 0 5 20 0 0 4 21 45 100 100 100 100 100 99 100 100 100 100 72 42 15 5
10 100 100 100 100 100 25 0 0 0 0 0 0 0 0 0 0 0 0 0 0 0 0 0 2 9 5 5 6 5 20 100 100 100 100 100 100 100 100 100 84 80 100 49 5
13 63 100 100 100 100 43 0 0 0 0 0 0 0 0 0 0 0 0 0 0 0 0 0 0 62 10 5 75 92 98 100 100 100 100 100 100 100 100 100 100 100 99 100 65
11 17 46 90 34 35 0 0 0 0 0 0 0 0 0 0 0 0 0 0 0 0 0 0 0 34 79 5 99 70 61 100 100 100 100 100 100 100 100 100 100 100 100 63 18
52 28 84 93 0 0 0 0 0 0 0 0 0 0 0 0 0 0 0 0 0 0 0 0 0 5 13 36 85 97 100 73 65 100 100 100 100 100 58 100 100 100 100 99 98
38 96 100 96 24 0 0 0 0 0 0 0 0 0 0 0 0 0 0 0 0 0 0 0 0 40 76 96 63 52 5 54 93 100 100 100 100 100 67 100 100 100 95 53 23
18 100 98 35 72 1 0 0 0 0 0 0 0 0 0 0 0 0 0 0 0 0 2 42 0 3 86 100 8 100 89 18 92 100 100 100 100 100 39 67 71 100 91 98 8
58 99 86 0 0 0 0 0 0 0 0 0 0 0 0 2 3 2 0 5 41 88 100 100 18 2 100 26 12 80 97 52 70 100 100 100 100 100 100 100 95 100 66 87 80
27 97 25 5 0 0 0 0 0 0 0 0 0 1 1 9 5 5 4 63 41 94 100 100 100 74 82 4 84 9 100 72 82 79 100 100 100 100 100 100 100 100 100 100 100
0 22 8 0 0 0 0 0 0 0 0 2 1 3 0 0 2 7 56 92 97 14 98 100 100 100 1 26 87 2 98 91 73 7 76 84 40 100 100 100 100 99 98 100 100
0 0 0 0 0 0 0 0 1 4 4 5 5 0 5 5 9 1 5 71 80 12 1 100 72 96 27 83 32 27 11 12 100 77 46 87 81 100 100 100 91 62 76 100 99
0 0 0 0 0 0 4 2 40 2 0 3 20 4 1 2 23 5 85 90 100 72 5 36 50 60 100 26 41 6 3 23 100 100 100 79 71 33 100 100 100 100 100 100 100
0 0 0 0 5 7 63 27 100 11 5 12 63 5 5 5 26 5 22 100 100 100 92 20 43 52 100 100 100 26 12 38 100 100 53 44 73 5 100 100 100 100 100 100 100
0 0 1 1 21 99 100 100 78 99 25 15 62 10 5 70 87 62 100 95 100 100 100 100 90 100 40 100 97 13 4 34 100 51 5 9 4 3 58 100 100 100 100 100 100
2 5 4 5 67 100 100 100 65 100 100 40 96 35 15 7 98 100 100 100 100 100 100 100 100 100 98 90 88 0 5 5 5 53 73 0 0 0 66 32 100 100 100 100 100
5 18 5 6 98 91 100 100 87 81 100 92 99 72 2 2 69 100 97 100 100 100 100 100 100 100 100 100 94 5 0 1 5 4 0 0 0 0 98 100 100 100 100 100 100
91 81 52 100 100 85 100 100 100 66 100 67 98 75 22 0 1 98 100 100 100 100 100 100 100 100 100 100 100 10 5 5 0 5 2 0 0 0 100 100 100 100 100 100 100
62 100 82 100 96 40 100 80 100 43 90 51 44 90 3 2 0 2 52 100 100 100 100 100 100 100 100 100 100 90 51 15 5 0 0 0 0 0 59 100 100 100 100 100 100

GFSSW_prec_cloud_138.txt.gz
Cloud_Cover
71 98 100 100 77 100 100 100 100 100 100 100 100 100 100 18 0 0 0 0 0 0 0 0 5 17 100 100 100 100 100 100 99 99 69 100 15 5 5 2 18 87 5 0 7
100 89 100 81 100 100 100 100 100 100 100 100 100 44 36 18 10 0 0 0 0 0 0 0 5 37 100 100 100 100 100 89 79 80 64 100 90 12 38 26 3 5 4 0 11
89 100 100 100 100 100 96 50 100 100 95 94 33 24 21 15 0 0 0 0 0 0 0 0 1 5 35 99 100 100 98 100 100 100 100 100 81 55 23 51 3 5 10 38 26
76 100 100 100 100 100 100 99 100 34 33 17 19 22 1 14 0 0 0 0 0 0 0 0 0 6 5 37 96 100 100 100 100 100 100 58 63 7 82 34 37 5 0 0 4
26 40 97 100 100 100 100 100 61 42 70 43 10 3 1 0 0 0 0 0 0 0 0 0 47 80 35 48 99 100 100 100 100 100 100 99 65 63 86 5 60 20 4 5 5
17 20 19 80 46 47 100 100 30 67 100 39 14 0 0 0 0 0 0 0 0 0 0 0 52 98 67 31 97 100 100 100 100 99 100 92 85 98 88 19 8 37 24 5 5
36 54 98 100 100 100 95 34 100 100 100 30 20 0 0 0 0 0 0 0 0 0 0 0 94 72 1 96 18 100 100 100 100 93 100 99 93 100 100 97 100 65 93 5 16
100 100 100 100 100 100 100 100 93 94 35 15 7 0 0 0 0 0 0 0 0 0 0 0 15 70 61 18 4 98 100 100 100 100 100 100 98 100 96 100 100 61 56 51 14
90 100 100 100 100 100 99 44 28 73 11 0 0 0 0 0 0 0 0 0 0 0 0 0 4 97 1 51 3 2 13 100 100 100 100 100 100 88 98 100 100 100 100 100 11
87 100 100 100 100 100 34 0 7 26 9 0 0 0 0 0 0 0 0 0 0 0 0 0 0 5 2 0 2 5 7 59 100 100 100 100 100 100 100 100 100 100 74 98 87
96 100 100 100 100 99 25 0 0 0 0 0 0 0 0 0 0 0 0 0 0 0 0 0 0 2 4 3 0 37 67 22 92 100 100 100 100 100 100 97 100 99 100 36 61
100 100 100 100 100 100 35 0 0 0 0 0 0 0 0 0 0 0 0 0 0 0 0 0 0 1 5 5 15 75 20 8 100 100 100 100 100 100 100 99 68 100 100 30 5
100 100 100 100 39 24 0 0 0 0 0 0 0 0 0 0 0 0 0 0 0 0 0 0 0 0 5 6 40 67 22 94 100 100 100 100 100 100 100 98 73 100 93 67 48
44 100 100 98 0 0 0 0 0 0 0 0 0 0 0 0 0 0 0 0 0 0 0 0 0 1 5 77 44 6 45 78 100 100 100 100 100 100 100 93 79 85 100 92 98
100 100 100 98 18 0 0 0 0 0 0 0 0 0 0 0 0 0 0 0 0 0 0 0 0 0 5 86 96 11 14 36 100 100 100 100 100 100 100 100 100 100 86 99 89
100 100 99 42 28 0 0 0 0 0 0 0 0 0 0 0 0 0 0 0 0 0 0 0 0 0 2 95 4 75 72 100 100 100 100 100 100 100 100 100 94 99 81 96 59
100 100 91 0 0 0 0 0 0 0 0 0 0 0 0 0 0 0 0 0 0 0 0 0 0 2 1 18 1 97 15 98 100 100 100 100 100 100 100 100 89 96 99 100 17
100 93 16 1 0 0 0 0 0 0 0 0 0 0 0 0 4 0 0 0 0 0 0 2 7 91 0 0 1 0 59 100 100 100 100 100 100 100 100 100 100 21 100 100 96
28 21 4 0 0 0 0 0 0 0 1 0 0 0 0 0 0 0 0 0 5 6 2 5 81 12 2 0 0 20 28 99 100 100 100 100 100 100 100 100 100 100 100 100 98
0 0 0 0 0 0 0 0 4 18 5 5 5 0 3 5 0 0 0 0 6 100 25 20 78 4 0 5 86 34 62 99 100 99 100 100 100 100 100 100 100 100 100 100 100
0 0 0 0 0 0 1 2 8 89 50 16 5 5 3 2 0 0 0 5 75 100 100 100 35 56 5 2 40 4 15 71 100 100 100 88 100 100 100 100 100 92 100 100 100
0 0 0 2 1 5 5 5 24 97 6 40 76 5 8 5 5 5 5 6 97 95 100 100 100 91 90 88 5 9 6 6 63 100 100 100 100 100 100 100 100 100 100 100 100
0 0 0 1 5 5 75 49 99 46 5 7 100 72 5 5 95 2 24 5 64 99 100 100 100 100 54 54 80 26 5 5 5 100 100 90 100 100 100 100 100 100 100 100 100
4 4 5 49 43 80 100 100 99 5 5 100 100 100 26 28 100 19 92 42 25 99 100 100 100 100 97 94 74 29 5 0 2 82 100 100 100 100 100 100 100 100 100 100 100
84 100 100 100 100 100 100 100 97 6 5 32 96 100 29 100 64 58 91 92 90 100 100 100 100 51 100 100 68 74 5 5 5 51 100 100 100 100 100 100 100 100 100 100 100
5 5 5 19 37 100 100 100 99 85 56 8 87 71 99 66 5 1 63 98 100 100 100 100 100 100 68 99 100 100 62 24 100 6 6 100 100 7 94 100 100 100 100 100 100
5 5 5 5 67 100 100 72 100 100 29 6 100 54 6 15 15 1 22 100 100 100 100 100 100 100 98 100 100 100 100 86 58 5 0 83 80 38 100 100 100 100 100 100 100